<?xml version="1.0" encoding="UTF-8" standalone="no" ?>
<gpx xmlns="http://www.topografix.com/GPX/1/1" xmlns:xsi="http://www.w3.org/2001/XMLSchema-instance" xsi:schemaLocation="http://www.topografix.com/GPX/1/1 http://www.topografix.com/GPX/1/1/gpx.xsd" version="1.1" creator="VisuGPX - https://www.visugpx.com">
  <metadata>
    <name>Travail/trotting Ducambarderie</name>
    <desc><![CDATA[Trajet que je vais renouveler souvent pour voir les améliorations.
trotting 10 mns, 7.9 km/h de moyenne, 2 mns pour la récupération. 
trotting 20 mns, 8.6 km/h de moyenne, 5/6 mns pour la récupération]]></desc>
  </metadata>
  <trk>
    <name><![CDATA[Travail / trotting 2h20. Ducambarderie]]></name>
    <desc><![CDATA[trotting 10 mns, 7.9 km/h de moyenne, 2 mns pour la récupération.
trotting 20 mns, 8.6 km/h de moyenne, 5/6 mns pour la récupération]]></desc>
    <trkseg>
      <trkpt lat="48.70841" lon="1.75901">
        <ele>173.60000610352</ele>
        <time>2011-08-20T05:38:51.000Z</time>
      </trkpt>
      <trkpt lat="48.7084" lon="1.759">
        <ele>173.60000610352</ele>
        <time>2011-08-20T05:38:52.000Z</time>
      </trkpt>
      <trkpt lat="48.70841" lon="1.75898">
        <ele>173.60000610352</ele>
        <time>2011-08-20T05:38:56.000Z</time>
      </trkpt>
      <trkpt lat="48.70841" lon="1.75898">
        <ele>173.60000610352</ele>
        <time>2011-08-20T05:38:58.000Z</time>
      </trkpt>
      <trkpt lat="48.7099" lon="1.74807">
        <ele>178.60000610352</ele>
        <time>2011-08-20T05:55:05.000Z</time>
      </trkpt>
      <trkpt lat="48.7098" lon="1.74796">
        <ele>178.39999389648</ele>
        <time>2011-08-20T05:55:13.000Z</time>
      </trkpt>
      <trkpt lat="48.70971" lon="1.74783">
        <ele>178.19999694824</ele>
        <time>2011-08-20T05:55:22.000Z</time>
      </trkpt>
      <trkpt lat="48.7097" lon="1.74782">
        <ele>178.19999694824</ele>
        <time>2011-08-20T05:55:23.000Z</time>
      </trkpt>
      <trkpt lat="48.70965" lon="1.74775">
        <ele>178</ele>
        <time>2011-08-20T05:55:28.000Z</time>
      </trkpt>
      <trkpt lat="48.70962" lon="1.7477">
        <ele>178</ele>
        <time>2011-08-20T05:55:31.000Z</time>
      </trkpt>
      <trkpt lat="48.70957" lon="1.74763">
        <ele>178</ele>
        <time>2011-08-20T05:55:37.000Z</time>
      </trkpt>
      <trkpt lat="48.70955" lon="1.7476">
        <ele>178</ele>
        <time>2011-08-20T05:55:39.000Z</time>
      </trkpt>
      <trkpt lat="48.70945" lon="1.74748">
        <ele>177.80000305176</ele>
        <time>2011-08-20T05:55:48.000Z</time>
      </trkpt>
      <trkpt lat="48.70939" lon="1.74738">
        <ele>177.80000305176</ele>
        <time>2011-08-20T05:55:55.000Z</time>
      </trkpt>
      <trkpt lat="48.70929" lon="1.74724">
        <ele>177.39999389648</ele>
        <time>2011-08-20T05:56:05.000Z</time>
      </trkpt>
      <trkpt lat="48.70917" lon="1.74708">
        <ele>177</ele>
        <time>2011-08-20T05:56:17.000Z</time>
      </trkpt>
      <trkpt lat="48.70908" lon="1.74698">
        <ele>176.80000305176</ele>
        <time>2011-08-20T05:56:25.000Z</time>
      </trkpt>
      <trkpt lat="48.70899" lon="1.74685">
        <ele>176.39999389648</ele>
        <time>2011-08-20T05:56:35.000Z</time>
      </trkpt>
      <trkpt lat="48.70891" lon="1.74674">
        <ele>176.19999694824</ele>
        <time>2011-08-20T05:56:43.000Z</time>
      </trkpt>
      <trkpt lat="48.7088" lon="1.74659">
        <ele>175.80000305176</ele>
        <time>2011-08-20T05:56:54.000Z</time>
      </trkpt>
      <trkpt lat="48.70874" lon="1.7465">
        <ele>175.80000305176</ele>
        <time>2011-08-20T05:57:00.000Z</time>
      </trkpt>
      <trkpt lat="48.70868" lon="1.74644">
        <ele>175.80000305176</ele>
        <time>2011-08-20T05:57:07.000Z</time>
      </trkpt>
      <trkpt lat="48.70859" lon="1.74632">
        <ele>175.80000305176</ele>
        <time>2011-08-20T05:57:16.000Z</time>
      </trkpt>
      <trkpt lat="48.70852" lon="1.74621">
        <ele>175.80000305176</ele>
        <time>2011-08-20T05:57:24.000Z</time>
      </trkpt>
      <trkpt lat="48.70845" lon="1.74614">
        <ele>175.80000305176</ele>
        <time>2011-08-20T05:57:31.000Z</time>
      </trkpt>
      <trkpt lat="48.70838" lon="1.74606">
        <ele>175.80000305176</ele>
        <time>2011-08-20T05:57:38.000Z</time>
      </trkpt>
      <trkpt lat="48.7083" lon="1.74595">
        <ele>176</ele>
        <time>2011-08-20T05:57:47.000Z</time>
      </trkpt>
      <trkpt lat="48.70824" lon="1.74587">
        <ele>176</ele>
        <time>2011-08-20T05:57:53.000Z</time>
      </trkpt>
      <trkpt lat="48.70816" lon="1.74575">
        <ele>176.19999694824</ele>
        <time>2011-08-20T05:58:02.000Z</time>
      </trkpt>
      <trkpt lat="48.7081" lon="1.74568">
        <ele>176.19999694824</ele>
        <time>2011-08-20T05:58:08.000Z</time>
      </trkpt>
      <trkpt lat="48.70804" lon="1.74559">
        <ele>176.19999694824</ele>
        <time>2011-08-20T05:58:15.000Z</time>
      </trkpt>
      <trkpt lat="48.70796" lon="1.7455">
        <ele>176.39999389648</ele>
        <time>2011-08-20T05:58:23.000Z</time>
      </trkpt>
      <trkpt lat="48.70794" lon="1.74547">
        <ele>176.39999389648</ele>
        <time>2011-08-20T05:58:28.000Z</time>
      </trkpt>
      <trkpt lat="48.70792" lon="1.74541">
        <ele>176.39999389648</ele>
        <time>2011-08-20T05:58:55.000Z</time>
      </trkpt>
      <trkpt lat="48.70788" lon="1.74535">
        <ele>176.39999389648</ele>
        <time>2011-08-20T05:58:59.000Z</time>
      </trkpt>
      <trkpt lat="48.70782" lon="1.74529">
        <ele>176.60000610352</ele>
        <time>2011-08-20T05:59:05.000Z</time>
      </trkpt>
      <trkpt lat="48.70782" lon="1.74526">
        <ele>176.60000610352</ele>
        <time>2011-08-20T05:59:07.000Z</time>
      </trkpt>
      <trkpt lat="48.70785" lon="1.74535">
        <ele>176.39999389648</ele>
        <time>2011-08-20T05:59:12.000Z</time>
      </trkpt>
      <trkpt lat="48.70785" lon="1.74537">
        <ele>176.39999389648</ele>
        <time>2011-08-20T05:59:15.000Z</time>
      </trkpt>
      <trkpt lat="48.7078" lon="1.74527">
        <ele>176.60000610352</ele>
        <time>2011-08-20T05:59:28.000Z</time>
      </trkpt>
      <trkpt lat="48.70775" lon="1.7452">
        <ele>176.60000610352</ele>
        <time>2011-08-20T05:59:33.000Z</time>
      </trkpt>
      <trkpt lat="48.7077" lon="1.74513">
        <ele>176.60000610352</ele>
        <time>2011-08-20T05:59:38.000Z</time>
      </trkpt>
      <trkpt lat="48.70769" lon="1.74511">
        <ele>176.60000610352</ele>
        <time>2011-08-20T05:59:39.000Z</time>
      </trkpt>
      <trkpt lat="48.70762" lon="1.74506">
        <ele>176.80000305176</ele>
        <time>2011-08-20T05:59:45.000Z</time>
      </trkpt>
      <trkpt lat="48.7076" lon="1.74503">
        <ele>176.80000305176</ele>
        <time>2011-08-20T05:59:47.000Z</time>
      </trkpt>
      <trkpt lat="48.70758" lon="1.745">
        <ele>176.80000305176</ele>
        <time>2011-08-20T05:59:50.000Z</time>
      </trkpt>
      <trkpt lat="48.70751" lon="1.7449">
        <ele>177</ele>
        <time>2011-08-20T05:59:58.000Z</time>
      </trkpt>
      <trkpt lat="48.70747" lon="1.74485">
        <ele>177.19999694824</ele>
        <time>2011-08-20T06:00:02.000Z</time>
      </trkpt>
      <trkpt lat="48.70738" lon="1.74475">
        <ele>177.60000610352</ele>
        <time>2011-08-20T06:00:10.000Z</time>
      </trkpt>
      <trkpt lat="48.70731" lon="1.74464">
        <ele>178</ele>
        <time>2011-08-20T06:00:18.000Z</time>
      </trkpt>
      <trkpt lat="48.70732" lon="1.74453">
        <ele>178.19999694824</ele>
        <time>2011-08-20T06:00:24.000Z</time>
      </trkpt>
      <trkpt lat="48.70733" lon="1.74455">
        <ele>178</ele>
        <time>2011-08-20T06:00:29.000Z</time>
      </trkpt>
      <trkpt lat="48.70738" lon="1.74447">
        <ele>178</ele>
        <time>2011-08-20T06:01:03.000Z</time>
      </trkpt>
      <trkpt lat="48.70748" lon="1.74439">
        <ele>177.60000610352</ele>
        <time>2011-08-20T06:01:11.000Z</time>
      </trkpt>
      <trkpt lat="48.70756" lon="1.74436">
        <ele>177.60000610352</ele>
        <time>2011-08-20T06:01:18.000Z</time>
      </trkpt>
      <trkpt lat="48.70767" lon="1.74428">
        <ele>177.39999389648</ele>
        <time>2011-08-20T06:01:28.000Z</time>
      </trkpt>
      <trkpt lat="48.70776" lon="1.74422">
        <ele>177.19999694824</ele>
        <time>2011-08-20T06:01:35.000Z</time>
      </trkpt>
      <trkpt lat="48.70782" lon="1.74417">
        <ele>177.19999694824</ele>
        <time>2011-08-20T06:01:41.000Z</time>
      </trkpt>
      <trkpt lat="48.70788" lon="1.74412">
        <ele>177</ele>
        <time>2011-08-20T06:01:46.000Z</time>
      </trkpt>
      <trkpt lat="48.70793" lon="1.7441">
        <ele>177</ele>
        <time>2011-08-20T06:01:50.000Z</time>
      </trkpt>
      <trkpt lat="48.70801" lon="1.74404">
        <ele>176.80000305176</ele>
        <time>2011-08-20T06:01:57.000Z</time>
      </trkpt>
      <trkpt lat="48.70811" lon="1.74398">
        <ele>176.80000305176</ele>
        <time>2011-08-20T06:02:05.000Z</time>
      </trkpt>
      <trkpt lat="48.70814" lon="1.74397">
        <ele>176.60000610352</ele>
        <time>2011-08-20T06:02:07.000Z</time>
      </trkpt>
      <trkpt lat="48.70822" lon="1.7439">
        <ele>176.60000610352</ele>
        <time>2011-08-20T06:02:14.000Z</time>
      </trkpt>
      <trkpt lat="48.70823" lon="1.7439">
        <ele>176.60000610352</ele>
        <time>2011-08-20T06:02:15.000Z</time>
      </trkpt>
      <trkpt lat="48.70827" lon="1.74386">
        <ele>176.39999389648</ele>
        <time>2011-08-20T06:02:19.000Z</time>
      </trkpt>
      <trkpt lat="48.70831" lon="1.74382">
        <ele>176.39999389648</ele>
        <time>2011-08-20T06:02:23.000Z</time>
      </trkpt>
      <trkpt lat="48.70837" lon="1.74372">
        <ele>176.39999389648</ele>
        <time>2011-08-20T06:02:31.000Z</time>
      </trkpt>
      <trkpt lat="48.70842" lon="1.74363">
        <ele>176.39999389648</ele>
        <time>2011-08-20T06:02:37.000Z</time>
      </trkpt>
      <trkpt lat="48.70845" lon="1.7436">
        <ele>176.39999389648</ele>
        <time>2011-08-20T06:02:40.000Z</time>
      </trkpt>
      <trkpt lat="48.70849" lon="1.74352">
        <ele>176.39999389648</ele>
        <time>2011-08-20T06:02:46.000Z</time>
      </trkpt>
      <trkpt lat="48.70853" lon="1.74347">
        <ele>176.39999389648</ele>
        <time>2011-08-20T06:02:50.000Z</time>
      </trkpt>
      <trkpt lat="48.70858" lon="1.74339">
        <ele>176.60000610352</ele>
        <time>2011-08-20T06:02:56.000Z</time>
      </trkpt>
      <trkpt lat="48.7086" lon="1.74333">
        <ele>176.60000610352</ele>
        <time>2011-08-20T06:03:00.000Z</time>
      </trkpt>
      <trkpt lat="48.70861" lon="1.74331">
        <ele>176.60000610352</ele>
        <time>2011-08-20T06:03:01.000Z</time>
      </trkpt>
      <trkpt lat="48.70865" lon="1.74324">
        <ele>177</ele>
        <time>2011-08-20T06:03:07.000Z</time>
      </trkpt>
      <trkpt lat="48.7087" lon="1.74317">
        <ele>177.19999694824</ele>
        <time>2011-08-20T06:03:13.000Z</time>
      </trkpt>
      <trkpt lat="48.70872" lon="1.74312">
        <ele>177.39999389648</ele>
        <time>2011-08-20T06:03:16.000Z</time>
      </trkpt>
      <trkpt lat="48.70873" lon="1.74309">
        <ele>177.60000610352</ele>
        <time>2011-08-20T06:03:18.000Z</time>
      </trkpt>
      <trkpt lat="48.70877" lon="1.74304">
        <ele>177.80000305176</ele>
        <time>2011-08-20T06:03:22.000Z</time>
      </trkpt>
      <trkpt lat="48.7088" lon="1.74296">
        <ele>178.19999694824</ele>
        <time>2011-08-20T06:03:28.000Z</time>
      </trkpt>
      <trkpt lat="48.70882" lon="1.74291">
        <ele>178.39999389648</ele>
        <time>2011-08-20T06:03:34.000Z</time>
      </trkpt>
      <trkpt lat="48.70909" lon="1.74226">
        <ele>181.39999389648</ele>
        <time>2011-08-20T06:05:41.000Z</time>
      </trkpt>
      <trkpt lat="48.70914" lon="1.74214">
        <ele>181.80000305176</ele>
        <time>2011-08-20T06:05:47.000Z</time>
      </trkpt>
      <trkpt lat="48.70915" lon="1.74211">
        <ele>181.80000305176</ele>
        <time>2011-08-20T06:05:51.000Z</time>
      </trkpt>
      <trkpt lat="48.70922" lon="1.74184">
        <ele>182.19999694824</ele>
        <time>2011-08-20T06:06:38.000Z</time>
      </trkpt>
      <trkpt lat="48.70922" lon="1.74182">
        <ele>182.39999389648</ele>
        <time>2011-08-20T06:06:39.000Z</time>
      </trkpt>
      <trkpt lat="48.70924" lon="1.74175">
        <ele>182.39999389648</ele>
        <time>2011-08-20T06:06:42.000Z</time>
      </trkpt>
      <trkpt lat="48.70926" lon="1.74166">
        <ele>182.60000610352</ele>
        <time>2011-08-20T06:06:47.000Z</time>
      </trkpt>
      <trkpt lat="48.70929" lon="1.74151">
        <ele>182.60000610352</ele>
        <time>2011-08-20T06:06:54.000Z</time>
      </trkpt>
      <trkpt lat="48.7093" lon="1.74145">
        <ele>182.60000610352</ele>
        <time>2011-08-20T06:06:57.000Z</time>
      </trkpt>
      <trkpt lat="48.70933" lon="1.74131">
        <ele>182.39999389648</ele>
        <time>2011-08-20T06:07:04.000Z</time>
      </trkpt>
      <trkpt lat="48.70935" lon="1.74122">
        <ele>182.39999389648</ele>
        <time>2011-08-20T06:07:09.000Z</time>
      </trkpt>
      <trkpt lat="48.70937" lon="1.74107">
        <ele>182.60000610352</ele>
        <time>2011-08-20T06:07:16.000Z</time>
      </trkpt>
      <trkpt lat="48.70939" lon="1.74104">
        <ele>182.60000610352</ele>
        <time>2011-08-20T06:07:18.000Z</time>
      </trkpt>
      <trkpt lat="48.70941" lon="1.74088">
        <ele>182.60000610352</ele>
        <time>2011-08-20T06:07:26.000Z</time>
      </trkpt>
      <trkpt lat="48.70944" lon="1.74076">
        <ele>182.60000610352</ele>
        <time>2011-08-20T06:07:33.000Z</time>
      </trkpt>
      <trkpt lat="48.70944" lon="1.74072">
        <ele>182.60000610352</ele>
        <time>2011-08-20T06:07:35.000Z</time>
      </trkpt>
      <trkpt lat="48.70947" lon="1.74061">
        <ele>182.60000610352</ele>
        <time>2011-08-20T06:07:41.000Z</time>
      </trkpt>
      <trkpt lat="48.70949" lon="1.74051">
        <ele>182.60000610352</ele>
        <time>2011-08-20T06:07:47.000Z</time>
      </trkpt>
      <trkpt lat="48.7095" lon="1.74049">
        <ele>182.60000610352</ele>
        <time>2011-08-20T06:07:48.000Z</time>
      </trkpt>
      <trkpt lat="48.70952" lon="1.74039">
        <ele>182.39999389648</ele>
        <time>2011-08-20T06:07:53.000Z</time>
      </trkpt>
      <trkpt lat="48.70954" lon="1.7403">
        <ele>182.39999389648</ele>
        <time>2011-08-20T06:07:59.000Z</time>
      </trkpt>
      <trkpt lat="48.70957" lon="1.74018">
        <ele>182.39999389648</ele>
        <time>2011-08-20T06:08:06.000Z</time>
      </trkpt>
      <trkpt lat="48.70958" lon="1.74016">
        <ele>182.39999389648</ele>
        <time>2011-08-20T06:08:07.000Z</time>
      </trkpt>
      <trkpt lat="48.70961" lon="1.74003">
        <ele>182.39999389648</ele>
        <time>2011-08-20T06:08:14.000Z</time>
      </trkpt>
      <trkpt lat="48.70962" lon="1.73993">
        <ele>182.39999389648</ele>
        <time>2011-08-20T06:08:20.000Z</time>
      </trkpt>
      <trkpt lat="48.70963" lon="1.73991">
        <ele>182.60000610352</ele>
        <time>2011-08-20T06:08:23.000Z</time>
      </trkpt>
      <trkpt lat="48.70964" lon="1.73983">
        <ele>182.60000610352</ele>
        <time>2011-08-20T06:08:30.000Z</time>
      </trkpt>
      <trkpt lat="48.70967" lon="1.7397">
        <ele>183</ele>
        <time>2011-08-20T06:08:36.000Z</time>
      </trkpt>
      <trkpt lat="48.70971" lon="1.73953">
        <ele>183.39999389648</ele>
        <time>2011-08-20T06:08:44.000Z</time>
      </trkpt>
      <trkpt lat="48.70972" lon="1.73947">
        <ele>183.39999389648</ele>
        <time>2011-08-20T06:08:47.000Z</time>
      </trkpt>
      <trkpt lat="48.70974" lon="1.73938">
        <ele>183.80000305176</ele>
        <time>2011-08-20T06:08:52.000Z</time>
      </trkpt>
      <trkpt lat="48.70975" lon="1.73929">
        <ele>184</ele>
        <time>2011-08-20T06:08:56.000Z</time>
      </trkpt>
      <trkpt lat="48.70977" lon="1.73923">
        <ele>184.19999694824</ele>
        <time>2011-08-20T06:08:59.000Z</time>
      </trkpt>
      <trkpt lat="48.70979" lon="1.73911">
        <ele>184.19999694824</ele>
        <time>2011-08-20T06:09:05.000Z</time>
      </trkpt>
      <trkpt lat="48.7098" lon="1.73907">
        <ele>184.19999694824</ele>
        <time>2011-08-20T06:09:07.000Z</time>
      </trkpt>
      <trkpt lat="48.70982" lon="1.73893">
        <ele>183.80000305176</ele>
        <time>2011-08-20T06:09:14.000Z</time>
      </trkpt>
      <trkpt lat="48.70984" lon="1.73888">
        <ele>183.80000305176</ele>
        <time>2011-08-20T06:09:17.000Z</time>
      </trkpt>
      <trkpt lat="48.70987" lon="1.73874">
        <ele>183.39999389648</ele>
        <time>2011-08-20T06:09:25.000Z</time>
      </trkpt>
      <trkpt lat="48.70988" lon="1.73869">
        <ele>183.39999389648</ele>
        <time>2011-08-20T06:09:28.000Z</time>
      </trkpt>
      <trkpt lat="48.7099" lon="1.73862">
        <ele>183.19999694824</ele>
        <time>2011-08-20T06:09:32.000Z</time>
      </trkpt>
      <trkpt lat="48.70992" lon="1.73852">
        <ele>183</ele>
        <time>2011-08-20T06:09:37.000Z</time>
      </trkpt>
      <trkpt lat="48.70995" lon="1.73837">
        <ele>182.80000305176</ele>
        <time>2011-08-20T06:09:45.000Z</time>
      </trkpt>
      <trkpt lat="48.70999" lon="1.73822">
        <ele>182.60000610352</ele>
        <time>2011-08-20T06:09:53.000Z</time>
      </trkpt>
      <trkpt lat="48.71003" lon="1.73808">
        <ele>182.19999694824</ele>
        <time>2011-08-20T06:10:00.000Z</time>
      </trkpt>
      <trkpt lat="48.7101" lon="1.738">
        <ele>182.19999694824</ele>
        <time>2011-08-20T06:10:07.000Z</time>
      </trkpt>
      <trkpt lat="48.71017" lon="1.73793">
        <ele>182</ele>
        <time>2011-08-20T06:10:14.000Z</time>
      </trkpt>
      <trkpt lat="48.71024" lon="1.73785">
        <ele>182</ele>
        <time>2011-08-20T06:10:21.000Z</time>
      </trkpt>
      <trkpt lat="48.71031" lon="1.73776">
        <ele>182</ele>
        <time>2011-08-20T06:10:28.000Z</time>
      </trkpt>
      <trkpt lat="48.71038" lon="1.73769">
        <ele>182</ele>
        <time>2011-08-20T06:10:35.000Z</time>
      </trkpt>
      <trkpt lat="48.71045" lon="1.73758">
        <ele>182</ele>
        <time>2011-08-20T06:10:42.000Z</time>
      </trkpt>
      <trkpt lat="48.71047" lon="1.73756">
        <ele>182</ele>
        <time>2011-08-20T06:10:44.000Z</time>
      </trkpt>
      <trkpt lat="48.71052" lon="1.7375">
        <ele>182.19999694824</ele>
        <time>2011-08-20T06:10:49.000Z</time>
      </trkpt>
      <trkpt lat="48.71055" lon="1.73746">
        <ele>182</ele>
        <time>2011-08-20T06:10:52.000Z</time>
      </trkpt>
      <trkpt lat="48.7106" lon="1.73741">
        <ele>182</ele>
        <time>2011-08-20T06:10:56.000Z</time>
      </trkpt>
      <trkpt lat="48.71068" lon="1.73736">
        <ele>181.80000305176</ele>
        <time>2011-08-20T06:11:03.000Z</time>
      </trkpt>
      <trkpt lat="48.71071" lon="1.73734">
        <ele>181.80000305176</ele>
        <time>2011-08-20T06:11:05.000Z</time>
      </trkpt>
      <trkpt lat="48.71079" lon="1.73727">
        <ele>181.80000305176</ele>
        <time>2011-08-20T06:11:13.000Z</time>
      </trkpt>
      <trkpt lat="48.71089" lon="1.73717">
        <ele>181.39999389648</ele>
        <time>2011-08-20T06:11:22.000Z</time>
      </trkpt>
      <trkpt lat="48.71096" lon="1.73709">
        <ele>181.39999389648</ele>
        <time>2011-08-20T06:11:29.000Z</time>
      </trkpt>
      <trkpt lat="48.71102" lon="1.73702">
        <ele>181.19999694824</ele>
        <time>2011-08-20T06:11:35.000Z</time>
      </trkpt>
      <trkpt lat="48.7111" lon="1.73696">
        <ele>181.19999694824</ele>
        <time>2011-08-20T06:11:42.000Z</time>
      </trkpt>
      <trkpt lat="48.71118" lon="1.73688">
        <ele>181.19999694824</ele>
        <time>2011-08-20T06:11:49.000Z</time>
      </trkpt>
      <trkpt lat="48.71127" lon="1.73679">
        <ele>181.39999389648</ele>
        <time>2011-08-20T06:11:57.000Z</time>
      </trkpt>
      <trkpt lat="48.71137" lon="1.73667">
        <ele>181.39999389648</ele>
        <time>2011-08-20T06:12:07.000Z</time>
      </trkpt>
      <trkpt lat="48.71145" lon="1.73658">
        <ele>181.60000610352</ele>
        <time>2011-08-20T06:12:15.000Z</time>
      </trkpt>
      <trkpt lat="48.71154" lon="1.73649">
        <ele>181.80000305176</ele>
        <time>2011-08-20T06:12:24.000Z</time>
      </trkpt>
      <trkpt lat="48.71162" lon="1.73641">
        <ele>181.80000305176</ele>
        <time>2011-08-20T06:12:32.000Z</time>
      </trkpt>
      <trkpt lat="48.71169" lon="1.73634">
        <ele>181.80000305176</ele>
        <time>2011-08-20T06:12:39.000Z</time>
      </trkpt>
      <trkpt lat="48.71176" lon="1.73626">
        <ele>181.80000305176</ele>
        <time>2011-08-20T06:12:47.000Z</time>
      </trkpt>
      <trkpt lat="48.71186" lon="1.73614">
        <ele>181.80000305176</ele>
        <time>2011-08-20T06:12:56.000Z</time>
      </trkpt>
      <trkpt lat="48.71194" lon="1.73604">
        <ele>181.80000305176</ele>
        <time>2011-08-20T06:13:04.000Z</time>
      </trkpt>
      <trkpt lat="48.71202" lon="1.73606">
        <ele>182.19999694824</ele>
        <time>2011-08-20T06:13:10.000Z</time>
      </trkpt>
      <trkpt lat="48.71211" lon="1.73612">
        <ele>182.60000610352</ele>
        <time>2011-08-20T06:13:17.000Z</time>
      </trkpt>
      <trkpt lat="48.71216" lon="1.73614">
        <ele>182.80000305176</ele>
        <time>2011-08-20T06:13:21.000Z</time>
      </trkpt>
      <trkpt lat="48.71228" lon="1.73614">
        <ele>183.39999389648</ele>
        <time>2011-08-20T06:13:30.000Z</time>
      </trkpt>
      <trkpt lat="48.71236" lon="1.73612">
        <ele>183.60000610352</ele>
        <time>2011-08-20T06:13:37.000Z</time>
      </trkpt>
      <trkpt lat="48.71237" lon="1.73612">
        <ele>183.80000305176</ele>
        <time>2011-08-20T06:13:38.000Z</time>
      </trkpt>
      <trkpt lat="48.71248" lon="1.73612">
        <ele>184.19999694824</ele>
        <time>2011-08-20T06:13:46.000Z</time>
      </trkpt>
      <trkpt lat="48.71252" lon="1.73612">
        <ele>184</ele>
        <time>2011-08-20T06:13:49.000Z</time>
      </trkpt>
      <trkpt lat="48.7126" lon="1.73614">
        <ele>182.39999389648</ele>
        <time>2011-08-20T06:13:56.000Z</time>
      </trkpt>
      <trkpt lat="48.71273" lon="1.73607">
        <ele>180.39999389648</ele>
        <time>2011-08-20T06:14:06.000Z</time>
      </trkpt>
      <trkpt lat="48.7128" lon="1.736">
        <ele>179.39999389648</ele>
        <time>2011-08-20T06:14:13.000Z</time>
      </trkpt>
      <trkpt lat="48.71286" lon="1.73591">
        <ele>178.60000610352</ele>
        <time>2011-08-20T06:14:20.000Z</time>
      </trkpt>
      <trkpt lat="48.71291" lon="1.73584">
        <ele>178</ele>
        <time>2011-08-20T06:14:25.000Z</time>
      </trkpt>
      <trkpt lat="48.71297" lon="1.73573">
        <ele>177.19999694824</ele>
        <time>2011-08-20T06:14:33.000Z</time>
      </trkpt>
      <trkpt lat="48.71299" lon="1.73568">
        <ele>177</ele>
        <time>2011-08-20T06:14:36.000Z</time>
      </trkpt>
      <trkpt lat="48.71301" lon="1.73557">
        <ele>177</ele>
        <time>2011-08-20T06:14:43.000Z</time>
      </trkpt>
      <trkpt lat="48.71302" lon="1.7355">
        <ele>177.19999694824</ele>
        <time>2011-08-20T06:14:49.000Z</time>
      </trkpt>
      <trkpt lat="48.71308" lon="1.7354">
        <ele>176.80000305176</ele>
        <time>2011-08-20T06:14:56.000Z</time>
      </trkpt>
      <trkpt lat="48.71312" lon="1.73537">
        <ele>176.60000610352</ele>
        <time>2011-08-20T06:14:59.000Z</time>
      </trkpt>
      <trkpt lat="48.71318" lon="1.73538">
        <ele>175.80000305176</ele>
        <time>2011-08-20T06:15:05.000Z</time>
      </trkpt>
      <trkpt lat="48.71319" lon="1.73537">
        <ele>175.80000305176</ele>
        <time>2011-08-20T06:15:07.000Z</time>
      </trkpt>
      <trkpt lat="48.71325" lon="1.73529">
        <ele>175.60000610352</ele>
        <time>2011-08-20T06:15:16.000Z</time>
      </trkpt>
      <trkpt lat="48.71326" lon="1.73529">
        <ele>175.60000610352</ele>
        <time>2011-08-20T06:15:22.000Z</time>
      </trkpt>
      <trkpt lat="48.7134" lon="1.73524">
        <ele>174.39999389648</ele>
        <time>2011-08-20T06:15:41.000Z</time>
      </trkpt>
      <trkpt lat="48.71343" lon="1.73526">
        <ele>173.80000305176</ele>
        <time>2011-08-20T06:15:43.000Z</time>
      </trkpt>
      <trkpt lat="48.71347" lon="1.73531">
        <ele>173</ele>
        <time>2011-08-20T06:15:47.000Z</time>
      </trkpt>
      <trkpt lat="48.71348" lon="1.73533">
        <ele>172.80000305176</ele>
        <time>2011-08-20T06:15:49.000Z</time>
      </trkpt>
      <trkpt lat="48.71354" lon="1.73538">
        <ele>171.60000610352</ele>
        <time>2011-08-20T06:15:56.000Z</time>
      </trkpt>
      <trkpt lat="48.71355" lon="1.73539">
        <ele>171.39999389648</ele>
        <time>2011-08-20T06:15:57.000Z</time>
      </trkpt>
      <trkpt lat="48.71363" lon="1.73548">
        <ele>169.80000305176</ele>
        <time>2011-08-20T06:16:05.000Z</time>
      </trkpt>
      <trkpt lat="48.71364" lon="1.73549">
        <ele>169.60000610352</ele>
        <time>2011-08-20T06:16:06.000Z</time>
      </trkpt>
      <trkpt lat="48.71373" lon="1.73558">
        <ele>168.19999694824</ele>
        <time>2011-08-20T06:16:14.000Z</time>
      </trkpt>
      <trkpt lat="48.71376" lon="1.7356">
        <ele>167.80000305176</ele>
        <time>2011-08-20T06:16:17.000Z</time>
      </trkpt>
      <trkpt lat="48.71383" lon="1.73567">
        <ele>166.39999389648</ele>
        <time>2011-08-20T06:16:25.000Z</time>
      </trkpt>
      <trkpt lat="48.7139" lon="1.73575">
        <ele>165.19999694824</ele>
        <time>2011-08-20T06:16:32.000Z</time>
      </trkpt>
      <trkpt lat="48.71401" lon="1.73579">
        <ele>163.80000305176</ele>
        <time>2011-08-20T06:16:39.000Z</time>
      </trkpt>
      <trkpt lat="48.71407" lon="1.73579">
        <ele>163.19999694824</ele>
        <time>2011-08-20T06:16:45.000Z</time>
      </trkpt>
      <trkpt lat="48.71407" lon="1.73578">
        <ele>163.19999694824</ele>
        <time>2011-08-20T06:16:46.000Z</time>
      </trkpt>
      <trkpt lat="48.71412" lon="1.73569">
        <ele>163.19999694824</ele>
        <time>2011-08-20T06:16:54.000Z</time>
      </trkpt>
      <trkpt lat="48.71417" lon="1.73567">
        <ele>162.60000610352</ele>
        <time>2011-08-20T06:17:00.000Z</time>
      </trkpt>
      <trkpt lat="48.71425" lon="1.73562">
        <ele>162</ele>
        <time>2011-08-20T06:17:08.000Z</time>
      </trkpt>
      <trkpt lat="48.71434" lon="1.73558">
        <ele>161.19999694824</ele>
        <time>2011-08-20T06:17:18.000Z</time>
      </trkpt>
      <trkpt lat="48.71443" lon="1.73553">
        <ele>160.39999389648</ele>
        <time>2011-08-20T06:17:26.000Z</time>
      </trkpt>
      <trkpt lat="48.71451" lon="1.73551">
        <ele>159.39999389648</ele>
        <time>2011-08-20T06:17:33.000Z</time>
      </trkpt>
      <trkpt lat="48.71455" lon="1.7355">
        <ele>159</ele>
        <time>2011-08-20T06:17:37.000Z</time>
      </trkpt>
      <trkpt lat="48.71456" lon="1.73549">
        <ele>159</ele>
        <time>2011-08-20T06:17:40.000Z</time>
      </trkpt>
      <trkpt lat="48.71464" lon="1.73554">
        <ele>158</ele>
        <time>2011-08-20T06:17:54.000Z</time>
      </trkpt>
      <trkpt lat="48.71469" lon="1.73553">
        <ele>157.39999389648</ele>
        <time>2011-08-20T06:17:57.000Z</time>
      </trkpt>
      <trkpt lat="48.71482" lon="1.73552">
        <ele>155.80000305176</ele>
        <time>2011-08-20T06:18:06.000Z</time>
      </trkpt>
      <trkpt lat="48.71493" lon="1.73549">
        <ele>154.60000610352</ele>
        <time>2011-08-20T06:18:14.000Z</time>
      </trkpt>
      <trkpt lat="48.71504" lon="1.73547">
        <ele>153.19999694824</ele>
        <time>2011-08-20T06:18:22.000Z</time>
      </trkpt>
      <trkpt lat="48.71511" lon="1.73546">
        <ele>152.39999389648</ele>
        <time>2011-08-20T06:18:28.000Z</time>
      </trkpt>
      <trkpt lat="48.71525" lon="1.73546">
        <ele>150.80000305176</ele>
        <time>2011-08-20T06:18:37.000Z</time>
      </trkpt>
      <trkpt lat="48.71537" lon="1.73544">
        <ele>149.39999389648</ele>
        <time>2011-08-20T06:18:46.000Z</time>
      </trkpt>
      <trkpt lat="48.71544" lon="1.73541">
        <ele>148.60000610352</ele>
        <time>2011-08-20T06:18:52.000Z</time>
      </trkpt>
      <trkpt lat="48.71546" lon="1.73539">
        <ele>148.39999389648</ele>
        <time>2011-08-20T06:18:56.000Z</time>
      </trkpt>
      <trkpt lat="48.71551" lon="1.73541">
        <ele>147.80000305176</ele>
        <time>2011-08-20T06:19:09.000Z</time>
      </trkpt>
      <trkpt lat="48.7156" lon="1.73539">
        <ele>146.80000305176</ele>
        <time>2011-08-20T06:19:15.000Z</time>
      </trkpt>
      <trkpt lat="48.71572" lon="1.73536">
        <ele>145.60000610352</ele>
        <time>2011-08-20T06:19:23.000Z</time>
      </trkpt>
      <trkpt lat="48.71584" lon="1.73532">
        <ele>144.19999694824</ele>
        <time>2011-08-20T06:19:33.000Z</time>
      </trkpt>
      <trkpt lat="48.71597" lon="1.7353">
        <ele>143.60000610352</ele>
        <time>2011-08-20T06:19:43.000Z</time>
      </trkpt>
      <trkpt lat="48.71609" lon="1.73527">
        <ele>142.80000305176</ele>
        <time>2011-08-20T06:19:53.000Z</time>
      </trkpt>
      <trkpt lat="48.71618" lon="1.73524">
        <ele>142.39999389648</ele>
        <time>2011-08-20T06:20:00.000Z</time>
      </trkpt>
      <trkpt lat="48.71631" lon="1.73521">
        <ele>141.80000305176</ele>
        <time>2011-08-20T06:20:10.000Z</time>
      </trkpt>
      <trkpt lat="48.71638" lon="1.73519">
        <ele>141.39999389648</ele>
        <time>2011-08-20T06:20:17.000Z</time>
      </trkpt>
      <trkpt lat="48.71638" lon="1.73519">
        <ele>141.39999389648</ele>
        <time>2011-08-20T06:20:18.000Z</time>
      </trkpt>
      <trkpt lat="48.71646" lon="1.73516">
        <ele>141</ele>
        <time>2011-08-20T06:20:31.000Z</time>
      </trkpt>
      <trkpt lat="48.7166" lon="1.73513">
        <ele>140.19999694824</ele>
        <time>2011-08-20T06:20:40.000Z</time>
      </trkpt>
      <trkpt lat="48.71666" lon="1.73512">
        <ele>140</ele>
        <time>2011-08-20T06:20:45.000Z</time>
      </trkpt>
      <trkpt lat="48.71673" lon="1.73509">
        <ele>139.60000610352</ele>
        <time>2011-08-20T06:20:51.000Z</time>
      </trkpt>
      <trkpt lat="48.71684" lon="1.73507">
        <ele>139.39999389648</ele>
        <time>2011-08-20T06:20:59.000Z</time>
      </trkpt>
      <trkpt lat="48.71692" lon="1.73505">
        <ele>139</ele>
        <time>2011-08-20T06:21:06.000Z</time>
      </trkpt>
      <trkpt lat="48.71701" lon="1.73504">
        <ele>138.80000305176</ele>
        <time>2011-08-20T06:21:14.000Z</time>
      </trkpt>
      <trkpt lat="48.71708" lon="1.73504">
        <ele>138.39999389648</ele>
        <time>2011-08-20T06:21:19.000Z</time>
      </trkpt>
      <trkpt lat="48.7172" lon="1.735">
        <ele>138</ele>
        <time>2011-08-20T06:21:28.000Z</time>
      </trkpt>
      <trkpt lat="48.71736" lon="1.73497">
        <ele>137.39999389648</ele>
        <time>2011-08-20T06:21:39.000Z</time>
      </trkpt>
      <trkpt lat="48.71742" lon="1.73495">
        <ele>137.19999694824</ele>
        <time>2011-08-20T06:21:44.000Z</time>
      </trkpt>
      <trkpt lat="48.7175" lon="1.73487">
        <ele>136.80000305176</ele>
        <time>2011-08-20T06:21:52.000Z</time>
      </trkpt>
      <trkpt lat="48.71752" lon="1.73469">
        <ele>136.80000305176</ele>
        <time>2011-08-20T06:22:02.000Z</time>
      </trkpt>
      <trkpt lat="48.71749" lon="1.73455">
        <ele>137</ele>
        <time>2011-08-20T06:22:10.000Z</time>
      </trkpt>
      <trkpt lat="48.71745" lon="1.73441">
        <ele>137</ele>
        <time>2011-08-20T06:22:18.000Z</time>
      </trkpt>
      <trkpt lat="48.71741" lon="1.73425">
        <ele>137.19999694824</ele>
        <time>2011-08-20T06:22:27.000Z</time>
      </trkpt>
      <trkpt lat="48.71736" lon="1.73408">
        <ele>137.19999694824</ele>
        <time>2011-08-20T06:22:36.000Z</time>
      </trkpt>
      <trkpt lat="48.71734" lon="1.73395">
        <ele>137</ele>
        <time>2011-08-20T06:22:44.000Z</time>
      </trkpt>
      <trkpt lat="48.71729" lon="1.73378">
        <ele>136.80000305176</ele>
        <time>2011-08-20T06:22:53.000Z</time>
      </trkpt>
      <trkpt lat="48.71728" lon="1.73367">
        <ele>136.39999389648</ele>
        <time>2011-08-20T06:23:00.000Z</time>
      </trkpt>
      <trkpt lat="48.71723" lon="1.7335">
        <ele>136.19999694824</ele>
        <time>2011-08-20T06:23:09.000Z</time>
      </trkpt>
      <trkpt lat="48.71718" lon="1.7334">
        <ele>136.19999694824</ele>
        <time>2011-08-20T06:23:16.000Z</time>
      </trkpt>
      <trkpt lat="48.71718" lon="1.73339">
        <ele>136.19999694824</ele>
        <time>2011-08-20T06:23:22.000Z</time>
      </trkpt>
      <trkpt lat="48.71715" lon="1.73329">
        <ele>136.19999694824</ele>
        <time>2011-08-20T06:23:35.000Z</time>
      </trkpt>
      <trkpt lat="48.71711" lon="1.73317">
        <ele>136.19999694824</ele>
        <time>2011-08-20T06:23:41.000Z</time>
      </trkpt>
      <trkpt lat="48.7171" lon="1.73301">
        <ele>136.19999694824</ele>
        <time>2011-08-20T06:23:50.000Z</time>
      </trkpt>
      <trkpt lat="48.71709" lon="1.73297">
        <ele>136.19999694824</ele>
        <time>2011-08-20T06:23:52.000Z</time>
      </trkpt>
      <trkpt lat="48.71708" lon="1.73291">
        <ele>136.19999694824</ele>
        <time>2011-08-20T06:23:57.000Z</time>
      </trkpt>
      <trkpt lat="48.71707" lon="1.73278">
        <ele>136.19999694824</ele>
        <time>2011-08-20T06:24:04.000Z</time>
      </trkpt>
      <trkpt lat="48.71704" lon="1.73262">
        <ele>136.19999694824</ele>
        <time>2011-08-20T06:24:13.000Z</time>
      </trkpt>
      <trkpt lat="48.71702" lon="1.73246">
        <ele>136.19999694824</ele>
        <time>2011-08-20T06:24:22.000Z</time>
      </trkpt>
      <trkpt lat="48.717" lon="1.73229">
        <ele>136.19999694824</ele>
        <time>2011-08-20T06:24:32.000Z</time>
      </trkpt>
      <trkpt lat="48.71698" lon="1.73217">
        <ele>136.19999694824</ele>
        <time>2011-08-20T06:24:39.000Z</time>
      </trkpt>
      <trkpt lat="48.71696" lon="1.73202">
        <ele>136.19999694824</ele>
        <time>2011-08-20T06:24:48.000Z</time>
      </trkpt>
      <trkpt lat="48.71694" lon="1.73188">
        <ele>136</ele>
        <time>2011-08-20T06:24:56.000Z</time>
      </trkpt>
      <trkpt lat="48.71693" lon="1.73178">
        <ele>136</ele>
        <time>2011-08-20T06:25:03.000Z</time>
      </trkpt>
      <trkpt lat="48.71691" lon="1.73163">
        <ele>136.19999694824</ele>
        <time>2011-08-20T06:25:10.000Z</time>
      </trkpt>
      <trkpt lat="48.71689" lon="1.73151">
        <ele>136.39999389648</ele>
        <time>2011-08-20T06:25:17.000Z</time>
      </trkpt>
      <trkpt lat="48.71686" lon="1.73134">
        <ele>137</ele>
        <time>2011-08-20T06:25:26.000Z</time>
      </trkpt>
      <trkpt lat="48.71683" lon="1.7312">
        <ele>137.39999389648</ele>
        <time>2011-08-20T06:25:34.000Z</time>
      </trkpt>
      <trkpt lat="48.71681" lon="1.73101">
        <ele>137.80000305176</ele>
        <time>2011-08-20T06:25:44.000Z</time>
      </trkpt>
      <trkpt lat="48.71679" lon="1.73085">
        <ele>138.19999694824</ele>
        <time>2011-08-20T06:25:53.000Z</time>
      </trkpt>
      <trkpt lat="48.71677" lon="1.73067">
        <ele>138.19999694824</ele>
        <time>2011-08-20T06:26:02.000Z</time>
      </trkpt>
      <trkpt lat="48.71675" lon="1.73052">
        <ele>138</ele>
        <time>2011-08-20T06:26:10.000Z</time>
      </trkpt>
      <trkpt lat="48.71673" lon="1.73037">
        <ele>138</ele>
        <time>2011-08-20T06:26:17.000Z</time>
      </trkpt>
      <trkpt lat="48.71671" lon="1.73021">
        <ele>138</ele>
        <time>2011-08-20T06:26:25.000Z</time>
      </trkpt>
      <trkpt lat="48.71667" lon="1.73005">
        <ele>138</ele>
        <time>2011-08-20T06:26:34.000Z</time>
      </trkpt>
      <trkpt lat="48.71664" lon="1.72991">
        <ele>138</ele>
        <time>2011-08-20T06:26:42.000Z</time>
      </trkpt>
      <trkpt lat="48.71659" lon="1.72981">
        <ele>138</ele>
        <time>2011-08-20T06:26:49.000Z</time>
      </trkpt>
      <trkpt lat="48.71654" lon="1.72972">
        <ele>138.19999694824</ele>
        <time>2011-08-20T06:26:56.000Z</time>
      </trkpt>
      <trkpt lat="48.71651" lon="1.72959">
        <ele>138.19999694824</ele>
        <time>2011-08-20T06:27:03.000Z</time>
      </trkpt>
      <trkpt lat="48.71643" lon="1.72939">
        <ele>138.19999694824</ele>
        <time>2011-08-20T06:27:10.000Z</time>
      </trkpt>
      <trkpt lat="48.71635" lon="1.72921">
        <ele>138.39999389648</ele>
        <time>2011-08-20T06:27:16.000Z</time>
      </trkpt>
      <trkpt lat="48.71626" lon="1.72899">
        <ele>138.80000305176</ele>
        <time>2011-08-20T06:27:23.000Z</time>
      </trkpt>
      <trkpt lat="48.71616" lon="1.7288">
        <ele>139</ele>
        <time>2011-08-20T06:27:29.000Z</time>
      </trkpt>
      <trkpt lat="48.71607" lon="1.72862">
        <ele>139.19999694824</ele>
        <time>2011-08-20T06:27:35.000Z</time>
      </trkpt>
      <trkpt lat="48.71596" lon="1.72834">
        <ele>139.39999389648</ele>
        <time>2011-08-20T06:27:42.000Z</time>
      </trkpt>
      <trkpt lat="48.71584" lon="1.72807">
        <ele>140.19999694824</ele>
        <time>2011-08-20T06:27:49.000Z</time>
      </trkpt>
      <trkpt lat="48.71575" lon="1.72786">
        <ele>141</ele>
        <time>2011-08-20T06:27:55.000Z</time>
      </trkpt>
      <trkpt lat="48.71565" lon="1.72764">
        <ele>141.80000305176</ele>
        <time>2011-08-20T06:28:01.000Z</time>
      </trkpt>
      <trkpt lat="48.7155" lon="1.72734">
        <ele>142.60000610352</ele>
        <time>2011-08-20T06:28:09.000Z</time>
      </trkpt>
      <trkpt lat="48.7154" lon="1.72713">
        <ele>142.80000305176</ele>
        <time>2011-08-20T06:28:15.000Z</time>
      </trkpt>
      <trkpt lat="48.71529" lon="1.72686">
        <ele>142.80000305176</ele>
        <time>2011-08-20T06:28:21.000Z</time>
      </trkpt>
      <trkpt lat="48.7152" lon="1.72657">
        <ele>142.60000610352</ele>
        <time>2011-08-20T06:28:27.000Z</time>
      </trkpt>
      <trkpt lat="48.71513" lon="1.72636">
        <ele>142.60000610352</ele>
        <time>2011-08-20T06:28:32.000Z</time>
      </trkpt>
      <trkpt lat="48.71508" lon="1.72611">
        <ele>142.19999694824</ele>
        <time>2011-08-20T06:28:38.000Z</time>
      </trkpt>
      <trkpt lat="48.71504" lon="1.72581">
        <ele>141.60000610352</ele>
        <time>2011-08-20T06:28:44.000Z</time>
      </trkpt>
      <trkpt lat="48.715" lon="1.72554">
        <ele>141.60000610352</ele>
        <time>2011-08-20T06:28:50.000Z</time>
      </trkpt>
      <trkpt lat="48.71495" lon="1.72527">
        <ele>141.60000610352</ele>
        <time>2011-08-20T06:28:56.000Z</time>
      </trkpt>
      <trkpt lat="48.71492" lon="1.72494">
        <ele>141.19999694824</ele>
        <time>2011-08-20T06:29:03.000Z</time>
      </trkpt>
      <trkpt lat="48.71488" lon="1.7246">
        <ele>140.60000610352</ele>
        <time>2011-08-20T06:29:10.000Z</time>
      </trkpt>
      <trkpt lat="48.71485" lon="1.72423">
        <ele>140</ele>
        <time>2011-08-20T06:29:18.000Z</time>
      </trkpt>
      <trkpt lat="48.71481" lon="1.72387">
        <ele>139.60000610352</ele>
        <time>2011-08-20T06:29:26.000Z</time>
      </trkpt>
      <trkpt lat="48.71481" lon="1.72359">
        <ele>139.39999389648</ele>
        <time>2011-08-20T06:29:32.000Z</time>
      </trkpt>
      <trkpt lat="48.71483" lon="1.7233">
        <ele>138.80000305176</ele>
        <time>2011-08-20T06:29:39.000Z</time>
      </trkpt>
      <trkpt lat="48.71481" lon="1.72292">
        <ele>138.60000610352</ele>
        <time>2011-08-20T06:29:46.000Z</time>
      </trkpt>
      <trkpt lat="48.71479" lon="1.72266">
        <ele>138.60000610352</ele>
        <time>2011-08-20T06:29:52.000Z</time>
      </trkpt>
      <trkpt lat="48.71474" lon="1.72243">
        <ele>139</ele>
        <time>2011-08-20T06:29:58.000Z</time>
      </trkpt>
      <trkpt lat="48.71464" lon="1.72218">
        <ele>140.39999389648</ele>
        <time>2011-08-20T06:30:05.000Z</time>
      </trkpt>
      <trkpt lat="48.71456" lon="1.72196">
        <ele>141.80000305176</ele>
        <time>2011-08-20T06:30:11.000Z</time>
      </trkpt>
      <trkpt lat="48.71444" lon="1.72186">
        <ele>143.19999694824</ele>
        <time>2011-08-20T06:30:16.000Z</time>
      </trkpt>
      <trkpt lat="48.71437" lon="1.72179">
        <ele>144.19999694824</ele>
        <time>2011-08-20T06:30:20.000Z</time>
      </trkpt>
      <trkpt lat="48.71431" lon="1.72163">
        <ele>145.19999694824</ele>
        <time>2011-08-20T06:30:24.000Z</time>
      </trkpt>
      <trkpt lat="48.71428" lon="1.72139">
        <ele>144.60000610352</ele>
        <time>2011-08-20T06:30:29.000Z</time>
      </trkpt>
      <trkpt lat="48.71424" lon="1.72116">
        <ele>144</ele>
        <time>2011-08-20T06:30:34.000Z</time>
      </trkpt>
      <trkpt lat="48.71416" lon="1.7209">
        <ele>143.39999389648</ele>
        <time>2011-08-20T06:30:40.000Z</time>
      </trkpt>
      <trkpt lat="48.71406" lon="1.72063">
        <ele>144.39999389648</ele>
        <time>2011-08-20T06:30:46.000Z</time>
      </trkpt>
      <trkpt lat="48.71391" lon="1.72037">
        <ele>145.60000610352</ele>
        <time>2011-08-20T06:30:53.000Z</time>
      </trkpt>
      <trkpt lat="48.71374" lon="1.72017">
        <ele>146.19999694824</ele>
        <time>2011-08-20T06:31:00.000Z</time>
      </trkpt>
      <trkpt lat="48.71354" lon="1.71999">
        <ele>146.19999694824</ele>
        <time>2011-08-20T06:31:07.000Z</time>
      </trkpt>
      <trkpt lat="48.71341" lon="1.71985">
        <ele>147</ele>
        <time>2011-08-20T06:31:13.000Z</time>
      </trkpt>
      <trkpt lat="48.71324" lon="1.71967">
        <ele>148.80000305176</ele>
        <time>2011-08-20T06:31:20.000Z</time>
      </trkpt>
      <trkpt lat="48.71312" lon="1.7195">
        <ele>150.39999389648</ele>
        <time>2011-08-20T06:31:26.000Z</time>
      </trkpt>
      <trkpt lat="48.71309" lon="1.71926">
        <ele>151.19999694824</ele>
        <time>2011-08-20T06:31:31.000Z</time>
      </trkpt>
      <trkpt lat="48.7131" lon="1.71896">
        <ele>151.80000305176</ele>
        <time>2011-08-20T06:31:37.000Z</time>
      </trkpt>
      <trkpt lat="48.71311" lon="1.7188">
        <ele>151.80000305176</ele>
        <time>2011-08-20T06:31:41.000Z</time>
      </trkpt>
      <trkpt lat="48.71314" lon="1.71854">
        <ele>151.80000305176</ele>
        <time>2011-08-20T06:31:47.000Z</time>
      </trkpt>
      <trkpt lat="48.71318" lon="1.71834">
        <ele>151.80000305176</ele>
        <time>2011-08-20T06:31:52.000Z</time>
      </trkpt>
      <trkpt lat="48.71318" lon="1.71816">
        <ele>151</ele>
        <time>2011-08-20T06:31:57.000Z</time>
      </trkpt>
      <trkpt lat="48.71317" lon="1.71782">
        <ele>149.60000610352</ele>
        <time>2011-08-20T06:32:05.000Z</time>
      </trkpt>
      <trkpt lat="48.71314" lon="1.7175">
        <ele>148.60000610352</ele>
        <time>2011-08-20T06:32:13.000Z</time>
      </trkpt>
      <trkpt lat="48.71314" lon="1.71715">
        <ele>147.80000305176</ele>
        <time>2011-08-20T06:32:21.000Z</time>
      </trkpt>
      <trkpt lat="48.71314" lon="1.71694">
        <ele>147.39999389648</ele>
        <time>2011-08-20T06:32:26.000Z</time>
      </trkpt>
      <trkpt lat="48.71315" lon="1.71667">
        <ele>146.80000305176</ele>
        <time>2011-08-20T06:32:33.000Z</time>
      </trkpt>
      <trkpt lat="48.71313" lon="1.71642">
        <ele>146</ele>
        <time>2011-08-20T06:32:39.000Z</time>
      </trkpt>
      <trkpt lat="48.71311" lon="1.71615">
        <ele>145.39999389648</ele>
        <time>2011-08-20T06:32:45.000Z</time>
      </trkpt>
      <trkpt lat="48.71312" lon="1.71574">
        <ele>144</ele>
        <time>2011-08-20T06:32:53.000Z</time>
      </trkpt>
      <trkpt lat="48.7131" lon="1.71531">
        <ele>143.39999389648</ele>
        <time>2011-08-20T06:33:01.000Z</time>
      </trkpt>
      <trkpt lat="48.71311" lon="1.71491">
        <ele>142.80000305176</ele>
        <time>2011-08-20T06:33:09.000Z</time>
      </trkpt>
      <trkpt lat="48.71307" lon="1.71458">
        <ele>142.80000305176</ele>
        <time>2011-08-20T06:33:16.000Z</time>
      </trkpt>
      <trkpt lat="48.71297" lon="1.71424">
        <ele>143.19999694824</ele>
        <time>2011-08-20T06:33:24.000Z</time>
      </trkpt>
      <trkpt lat="48.71294" lon="1.71389">
        <ele>142.80000305176</ele>
        <time>2011-08-20T06:33:31.000Z</time>
      </trkpt>
      <trkpt lat="48.71289" lon="1.71356">
        <ele>142.39999389648</ele>
        <time>2011-08-20T06:33:38.000Z</time>
      </trkpt>
      <trkpt lat="48.71283" lon="1.71322">
        <ele>142.19999694824</ele>
        <time>2011-08-20T06:33:45.000Z</time>
      </trkpt>
      <trkpt lat="48.71279" lon="1.71297">
        <ele>142</ele>
        <time>2011-08-20T06:33:50.000Z</time>
      </trkpt>
      <trkpt lat="48.71273" lon="1.71261">
        <ele>141.60000610352</ele>
        <time>2011-08-20T06:33:57.000Z</time>
      </trkpt>
      <trkpt lat="48.71273" lon="1.71224">
        <ele>141.19999694824</ele>
        <time>2011-08-20T06:34:04.000Z</time>
      </trkpt>
      <trkpt lat="48.71274" lon="1.71185">
        <ele>141.19999694824</ele>
        <time>2011-08-20T06:34:11.000Z</time>
      </trkpt>
      <trkpt lat="48.71267" lon="1.7115">
        <ele>141.39999389648</ele>
        <time>2011-08-20T06:34:18.000Z</time>
      </trkpt>
      <trkpt lat="48.71259" lon="1.71122">
        <ele>141.60000610352</ele>
        <time>2011-08-20T06:34:24.000Z</time>
      </trkpt>
      <trkpt lat="48.71246" lon="1.7109">
        <ele>142.39999389648</ele>
        <time>2011-08-20T06:34:32.000Z</time>
      </trkpt>
      <trkpt lat="48.71235" lon="1.71065">
        <ele>143.39999389648</ele>
        <time>2011-08-20T06:34:38.000Z</time>
      </trkpt>
      <trkpt lat="48.71221" lon="1.71038">
        <ele>144.60000610352</ele>
        <time>2011-08-20T06:34:45.000Z</time>
      </trkpt>
      <trkpt lat="48.71211" lon="1.71006">
        <ele>145.19999694824</ele>
        <time>2011-08-20T06:34:52.000Z</time>
      </trkpt>
      <trkpt lat="48.71208" lon="1.70968">
        <ele>146</ele>
        <time>2011-08-20T06:34:59.000Z</time>
      </trkpt>
      <trkpt lat="48.71205" lon="1.70937">
        <ele>146.80000305176</ele>
        <time>2011-08-20T06:35:05.000Z</time>
      </trkpt>
      <trkpt lat="48.71203" lon="1.70913">
        <ele>147.60000610352</ele>
        <time>2011-08-20T06:35:10.000Z</time>
      </trkpt>
      <trkpt lat="48.71202" lon="1.70888">
        <ele>148.80000305176</ele>
        <time>2011-08-20T06:35:15.000Z</time>
      </trkpt>
      <trkpt lat="48.71205" lon="1.70856">
        <ele>150.19999694824</ele>
        <time>2011-08-20T06:35:21.000Z</time>
      </trkpt>
      <trkpt lat="48.71211" lon="1.70827">
        <ele>150.60000610352</ele>
        <time>2011-08-20T06:35:27.000Z</time>
      </trkpt>
      <trkpt lat="48.71213" lon="1.70797">
        <ele>150</ele>
        <time>2011-08-20T06:35:34.000Z</time>
      </trkpt>
      <trkpt lat="48.71211" lon="1.70776">
        <ele>150</ele>
        <time>2011-08-20T06:35:39.000Z</time>
      </trkpt>
      <trkpt lat="48.71211" lon="1.70744">
        <ele>149.80000305176</ele>
        <time>2011-08-20T06:35:46.000Z</time>
      </trkpt>
      <trkpt lat="48.71212" lon="1.70719">
        <ele>149.60000610352</ele>
        <time>2011-08-20T06:35:52.000Z</time>
      </trkpt>
      <trkpt lat="48.71213" lon="1.70695">
        <ele>149.60000610352</ele>
        <time>2011-08-20T06:35:57.000Z</time>
      </trkpt>
      <trkpt lat="48.71217" lon="1.70668">
        <ele>149.19999694824</ele>
        <time>2011-08-20T06:36:03.000Z</time>
      </trkpt>
      <trkpt lat="48.71217" lon="1.70629">
        <ele>149</ele>
        <time>2011-08-20T06:36:11.000Z</time>
      </trkpt>
      <trkpt lat="48.71213" lon="1.70602">
        <ele>149.19999694824</ele>
        <time>2011-08-20T06:36:17.000Z</time>
      </trkpt>
      <trkpt lat="48.71207" lon="1.70575">
        <ele>149.19999694824</ele>
        <time>2011-08-20T06:36:23.000Z</time>
      </trkpt>
      <trkpt lat="48.71198" lon="1.70546">
        <ele>149</ele>
        <time>2011-08-20T06:36:30.000Z</time>
      </trkpt>
      <trkpt lat="48.71191" lon="1.70515">
        <ele>148.39999389648</ele>
        <time>2011-08-20T06:36:37.000Z</time>
      </trkpt>
      <trkpt lat="48.71187" lon="1.70485">
        <ele>147.39999389648</ele>
        <time>2011-08-20T06:36:44.000Z</time>
      </trkpt>
      <trkpt lat="48.71178" lon="1.70467">
        <ele>147.19999694824</ele>
        <time>2011-08-20T06:36:49.000Z</time>
      </trkpt>
      <trkpt lat="48.71167" lon="1.7044">
        <ele>146.19999694824</ele>
        <time>2011-08-20T06:36:55.000Z</time>
      </trkpt>
      <trkpt lat="48.7116" lon="1.7042">
        <ele>145</ele>
        <time>2011-08-20T06:36:59.000Z</time>
      </trkpt>
      <trkpt lat="48.71154" lon="1.70397">
        <ele>145</ele>
        <time>2011-08-20T06:37:04.000Z</time>
      </trkpt>
      <trkpt lat="48.71153" lon="1.7037">
        <ele>145.19999694824</ele>
        <time>2011-08-20T06:37:09.000Z</time>
      </trkpt>
      <trkpt lat="48.71154" lon="1.70339">
        <ele>145.39999389648</ele>
        <time>2011-08-20T06:37:15.000Z</time>
      </trkpt>
      <trkpt lat="48.71154" lon="1.70316">
        <ele>146</ele>
        <time>2011-08-20T06:37:20.000Z</time>
      </trkpt>
      <trkpt lat="48.71156" lon="1.70291">
        <ele>146.60000610352</ele>
        <time>2011-08-20T06:37:25.000Z</time>
      </trkpt>
      <trkpt lat="48.71162" lon="1.70271">
        <ele>146.80000305176</ele>
        <time>2011-08-20T06:37:30.000Z</time>
      </trkpt>
      <trkpt lat="48.71169" lon="1.70244">
        <ele>146.60000610352</ele>
        <time>2011-08-20T06:37:36.000Z</time>
      </trkpt>
      <trkpt lat="48.71174" lon="1.70225">
        <ele>146</ele>
        <time>2011-08-20T06:37:40.000Z</time>
      </trkpt>
      <trkpt lat="48.71188" lon="1.70203">
        <ele>144.80000305176</ele>
        <time>2011-08-20T06:37:46.000Z</time>
      </trkpt>
      <trkpt lat="48.71193" lon="1.7018">
        <ele>144.39999389648</ele>
        <time>2011-08-20T06:37:51.000Z</time>
      </trkpt>
      <trkpt lat="48.71196" lon="1.70153">
        <ele>144.39999389648</ele>
        <time>2011-08-20T06:37:56.000Z</time>
      </trkpt>
      <trkpt lat="48.712" lon="1.70127">
        <ele>144.80000305176</ele>
        <time>2011-08-20T06:38:01.000Z</time>
      </trkpt>
      <trkpt lat="48.71206" lon="1.70104">
        <ele>145</ele>
        <time>2011-08-20T06:38:06.000Z</time>
      </trkpt>
      <trkpt lat="48.71209" lon="1.70083">
        <ele>145.39999389648</ele>
        <time>2011-08-20T06:38:10.000Z</time>
      </trkpt>
      <trkpt lat="48.71212" lon="1.70064">
        <ele>145.60000610352</ele>
        <time>2011-08-20T06:38:14.000Z</time>
      </trkpt>
      <trkpt lat="48.71216" lon="1.70041">
        <ele>145.80000305176</ele>
        <time>2011-08-20T06:38:19.000Z</time>
      </trkpt>
      <trkpt lat="48.71219" lon="1.70017">
        <ele>146.19999694824</ele>
        <time>2011-08-20T06:38:24.000Z</time>
      </trkpt>
      <trkpt lat="48.71222" lon="1.6999">
        <ele>146.60000610352</ele>
        <time>2011-08-20T06:38:30.000Z</time>
      </trkpt>
      <trkpt lat="48.71229" lon="1.69966">
        <ele>146.39999389648</ele>
        <time>2011-08-20T06:38:36.000Z</time>
      </trkpt>
      <trkpt lat="48.71228" lon="1.69944">
        <ele>146.60000610352</ele>
        <time>2011-08-20T06:38:41.000Z</time>
      </trkpt>
      <trkpt lat="48.71226" lon="1.69924">
        <ele>147</ele>
        <time>2011-08-20T06:38:45.000Z</time>
      </trkpt>
      <trkpt lat="48.71224" lon="1.69896">
        <ele>147.19999694824</ele>
        <time>2011-08-20T06:38:50.000Z</time>
      </trkpt>
      <trkpt lat="48.71225" lon="1.69872">
        <ele>147.39999389648</ele>
        <time>2011-08-20T06:38:55.000Z</time>
      </trkpt>
      <trkpt lat="48.71227" lon="1.69844">
        <ele>147.39999389648</ele>
        <time>2011-08-20T06:39:01.000Z</time>
      </trkpt>
      <trkpt lat="48.71229" lon="1.69814">
        <ele>147.60000610352</ele>
        <time>2011-08-20T06:39:07.000Z</time>
      </trkpt>
      <trkpt lat="48.71233" lon="1.69784">
        <ele>147.80000305176</ele>
        <time>2011-08-20T06:39:14.000Z</time>
      </trkpt>
      <trkpt lat="48.7124" lon="1.69754">
        <ele>148</ele>
        <time>2011-08-20T06:39:21.000Z</time>
      </trkpt>
      <trkpt lat="48.71245" lon="1.69728">
        <ele>148.80000305176</ele>
        <time>2011-08-20T06:39:27.000Z</time>
      </trkpt>
      <trkpt lat="48.71248" lon="1.69706">
        <ele>149.60000610352</ele>
        <time>2011-08-20T06:39:32.000Z</time>
      </trkpt>
      <trkpt lat="48.71252" lon="1.69675">
        <ele>150.60000610352</ele>
        <time>2011-08-20T06:39:39.000Z</time>
      </trkpt>
      <trkpt lat="48.71253" lon="1.69661">
        <ele>151</ele>
        <time>2011-08-20T06:39:44.000Z</time>
      </trkpt>
      <trkpt lat="48.71257" lon="1.69654">
        <ele>151</ele>
        <time>2011-08-20T06:39:49.000Z</time>
      </trkpt>
      <trkpt lat="48.71264" lon="1.69642">
        <ele>151.19999694824</ele>
        <time>2011-08-20T06:39:57.000Z</time>
      </trkpt>
      <trkpt lat="48.71265" lon="1.69638">
        <ele>151.19999694824</ele>
        <time>2011-08-20T06:39:59.000Z</time>
      </trkpt>
      <trkpt lat="48.71267" lon="1.69632">
        <ele>151.39999389648</ele>
        <time>2011-08-20T06:40:02.000Z</time>
      </trkpt>
      <trkpt lat="48.71271" lon="1.69625">
        <ele>151.39999389648</ele>
        <time>2011-08-20T06:40:06.000Z</time>
      </trkpt>
      <trkpt lat="48.71272" lon="1.69611">
        <ele>151.80000305176</ele>
        <time>2011-08-20T06:40:12.000Z</time>
      </trkpt>
      <trkpt lat="48.71271" lon="1.69591">
        <ele>152.39999389648</ele>
        <time>2011-08-20T06:40:21.000Z</time>
      </trkpt>
      <trkpt lat="48.71272" lon="1.69575">
        <ele>152.39999389648</ele>
        <time>2011-08-20T06:40:28.000Z</time>
      </trkpt>
      <trkpt lat="48.71273" lon="1.69567">
        <ele>152</ele>
        <time>2011-08-20T06:40:32.000Z</time>
      </trkpt>
      <trkpt lat="48.71276" lon="1.69553">
        <ele>151.39999389648</ele>
        <time>2011-08-20T06:40:39.000Z</time>
      </trkpt>
      <trkpt lat="48.7128" lon="1.69537">
        <ele>150.60000610352</ele>
        <time>2011-08-20T06:40:47.000Z</time>
      </trkpt>
      <trkpt lat="48.7128" lon="1.69528">
        <ele>150.39999389648</ele>
        <time>2011-08-20T06:40:50.000Z</time>
      </trkpt>
      <trkpt lat="48.7128" lon="1.69509">
        <ele>149.60000610352</ele>
        <time>2011-08-20T06:40:59.000Z</time>
      </trkpt>
      <trkpt lat="48.71281" lon="1.69494">
        <ele>149</ele>
        <time>2011-08-20T06:41:06.000Z</time>
      </trkpt>
      <trkpt lat="48.71284" lon="1.69483">
        <ele>147.80000305176</ele>
        <time>2011-08-20T06:41:12.000Z</time>
      </trkpt>
      <trkpt lat="48.71286" lon="1.69465">
        <ele>146.60000610352</ele>
        <time>2011-08-20T06:41:20.000Z</time>
      </trkpt>
      <trkpt lat="48.71288" lon="1.69449">
        <ele>145.19999694824</ele>
        <time>2011-08-20T06:41:28.000Z</time>
      </trkpt>
      <trkpt lat="48.7129" lon="1.69432">
        <ele>144</ele>
        <time>2011-08-20T06:41:37.000Z</time>
      </trkpt>
      <trkpt lat="48.71292" lon="1.69422">
        <ele>143.19999694824</ele>
        <time>2011-08-20T06:41:42.000Z</time>
      </trkpt>
      <trkpt lat="48.71297" lon="1.69417">
        <ele>142.60000610352</ele>
        <time>2011-08-20T06:41:47.000Z</time>
      </trkpt>
      <trkpt lat="48.713" lon="1.69401">
        <ele>142</ele>
        <time>2011-08-20T06:41:54.000Z</time>
      </trkpt>
      <trkpt lat="48.71305" lon="1.6938">
        <ele>141</ele>
        <time>2011-08-20T06:42:04.000Z</time>
      </trkpt>
      <trkpt lat="48.71306" lon="1.69374">
        <ele>140.80000305176</ele>
        <time>2011-08-20T06:42:09.000Z</time>
      </trkpt>
      <trkpt lat="48.71308" lon="1.69354">
        <ele>140</ele>
        <time>2011-08-20T06:42:40.000Z</time>
      </trkpt>
      <trkpt lat="48.71309" lon="1.6935">
        <ele>139.80000305176</ele>
        <time>2011-08-20T06:42:41.000Z</time>
      </trkpt>
      <trkpt lat="48.7131" lon="1.6934">
        <ele>139.39999389648</ele>
        <time>2011-08-20T06:42:47.000Z</time>
      </trkpt>
      <trkpt lat="48.7131" lon="1.6934">
        <ele>139.39999389648</ele>
        <time>2011-08-20T06:42:48.000Z</time>
      </trkpt>
      <trkpt lat="48.71312" lon="1.69331">
        <ele>139</ele>
        <time>2011-08-20T06:43:00.000Z</time>
      </trkpt>
      <trkpt lat="48.71314" lon="1.6932">
        <ele>139</ele>
        <time>2011-08-20T06:43:05.000Z</time>
      </trkpt>
      <trkpt lat="48.71316" lon="1.69313">
        <ele>138.80000305176</ele>
        <time>2011-08-20T06:43:09.000Z</time>
      </trkpt>
      <trkpt lat="48.71318" lon="1.69303">
        <ele>139</ele>
        <time>2011-08-20T06:43:15.000Z</time>
      </trkpt>
      <trkpt lat="48.71321" lon="1.69289">
        <ele>139</ele>
        <time>2011-08-20T06:43:23.000Z</time>
      </trkpt>
      <trkpt lat="48.71324" lon="1.69278">
        <ele>139</ele>
        <time>2011-08-20T06:43:30.000Z</time>
      </trkpt>
      <trkpt lat="48.71324" lon="1.69276">
        <ele>139</ele>
        <time>2011-08-20T06:43:31.000Z</time>
      </trkpt>
      <trkpt lat="48.71325" lon="1.69263">
        <ele>139.19999694824</ele>
        <time>2011-08-20T06:43:39.000Z</time>
      </trkpt>
      <trkpt lat="48.71326" lon="1.69257">
        <ele>139.19999694824</ele>
        <time>2011-08-20T06:43:42.000Z</time>
      </trkpt>
      <trkpt lat="48.71327" lon="1.6925">
        <ele>139.19999694824</ele>
        <time>2011-08-20T06:43:46.000Z</time>
      </trkpt>
      <trkpt lat="48.71329" lon="1.69233">
        <ele>138.80000305176</ele>
        <time>2011-08-20T06:43:53.000Z</time>
      </trkpt>
      <trkpt lat="48.71331" lon="1.69211">
        <ele>138</ele>
        <time>2011-08-20T06:44:03.000Z</time>
      </trkpt>
      <trkpt lat="48.71331" lon="1.69205">
        <ele>138</ele>
        <time>2011-08-20T06:44:07.000Z</time>
      </trkpt>
      <trkpt lat="48.71331" lon="1.69204">
        <ele>138</ele>
        <time>2011-08-20T06:44:10.000Z</time>
      </trkpt>
      <trkpt lat="48.71332" lon="1.69185">
        <ele>137.39999389648</ele>
        <time>2011-08-20T06:44:54.000Z</time>
      </trkpt>
      <trkpt lat="48.71333" lon="1.69181">
        <ele>137.19999694824</ele>
        <time>2011-08-20T06:44:58.000Z</time>
      </trkpt>
      <trkpt lat="48.71337" lon="1.69161">
        <ele>137.19999694824</ele>
        <time>2011-08-20T06:45:15.000Z</time>
      </trkpt>
      <trkpt lat="48.7134" lon="1.69146">
        <ele>138</ele>
        <time>2011-08-20T06:45:22.000Z</time>
      </trkpt>
      <trkpt lat="48.71342" lon="1.69137">
        <ele>138.60000610352</ele>
        <time>2011-08-20T06:45:27.000Z</time>
      </trkpt>
      <trkpt lat="48.71345" lon="1.6913">
        <ele>138.80000305176</ele>
        <time>2011-08-20T06:45:31.000Z</time>
      </trkpt>
      <trkpt lat="48.71349" lon="1.69123">
        <ele>139</ele>
        <time>2011-08-20T06:45:36.000Z</time>
      </trkpt>
      <trkpt lat="48.71351" lon="1.69114">
        <ele>139.39999389648</ele>
        <time>2011-08-20T06:45:41.000Z</time>
      </trkpt>
      <trkpt lat="48.7135" lon="1.69105">
        <ele>140</ele>
        <time>2011-08-20T06:45:48.000Z</time>
      </trkpt>
      <trkpt lat="48.7135" lon="1.69105">
        <ele>140</ele>
        <time>2011-08-20T06:45:49.000Z</time>
      </trkpt>
      <trkpt lat="48.71358" lon="1.69075">
        <ele>140.80000305176</ele>
        <time>2011-08-20T06:46:28.000Z</time>
      </trkpt>
      <trkpt lat="48.71362" lon="1.69067">
        <ele>141</ele>
        <time>2011-08-20T06:46:31.000Z</time>
      </trkpt>
      <trkpt lat="48.71367" lon="1.69059">
        <ele>140.80000305176</ele>
        <time>2011-08-20T06:46:36.000Z</time>
      </trkpt>
      <trkpt lat="48.71369" lon="1.69058">
        <ele>140.60000610352</ele>
        <time>2011-08-20T06:46:37.000Z</time>
      </trkpt>
      <trkpt lat="48.71373" lon="1.69043">
        <ele>140.80000305176</ele>
        <time>2011-08-20T06:46:45.000Z</time>
      </trkpt>
      <trkpt lat="48.71379" lon="1.69031">
        <ele>140.60000610352</ele>
        <time>2011-08-20T06:46:53.000Z</time>
      </trkpt>
      <trkpt lat="48.71386" lon="1.69017">
        <ele>140.39999389648</ele>
        <time>2011-08-20T06:47:02.000Z</time>
      </trkpt>
      <trkpt lat="48.71392" lon="1.69005">
        <ele>140</ele>
        <time>2011-08-20T06:47:09.000Z</time>
      </trkpt>
      <trkpt lat="48.71397" lon="1.68991">
        <ele>139.80000305176</ele>
        <time>2011-08-20T06:47:16.000Z</time>
      </trkpt>
      <trkpt lat="48.71398" lon="1.68986">
        <ele>139.80000305176</ele>
        <time>2011-08-20T06:47:19.000Z</time>
      </trkpt>
      <trkpt lat="48.71406" lon="1.68973">
        <ele>139.39999389648</ele>
        <time>2011-08-20T06:47:28.000Z</time>
      </trkpt>
      <trkpt lat="48.71411" lon="1.68968">
        <ele>138.80000305176</ele>
        <time>2011-08-20T06:47:35.000Z</time>
      </trkpt>
      <trkpt lat="48.71418" lon="1.68951">
        <ele>138.39999389648</ele>
        <time>2011-08-20T06:47:46.000Z</time>
      </trkpt>
      <trkpt lat="48.7142" lon="1.68948">
        <ele>138.39999389648</ele>
        <time>2011-08-20T06:47:48.000Z</time>
      </trkpt>
      <trkpt lat="48.7142" lon="1.68945">
        <ele>138.60000610352</ele>
        <time>2011-08-20T06:47:52.000Z</time>
      </trkpt>
      <trkpt lat="48.71427" lon="1.68932">
        <ele>138.19999694824</ele>
        <time>2011-08-20T06:48:18.000Z</time>
      </trkpt>
      <trkpt lat="48.71429" lon="1.6892">
        <ele>138.39999389648</ele>
        <time>2011-08-20T06:48:25.000Z</time>
      </trkpt>
      <trkpt lat="48.71428" lon="1.68915">
        <ele>138.80000305176</ele>
        <time>2011-08-20T06:48:28.000Z</time>
      </trkpt>
      <trkpt lat="48.71422" lon="1.689">
        <ele>140</ele>
        <time>2011-08-20T06:48:36.000Z</time>
      </trkpt>
      <trkpt lat="48.71417" lon="1.68884">
        <ele>141</ele>
        <time>2011-08-20T06:48:43.000Z</time>
      </trkpt>
      <trkpt lat="48.71415" lon="1.68874">
        <ele>141.60000610352</ele>
        <time>2011-08-20T06:48:48.000Z</time>
      </trkpt>
      <trkpt lat="48.71414" lon="1.68863">
        <ele>142.19999694824</ele>
        <time>2011-08-20T06:48:56.000Z</time>
      </trkpt>
      <trkpt lat="48.7141" lon="1.68858">
        <ele>143</ele>
        <time>2011-08-20T06:49:01.000Z</time>
      </trkpt>
      <trkpt lat="48.71407" lon="1.68851">
        <ele>143.60000610352</ele>
        <time>2011-08-20T06:49:05.000Z</time>
      </trkpt>
      <trkpt lat="48.71403" lon="1.68842">
        <ele>144.39999389648</ele>
        <time>2011-08-20T06:49:12.000Z</time>
      </trkpt>
      <trkpt lat="48.71402" lon="1.68837">
        <ele>144.80000305176</ele>
        <time>2011-08-20T06:49:15.000Z</time>
      </trkpt>
      <trkpt lat="48.71399" lon="1.68827">
        <ele>145.60000610352</ele>
        <time>2011-08-20T06:49:22.000Z</time>
      </trkpt>
      <trkpt lat="48.71394" lon="1.68819">
        <ele>146.39999389648</ele>
        <time>2011-08-20T06:49:27.000Z</time>
      </trkpt>
      <trkpt lat="48.71389" lon="1.68806">
        <ele>147.39999389648</ele>
        <time>2011-08-20T06:49:33.000Z</time>
      </trkpt>
      <trkpt lat="48.71388" lon="1.68803">
        <ele>147.60000610352</ele>
        <time>2011-08-20T06:49:35.000Z</time>
      </trkpt>
      <trkpt lat="48.71384" lon="1.68789">
        <ele>148.60000610352</ele>
        <time>2011-08-20T06:49:42.000Z</time>
      </trkpt>
      <trkpt lat="48.71379" lon="1.68778">
        <ele>149.39999389648</ele>
        <time>2011-08-20T06:49:48.000Z</time>
      </trkpt>
      <trkpt lat="48.71375" lon="1.68768">
        <ele>150</ele>
        <time>2011-08-20T06:49:54.000Z</time>
      </trkpt>
      <trkpt lat="48.71372" lon="1.68756">
        <ele>150.60000610352</ele>
        <time>2011-08-20T06:50:01.000Z</time>
      </trkpt>
      <trkpt lat="48.71365" lon="1.68744">
        <ele>151.19999694824</ele>
        <time>2011-08-20T06:50:09.000Z</time>
      </trkpt>
      <trkpt lat="48.71361" lon="1.68735">
        <ele>151.60000610352</ele>
        <time>2011-08-20T06:50:15.000Z</time>
      </trkpt>
      <trkpt lat="48.71358" lon="1.68727">
        <ele>151.80000305176</ele>
        <time>2011-08-20T06:50:20.000Z</time>
      </trkpt>
      <trkpt lat="48.71355" lon="1.68713">
        <ele>152</ele>
        <time>2011-08-20T06:50:27.000Z</time>
      </trkpt>
      <trkpt lat="48.71353" lon="1.68706">
        <ele>152.19999694824</ele>
        <time>2011-08-20T06:50:30.000Z</time>
      </trkpt>
      <trkpt lat="48.71351" lon="1.68698">
        <ele>152.19999694824</ele>
        <time>2011-08-20T06:50:34.000Z</time>
      </trkpt>
      <trkpt lat="48.71347" lon="1.68686">
        <ele>152.60000610352</ele>
        <time>2011-08-20T06:50:41.000Z</time>
      </trkpt>
      <trkpt lat="48.71343" lon="1.68678">
        <ele>153</ele>
        <time>2011-08-20T06:50:46.000Z</time>
      </trkpt>
      <trkpt lat="48.71337" lon="1.68663">
        <ele>153.39999389648</ele>
        <time>2011-08-20T06:50:56.000Z</time>
      </trkpt>
      <trkpt lat="48.71333" lon="1.68651">
        <ele>153.60000610352</ele>
        <time>2011-08-20T06:51:03.000Z</time>
      </trkpt>
      <trkpt lat="48.71329" lon="1.6864">
        <ele>154</ele>
        <time>2011-08-20T06:51:09.000Z</time>
      </trkpt>
      <trkpt lat="48.71328" lon="1.68635">
        <ele>154</ele>
        <time>2011-08-20T06:51:12.000Z</time>
      </trkpt>
      <trkpt lat="48.71323" lon="1.68624">
        <ele>154.39999389648</ele>
        <time>2011-08-20T06:51:17.000Z</time>
      </trkpt>
      <trkpt lat="48.71321" lon="1.68605">
        <ele>154.19999694824</ele>
        <time>2011-08-20T06:51:25.000Z</time>
      </trkpt>
      <trkpt lat="48.71318" lon="1.68594">
        <ele>154.39999389648</ele>
        <time>2011-08-20T06:51:31.000Z</time>
      </trkpt>
      <trkpt lat="48.71316" lon="1.68585">
        <ele>154.39999389648</ele>
        <time>2011-08-20T06:51:35.000Z</time>
      </trkpt>
      <trkpt lat="48.71314" lon="1.68568">
        <ele>154</ele>
        <time>2011-08-20T06:51:44.000Z</time>
      </trkpt>
      <trkpt lat="48.71313" lon="1.68564">
        <ele>154</ele>
        <time>2011-08-20T06:51:46.000Z</time>
      </trkpt>
      <trkpt lat="48.71311" lon="1.6855">
        <ele>153.80000305176</ele>
        <time>2011-08-20T06:51:53.000Z</time>
      </trkpt>
      <trkpt lat="48.71311" lon="1.68548">
        <ele>153.80000305176</ele>
        <time>2011-08-20T06:51:54.000Z</time>
      </trkpt>
      <trkpt lat="48.71306" lon="1.68529">
        <ele>153.60000610352</ele>
        <time>2011-08-20T06:52:02.000Z</time>
      </trkpt>
      <trkpt lat="48.71304" lon="1.68515">
        <ele>153.39999389648</ele>
        <time>2011-08-20T06:52:09.000Z</time>
      </trkpt>
      <trkpt lat="48.71302" lon="1.68504">
        <ele>153.19999694824</ele>
        <time>2011-08-20T06:52:15.000Z</time>
      </trkpt>
      <trkpt lat="48.71301" lon="1.68499">
        <ele>153.19999694824</ele>
        <time>2011-08-20T06:52:17.000Z</time>
      </trkpt>
      <trkpt lat="48.71299" lon="1.68489">
        <ele>153</ele>
        <time>2011-08-20T06:52:22.000Z</time>
      </trkpt>
      <trkpt lat="48.71297" lon="1.68476">
        <ele>152.80000305176</ele>
        <time>2011-08-20T06:52:28.000Z</time>
      </trkpt>
      <trkpt lat="48.71291" lon="1.68462">
        <ele>152.80000305176</ele>
        <time>2011-08-20T06:52:36.000Z</time>
      </trkpt>
      <trkpt lat="48.71285" lon="1.68455">
        <ele>153.19999694824</ele>
        <time>2011-08-20T06:52:43.000Z</time>
      </trkpt>
      <trkpt lat="48.71275" lon="1.68448">
        <ele>154</ele>
        <time>2011-08-20T06:52:51.000Z</time>
      </trkpt>
      <trkpt lat="48.71269" lon="1.68445">
        <ele>154.60000610352</ele>
        <time>2011-08-20T06:52:57.000Z</time>
      </trkpt>
      <trkpt lat="48.71263" lon="1.6844">
        <ele>155</ele>
        <time>2011-08-20T06:53:03.000Z</time>
      </trkpt>
      <trkpt lat="48.71255" lon="1.68437">
        <ele>155.60000610352</ele>
        <time>2011-08-20T06:53:09.000Z</time>
      </trkpt>
      <trkpt lat="48.71247" lon="1.68433">
        <ele>156.39999389648</ele>
        <time>2011-08-20T06:53:16.000Z</time>
      </trkpt>
      <trkpt lat="48.71243" lon="1.68428">
        <ele>156.60000610352</ele>
        <time>2011-08-20T06:53:20.000Z</time>
      </trkpt>
      <trkpt lat="48.71238" lon="1.68418">
        <ele>156.60000610352</ele>
        <time>2011-08-20T06:53:26.000Z</time>
      </trkpt>
      <trkpt lat="48.71231" lon="1.68403">
        <ele>157</ele>
        <time>2011-08-20T06:53:34.000Z</time>
      </trkpt>
      <trkpt lat="48.71227" lon="1.68394">
        <ele>157.39999389648</ele>
        <time>2011-08-20T06:53:39.000Z</time>
      </trkpt>
      <trkpt lat="48.71225" lon="1.68383">
        <ele>157.60000610352</ele>
        <time>2011-08-20T06:53:45.000Z</time>
      </trkpt>
      <trkpt lat="48.71215" lon="1.68367">
        <ele>159</ele>
        <time>2011-08-20T06:53:53.000Z</time>
      </trkpt>
      <trkpt lat="48.71213" lon="1.68362">
        <ele>159.19999694824</ele>
        <time>2011-08-20T06:53:55.000Z</time>
      </trkpt>
      <trkpt lat="48.71211" lon="1.68356">
        <ele>159.39999389648</ele>
        <time>2011-08-20T06:53:58.000Z</time>
      </trkpt>
      <trkpt lat="48.71205" lon="1.68341">
        <ele>160.60000610352</ele>
        <time>2011-08-20T06:54:07.000Z</time>
      </trkpt>
      <trkpt lat="48.71203" lon="1.68336">
        <ele>160.80000305176</ele>
        <time>2011-08-20T06:54:09.000Z</time>
      </trkpt>
      <trkpt lat="48.71202" lon="1.68326">
        <ele>161.19999694824</ele>
        <time>2011-08-20T06:54:13.000Z</time>
      </trkpt>
      <trkpt lat="48.712" lon="1.68315">
        <ele>161.80000305176</ele>
        <time>2011-08-20T06:54:18.000Z</time>
      </trkpt>
      <trkpt lat="48.712" lon="1.68301">
        <ele>162</ele>
        <time>2011-08-20T06:54:24.000Z</time>
      </trkpt>
      <trkpt lat="48.71199" lon="1.68289">
        <ele>162.39999389648</ele>
        <time>2011-08-20T06:54:30.000Z</time>
      </trkpt>
      <trkpt lat="48.71198" lon="1.68279">
        <ele>162.80000305176</ele>
        <time>2011-08-20T06:54:35.000Z</time>
      </trkpt>
      <trkpt lat="48.71195" lon="1.68263">
        <ele>163.80000305176</ele>
        <time>2011-08-20T06:54:43.000Z</time>
      </trkpt>
      <trkpt lat="48.71193" lon="1.68251">
        <ele>164.60000610352</ele>
        <time>2011-08-20T06:54:49.000Z</time>
      </trkpt>
      <trkpt lat="48.71193" lon="1.68236">
        <ele>164.60000610352</ele>
        <time>2011-08-20T06:54:56.000Z</time>
      </trkpt>
      <trkpt lat="48.71191" lon="1.68224">
        <ele>165</ele>
        <time>2011-08-20T06:55:02.000Z</time>
      </trkpt>
      <trkpt lat="48.71193" lon="1.68211">
        <ele>164.39999389648</ele>
        <time>2011-08-20T06:55:08.000Z</time>
      </trkpt>
      <trkpt lat="48.71194" lon="1.68205">
        <ele>164.19999694824</ele>
        <time>2011-08-20T06:55:11.000Z</time>
      </trkpt>
      <trkpt lat="48.71192" lon="1.6819">
        <ele>164.80000305176</ele>
        <time>2011-08-20T06:55:18.000Z</time>
      </trkpt>
      <trkpt lat="48.71189" lon="1.68178">
        <ele>165.39999389648</ele>
        <time>2011-08-20T06:55:24.000Z</time>
      </trkpt>
      <trkpt lat="48.71188" lon="1.68163">
        <ele>165.60000610352</ele>
        <time>2011-08-20T06:55:31.000Z</time>
      </trkpt>
      <trkpt lat="48.71186" lon="1.68147">
        <ele>166.39999389648</ele>
        <time>2011-08-20T06:55:36.000Z</time>
      </trkpt>
      <trkpt lat="48.71182" lon="1.68135">
        <ele>167.39999389648</ele>
        <time>2011-08-20T06:55:42.000Z</time>
      </trkpt>
      <trkpt lat="48.71181" lon="1.68126">
        <ele>167.80000305176</ele>
        <time>2011-08-20T06:55:47.000Z</time>
      </trkpt>
      <trkpt lat="48.71177" lon="1.68124">
        <ele>168.39999389648</ele>
        <time>2011-08-20T06:55:49.000Z</time>
      </trkpt>
      <trkpt lat="48.71174" lon="1.6812">
        <ele>169.19999694824</ele>
        <time>2011-08-20T06:55:52.000Z</time>
      </trkpt>
      <trkpt lat="48.71169" lon="1.68117">
        <ele>170.19999694824</ele>
        <time>2011-08-20T06:55:56.000Z</time>
      </trkpt>
      <trkpt lat="48.71162" lon="1.68112">
        <ele>171</ele>
        <time>2011-08-20T06:56:02.000Z</time>
      </trkpt>
      <trkpt lat="48.71156" lon="1.68106">
        <ele>171.80000305176</ele>
        <time>2011-08-20T06:56:07.000Z</time>
      </trkpt>
      <trkpt lat="48.71149" lon="1.68096">
        <ele>172.60000610352</ele>
        <time>2011-08-20T06:56:15.000Z</time>
      </trkpt>
      <trkpt lat="48.71144" lon="1.6809">
        <ele>173.19999694824</ele>
        <time>2011-08-20T06:56:21.000Z</time>
      </trkpt>
      <trkpt lat="48.7114" lon="1.68088">
        <ele>173.80000305176</ele>
        <time>2011-08-20T06:56:25.000Z</time>
      </trkpt>
      <trkpt lat="48.7113" lon="1.68088">
        <ele>174.80000305176</ele>
        <time>2011-08-20T06:56:31.000Z</time>
      </trkpt>
      <trkpt lat="48.71123" lon="1.68082">
        <ele>175.60000610352</ele>
        <time>2011-08-20T06:56:38.000Z</time>
      </trkpt>
      <trkpt lat="48.71116" lon="1.68078">
        <ele>176</ele>
        <time>2011-08-20T06:56:44.000Z</time>
      </trkpt>
      <trkpt lat="48.71109" lon="1.68077">
        <ele>176.80000305176</ele>
        <time>2011-08-20T06:56:49.000Z</time>
      </trkpt>
      <trkpt lat="48.71107" lon="1.68077">
        <ele>177</ele>
        <time>2011-08-20T06:56:51.000Z</time>
      </trkpt>
      <trkpt lat="48.71099" lon="1.68074">
        <ele>177.80000305176</ele>
        <time>2011-08-20T06:56:59.000Z</time>
      </trkpt>
      <trkpt lat="48.7109" lon="1.68074">
        <ele>178.60000610352</ele>
        <time>2011-08-20T06:57:06.000Z</time>
      </trkpt>
      <trkpt lat="48.71089" lon="1.68074">
        <ele>178.80000305176</ele>
        <time>2011-08-20T06:57:07.000Z</time>
      </trkpt>
      <trkpt lat="48.7108" lon="1.68073">
        <ele>179.60000610352</ele>
        <time>2011-08-20T06:57:15.000Z</time>
      </trkpt>
      <trkpt lat="48.71068" lon="1.6807">
        <ele>179.80000305176</ele>
        <time>2011-08-20T06:57:23.000Z</time>
      </trkpt>
      <trkpt lat="48.71057" lon="1.68066">
        <ele>180</ele>
        <time>2011-08-20T06:57:31.000Z</time>
      </trkpt>
      <trkpt lat="48.71049" lon="1.68064">
        <ele>180.39999389648</ele>
        <time>2011-08-20T06:57:38.000Z</time>
      </trkpt>
      <trkpt lat="48.7104" lon="1.68063">
        <ele>180.60000610352</ele>
        <time>2011-08-20T06:57:45.000Z</time>
      </trkpt>
      <trkpt lat="48.71027" lon="1.68061">
        <ele>181</ele>
        <time>2011-08-20T06:57:54.000Z</time>
      </trkpt>
      <trkpt lat="48.71017" lon="1.68062">
        <ele>181.39999389648</ele>
        <time>2011-08-20T06:58:01.000Z</time>
      </trkpt>
      <trkpt lat="48.71015" lon="1.68062">
        <ele>181.60000610352</ele>
        <time>2011-08-20T06:58:03.000Z</time>
      </trkpt>
      <trkpt lat="48.71007" lon="1.6806">
        <ele>181.80000305176</ele>
        <time>2011-08-20T06:58:09.000Z</time>
      </trkpt>
      <trkpt lat="48.70998" lon="1.68056">
        <ele>182</ele>
        <time>2011-08-20T06:58:16.000Z</time>
      </trkpt>
      <trkpt lat="48.70992" lon="1.68047">
        <ele>182</ele>
        <time>2011-08-20T06:58:23.000Z</time>
      </trkpt>
      <trkpt lat="48.70987" lon="1.68033">
        <ele>181.80000305176</ele>
        <time>2011-08-20T06:58:30.000Z</time>
      </trkpt>
      <trkpt lat="48.70986" lon="1.6802">
        <ele>181.60000610352</ele>
        <time>2011-08-20T06:58:36.000Z</time>
      </trkpt>
      <trkpt lat="48.7099" lon="1.68008">
        <ele>181</ele>
        <time>2011-08-20T06:58:42.000Z</time>
      </trkpt>
      <trkpt lat="48.70986" lon="1.67996">
        <ele>180.80000305176</ele>
        <time>2011-08-20T06:58:48.000Z</time>
      </trkpt>
      <trkpt lat="48.70981" lon="1.67988">
        <ele>181</ele>
        <time>2011-08-20T06:58:54.000Z</time>
      </trkpt>
      <trkpt lat="48.70978" lon="1.67985">
        <ele>181.19999694824</ele>
        <time>2011-08-20T06:58:57.000Z</time>
      </trkpt>
      <trkpt lat="48.70967" lon="1.6798">
        <ele>182</ele>
        <time>2011-08-20T06:59:05.000Z</time>
      </trkpt>
      <trkpt lat="48.70957" lon="1.67975">
        <ele>182.60000610352</ele>
        <time>2011-08-20T06:59:12.000Z</time>
      </trkpt>
      <trkpt lat="48.70952" lon="1.67971">
        <ele>183</ele>
        <time>2011-08-20T06:59:16.000Z</time>
      </trkpt>
      <trkpt lat="48.70946" lon="1.67968">
        <ele>183.39999389648</ele>
        <time>2011-08-20T06:59:20.000Z</time>
      </trkpt>
      <trkpt lat="48.7094" lon="1.67963">
        <ele>183.80000305176</ele>
        <time>2011-08-20T06:59:26.000Z</time>
      </trkpt>
      <trkpt lat="48.7093" lon="1.67959">
        <ele>184.60000610352</ele>
        <time>2011-08-20T06:59:34.000Z</time>
      </trkpt>
      <trkpt lat="48.70923" lon="1.67956">
        <ele>185.19999694824</ele>
        <time>2011-08-20T06:59:39.000Z</time>
      </trkpt>
      <trkpt lat="48.70913" lon="1.67952">
        <ele>185.80000305176</ele>
        <time>2011-08-20T06:59:45.000Z</time>
      </trkpt>
      <trkpt lat="48.70905" lon="1.67947">
        <ele>186.19999694824</ele>
        <time>2011-08-20T06:59:52.000Z</time>
      </trkpt>
      <trkpt lat="48.70894" lon="1.67944">
        <ele>186.39999389648</ele>
        <time>2011-08-20T06:59:59.000Z</time>
      </trkpt>
      <trkpt lat="48.70885" lon="1.67939">
        <ele>186.60000610352</ele>
        <time>2011-08-20T07:00:05.000Z</time>
      </trkpt>
      <trkpt lat="48.70876" lon="1.67933">
        <ele>186.80000305176</ele>
        <time>2011-08-20T07:00:13.000Z</time>
      </trkpt>
      <trkpt lat="48.70866" lon="1.67927">
        <ele>187</ele>
        <time>2011-08-20T07:00:22.000Z</time>
      </trkpt>
      <trkpt lat="48.70854" lon="1.6792">
        <ele>187.19999694824</ele>
        <time>2011-08-20T07:00:28.000Z</time>
      </trkpt>
      <trkpt lat="48.70842" lon="1.67913">
        <ele>187.39999389648</ele>
        <time>2011-08-20T07:00:33.000Z</time>
      </trkpt>
      <trkpt lat="48.70829" lon="1.67908">
        <ele>187.80000305176</ele>
        <time>2011-08-20T07:00:37.000Z</time>
      </trkpt>
      <trkpt lat="48.70814" lon="1.679">
        <ele>188</ele>
        <time>2011-08-20T07:00:41.000Z</time>
      </trkpt>
      <trkpt lat="48.70796" lon="1.67889">
        <ele>188.19999694824</ele>
        <time>2011-08-20T07:00:47.000Z</time>
      </trkpt>
      <trkpt lat="48.7078" lon="1.6788">
        <ele>188.60000610352</ele>
        <time>2011-08-20T07:00:53.000Z</time>
      </trkpt>
      <trkpt lat="48.70763" lon="1.67872">
        <ele>189</ele>
        <time>2011-08-20T07:00:58.000Z</time>
      </trkpt>
      <trkpt lat="48.70747" lon="1.67862">
        <ele>189.19999694824</ele>
        <time>2011-08-20T07:01:03.000Z</time>
      </trkpt>
      <trkpt lat="48.70729" lon="1.67853">
        <ele>188.19999694824</ele>
        <time>2011-08-20T07:01:08.000Z</time>
      </trkpt>
      <trkpt lat="48.70708" lon="1.67842">
        <ele>187.39999389648</ele>
        <time>2011-08-20T07:01:14.000Z</time>
      </trkpt>
      <trkpt lat="48.70688" lon="1.6783">
        <ele>186.80000305176</ele>
        <time>2011-08-20T07:01:20.000Z</time>
      </trkpt>
      <trkpt lat="48.70673" lon="1.67818">
        <ele>186.60000610352</ele>
        <time>2011-08-20T07:01:25.000Z</time>
      </trkpt>
      <trkpt lat="48.70658" lon="1.67809">
        <ele>186.39999389648</ele>
        <time>2011-08-20T07:01:30.000Z</time>
      </trkpt>
      <trkpt lat="48.70639" lon="1.678">
        <ele>186.19999694824</ele>
        <time>2011-08-20T07:01:35.000Z</time>
      </trkpt>
      <trkpt lat="48.70619" lon="1.67788">
        <ele>186.19999694824</ele>
        <time>2011-08-20T07:01:41.000Z</time>
      </trkpt>
      <trkpt lat="48.70606" lon="1.67781">
        <ele>186.19999694824</ele>
        <time>2011-08-20T07:01:45.000Z</time>
      </trkpt>
      <trkpt lat="48.70581" lon="1.67767">
        <ele>186.60000610352</ele>
        <time>2011-08-20T07:01:52.000Z</time>
      </trkpt>
      <trkpt lat="48.70564" lon="1.67755">
        <ele>186.39999389648</ele>
        <time>2011-08-20T07:01:57.000Z</time>
      </trkpt>
      <trkpt lat="48.70546" lon="1.67747">
        <ele>185.80000305176</ele>
        <time>2011-08-20T07:02:02.000Z</time>
      </trkpt>
      <trkpt lat="48.7053" lon="1.67736">
        <ele>185.39999389648</ele>
        <time>2011-08-20T07:02:07.000Z</time>
      </trkpt>
      <trkpt lat="48.70508" lon="1.67725">
        <ele>185</ele>
        <time>2011-08-20T07:02:13.000Z</time>
      </trkpt>
      <trkpt lat="48.70475" lon="1.67707">
        <ele>185.60000610352</ele>
        <time>2011-08-20T07:02:22.000Z</time>
      </trkpt>
      <trkpt lat="48.70454" lon="1.67695">
        <ele>185.80000305176</ele>
        <time>2011-08-20T07:02:28.000Z</time>
      </trkpt>
      <trkpt lat="48.70436" lon="1.67685">
        <ele>185.80000305176</ele>
        <time>2011-08-20T07:02:33.000Z</time>
      </trkpt>
      <trkpt lat="48.70415" lon="1.67672">
        <ele>185.80000305176</ele>
        <time>2011-08-20T07:02:39.000Z</time>
      </trkpt>
      <trkpt lat="48.70397" lon="1.67661">
        <ele>186</ele>
        <time>2011-08-20T07:02:44.000Z</time>
      </trkpt>
      <trkpt lat="48.70378" lon="1.67652">
        <ele>186</ele>
        <time>2011-08-20T07:02:49.000Z</time>
      </trkpt>
      <trkpt lat="48.70362" lon="1.67643">
        <ele>185.80000305176</ele>
        <time>2011-08-20T07:02:54.000Z</time>
      </trkpt>
      <trkpt lat="48.70344" lon="1.67635">
        <ele>185.60000610352</ele>
        <time>2011-08-20T07:02:59.000Z</time>
      </trkpt>
      <trkpt lat="48.70332" lon="1.67628">
        <ele>185.39999389648</ele>
        <time>2011-08-20T07:03:03.000Z</time>
      </trkpt>
      <trkpt lat="48.70315" lon="1.67619">
        <ele>184.39999389648</ele>
        <time>2011-08-20T07:03:08.000Z</time>
      </trkpt>
      <trkpt lat="48.70295" lon="1.67608">
        <ele>182.80000305176</ele>
        <time>2011-08-20T07:03:14.000Z</time>
      </trkpt>
      <trkpt lat="48.70282" lon="1.67601">
        <ele>181.80000305176</ele>
        <time>2011-08-20T07:03:18.000Z</time>
      </trkpt>
      <trkpt lat="48.70263" lon="1.67589">
        <ele>180</ele>
        <time>2011-08-20T07:03:23.000Z</time>
      </trkpt>
      <trkpt lat="48.70249" lon="1.67582">
        <ele>178.80000305176</ele>
        <time>2011-08-20T07:03:27.000Z</time>
      </trkpt>
      <trkpt lat="48.70226" lon="1.67571">
        <ele>177</ele>
        <time>2011-08-20T07:03:33.000Z</time>
      </trkpt>
      <trkpt lat="48.70205" lon="1.67561">
        <ele>175</ele>
        <time>2011-08-20T07:03:39.000Z</time>
      </trkpt>
      <trkpt lat="48.70188" lon="1.67555">
        <ele>173.60000610352</ele>
        <time>2011-08-20T07:03:44.000Z</time>
      </trkpt>
      <trkpt lat="48.70171" lon="1.67545">
        <ele>171.80000305176</ele>
        <time>2011-08-20T07:03:50.000Z</time>
      </trkpt>
      <trkpt lat="48.70155" lon="1.67536">
        <ele>170.19999694824</ele>
        <time>2011-08-20T07:03:55.000Z</time>
      </trkpt>
      <trkpt lat="48.70148" lon="1.6753">
        <ele>169.39999389648</ele>
        <time>2011-08-20T07:03:59.000Z</time>
      </trkpt>
      <trkpt lat="48.70137" lon="1.67524">
        <ele>168.39999389648</ele>
        <time>2011-08-20T07:04:08.000Z</time>
      </trkpt>
      <trkpt lat="48.70129" lon="1.67518">
        <ele>167.80000305176</ele>
        <time>2011-08-20T07:04:14.000Z</time>
      </trkpt>
      <trkpt lat="48.70127" lon="1.67517">
        <ele>167.60000610352</ele>
        <time>2011-08-20T07:04:15.000Z</time>
      </trkpt>
      <trkpt lat="48.70119" lon="1.67515">
        <ele>167.19999694824</ele>
        <time>2011-08-20T07:04:22.000Z</time>
      </trkpt>
      <trkpt lat="48.70117" lon="1.67514">
        <ele>167</ele>
        <time>2011-08-20T07:04:24.000Z</time>
      </trkpt>
      <trkpt lat="48.70108" lon="1.67514">
        <ele>166.39999389648</ele>
        <time>2011-08-20T07:04:31.000Z</time>
      </trkpt>
      <trkpt lat="48.70101" lon="1.67509">
        <ele>166</ele>
        <time>2011-08-20T07:04:37.000Z</time>
      </trkpt>
      <trkpt lat="48.70096" lon="1.67507">
        <ele>165.60000610352</ele>
        <time>2011-08-20T07:04:41.000Z</time>
      </trkpt>
      <trkpt lat="48.70094" lon="1.67506">
        <ele>165.60000610352</ele>
        <time>2011-08-20T07:04:42.000Z</time>
      </trkpt>
      <trkpt lat="48.70086" lon="1.67502">
        <ele>165</ele>
        <time>2011-08-20T07:04:47.000Z</time>
      </trkpt>
      <trkpt lat="48.70073" lon="1.67493">
        <ele>164</ele>
        <time>2011-08-20T07:04:52.000Z</time>
      </trkpt>
      <trkpt lat="48.7006" lon="1.67479">
        <ele>162.80000305176</ele>
        <time>2011-08-20T07:04:56.000Z</time>
      </trkpt>
      <trkpt lat="48.7004" lon="1.67469">
        <ele>161.39999389648</ele>
        <time>2011-08-20T07:05:02.000Z</time>
      </trkpt>
      <trkpt lat="48.70033" lon="1.67465">
        <ele>160.80000305176</ele>
        <time>2011-08-20T07:05:04.000Z</time>
      </trkpt>
      <trkpt lat="48.70016" lon="1.6746">
        <ele>159.80000305176</ele>
        <time>2011-08-20T07:05:09.000Z</time>
      </trkpt>
      <trkpt lat="48.69995" lon="1.67446">
        <ele>158.19999694824</ele>
        <time>2011-08-20T07:05:14.000Z</time>
      </trkpt>
      <trkpt lat="48.69974" lon="1.67433">
        <ele>156.19999694824</ele>
        <time>2011-08-20T07:05:19.000Z</time>
      </trkpt>
      <trkpt lat="48.69953" lon="1.67421">
        <ele>154.60000610352</ele>
        <time>2011-08-20T07:05:24.000Z</time>
      </trkpt>
      <trkpt lat="48.69932" lon="1.67411">
        <ele>153.19999694824</ele>
        <time>2011-08-20T07:05:31.000Z</time>
      </trkpt>
      <trkpt lat="48.69922" lon="1.67407">
        <ele>152.80000305176</ele>
        <time>2011-08-20T07:05:34.000Z</time>
      </trkpt>
      <trkpt lat="48.69902" lon="1.67393">
        <ele>152.19999694824</ele>
        <time>2011-08-20T07:05:40.000Z</time>
      </trkpt>
      <trkpt lat="48.69883" lon="1.67386">
        <ele>151.39999389648</ele>
        <time>2011-08-20T07:05:45.000Z</time>
      </trkpt>
      <trkpt lat="48.69875" lon="1.67383">
        <ele>151.19999694824</ele>
        <time>2011-08-20T07:05:47.000Z</time>
      </trkpt>
      <trkpt lat="48.69847" lon="1.67369">
        <ele>150.39999389648</ele>
        <time>2011-08-20T07:05:54.000Z</time>
      </trkpt>
      <trkpt lat="48.69839" lon="1.67365">
        <ele>150.19999694824</ele>
        <time>2011-08-20T07:05:56.000Z</time>
      </trkpt>
      <trkpt lat="48.69823" lon="1.67353">
        <ele>150.80000305176</ele>
        <time>2011-08-20T07:06:01.000Z</time>
      </trkpt>
      <trkpt lat="48.69805" lon="1.67346">
        <ele>151.60000610352</ele>
        <time>2011-08-20T07:06:06.000Z</time>
      </trkpt>
      <trkpt lat="48.69782" lon="1.67339">
        <ele>152.19999694824</ele>
        <time>2011-08-20T07:06:12.000Z</time>
      </trkpt>
      <trkpt lat="48.69773" lon="1.67337">
        <ele>152.39999389648</ele>
        <time>2011-08-20T07:06:14.000Z</time>
      </trkpt>
      <trkpt lat="48.69759" lon="1.67331">
        <ele>152.80000305176</ele>
        <time>2011-08-20T07:06:17.000Z</time>
      </trkpt>
      <trkpt lat="48.69745" lon="1.6732">
        <ele>153</ele>
        <time>2011-08-20T07:06:21.000Z</time>
      </trkpt>
      <trkpt lat="48.69725" lon="1.67306">
        <ele>152.60000610352</ele>
        <time>2011-08-20T07:06:27.000Z</time>
      </trkpt>
      <trkpt lat="48.69718" lon="1.67302">
        <ele>152.39999389648</ele>
        <time>2011-08-20T07:06:29.000Z</time>
      </trkpt>
      <trkpt lat="48.697" lon="1.67292">
        <ele>151.80000305176</ele>
        <time>2011-08-20T07:06:34.000Z</time>
      </trkpt>
      <trkpt lat="48.69684" lon="1.67283">
        <ele>151.39999389648</ele>
        <time>2011-08-20T07:06:39.000Z</time>
      </trkpt>
      <trkpt lat="48.69667" lon="1.67273">
        <ele>151</ele>
        <time>2011-08-20T07:06:44.000Z</time>
      </trkpt>
      <trkpt lat="48.69648" lon="1.67265">
        <ele>150.19999694824</ele>
        <time>2011-08-20T07:06:49.000Z</time>
      </trkpt>
      <trkpt lat="48.69633" lon="1.67257">
        <ele>149.60000610352</ele>
        <time>2011-08-20T07:06:53.000Z</time>
      </trkpt>
      <trkpt lat="48.69618" lon="1.67253">
        <ele>149.19999694824</ele>
        <time>2011-08-20T07:06:57.000Z</time>
      </trkpt>
      <trkpt lat="48.69603" lon="1.67249">
        <ele>148.60000610352</ele>
        <time>2011-08-20T07:07:01.000Z</time>
      </trkpt>
      <trkpt lat="48.6959" lon="1.67245">
        <ele>148.19999694824</ele>
        <time>2011-08-20T07:07:05.000Z</time>
      </trkpt>
      <trkpt lat="48.69571" lon="1.67236">
        <ele>147.80000305176</ele>
        <time>2011-08-20T07:07:10.000Z</time>
      </trkpt>
      <trkpt lat="48.69545" lon="1.67228">
        <ele>147.39999389648</ele>
        <time>2011-08-20T07:07:17.000Z</time>
      </trkpt>
      <trkpt lat="48.69535" lon="1.67225">
        <ele>147.39999389648</ele>
        <time>2011-08-20T07:07:20.000Z</time>
      </trkpt>
      <trkpt lat="48.69532" lon="1.67235">
        <ele>147.19999694824</ele>
        <time>2011-08-20T07:07:23.000Z</time>
      </trkpt>
      <trkpt lat="48.69536" lon="1.67244">
        <ele>147.39999389648</ele>
        <time>2011-08-20T07:07:25.000Z</time>
      </trkpt>
      <trkpt lat="48.69548" lon="1.67273">
        <ele>147.39999389648</ele>
        <time>2011-08-20T07:07:31.000Z</time>
      </trkpt>
      <trkpt lat="48.69557" lon="1.67291">
        <ele>147.60000610352</ele>
        <time>2011-08-20T07:07:35.000Z</time>
      </trkpt>
      <trkpt lat="48.69566" lon="1.67314">
        <ele>147.60000610352</ele>
        <time>2011-08-20T07:07:40.000Z</time>
      </trkpt>
      <trkpt lat="48.6957" lon="1.67338">
        <ele>147.60000610352</ele>
        <time>2011-08-20T07:07:45.000Z</time>
      </trkpt>
      <trkpt lat="48.69578" lon="1.67363">
        <ele>147.39999389648</ele>
        <time>2011-08-20T07:07:51.000Z</time>
      </trkpt>
      <trkpt lat="48.69584" lon="1.67378">
        <ele>147.39999389648</ele>
        <time>2011-08-20T07:07:54.000Z</time>
      </trkpt>
      <trkpt lat="48.69605" lon="1.6741">
        <ele>147.19999694824</ele>
        <time>2011-08-20T07:08:01.000Z</time>
      </trkpt>
      <trkpt lat="48.69615" lon="1.67429">
        <ele>146.80000305176</ele>
        <time>2011-08-20T07:08:05.000Z</time>
      </trkpt>
      <trkpt lat="48.69635" lon="1.67452">
        <ele>146.19999694824</ele>
        <time>2011-08-20T07:08:12.000Z</time>
      </trkpt>
      <trkpt lat="48.6965" lon="1.67469">
        <ele>145.80000305176</ele>
        <time>2011-08-20T07:08:17.000Z</time>
      </trkpt>
      <trkpt lat="48.69653" lon="1.67478">
        <ele>145.60000610352</ele>
        <time>2011-08-20T07:08:19.000Z</time>
      </trkpt>
      <trkpt lat="48.69666" lon="1.67502">
        <ele>144.80000305176</ele>
        <time>2011-08-20T07:08:24.000Z</time>
      </trkpt>
      <trkpt lat="48.69674" lon="1.67523">
        <ele>145.19999694824</ele>
        <time>2011-08-20T07:08:28.000Z</time>
      </trkpt>
      <trkpt lat="48.69679" lon="1.67539">
        <ele>145.39999389648</ele>
        <time>2011-08-20T07:08:31.000Z</time>
      </trkpt>
      <trkpt lat="48.69685" lon="1.67563">
        <ele>145.60000610352</ele>
        <time>2011-08-20T07:08:35.000Z</time>
      </trkpt>
      <trkpt lat="48.69691" lon="1.67603">
        <ele>146</ele>
        <time>2011-08-20T07:08:42.000Z</time>
      </trkpt>
      <trkpt lat="48.69693" lon="1.67615">
        <ele>146</ele>
        <time>2011-08-20T07:08:44.000Z</time>
      </trkpt>
      <trkpt lat="48.69701" lon="1.67662">
        <ele>146</ele>
        <time>2011-08-20T07:08:52.000Z</time>
      </trkpt>
      <trkpt lat="48.69708" lon="1.67712">
        <ele>146.60000610352</ele>
        <time>2011-08-20T07:09:01.000Z</time>
      </trkpt>
      <trkpt lat="48.69711" lon="1.67747">
        <ele>147</ele>
        <time>2011-08-20T07:09:07.000Z</time>
      </trkpt>
      <trkpt lat="48.69719" lon="1.67795">
        <ele>147</ele>
        <time>2011-08-20T07:09:15.000Z</time>
      </trkpt>
      <trkpt lat="48.6972" lon="1.67819">
        <ele>147</ele>
        <time>2011-08-20T07:09:19.000Z</time>
      </trkpt>
      <trkpt lat="48.6973" lon="1.67866">
        <ele>147.19999694824</ele>
        <time>2011-08-20T07:09:27.000Z</time>
      </trkpt>
      <trkpt lat="48.69733" lon="1.67883">
        <ele>147.19999694824</ele>
        <time>2011-08-20T07:09:30.000Z</time>
      </trkpt>
      <trkpt lat="48.69738" lon="1.67924">
        <ele>147.39999389648</ele>
        <time>2011-08-20T07:09:37.000Z</time>
      </trkpt>
      <trkpt lat="48.69743" lon="1.67965">
        <ele>147.60000610352</ele>
        <time>2011-08-20T07:09:44.000Z</time>
      </trkpt>
      <trkpt lat="48.69747" lon="1.68006">
        <ele>147.60000610352</ele>
        <time>2011-08-20T07:09:51.000Z</time>
      </trkpt>
      <trkpt lat="48.6975" lon="1.6804">
        <ele>147</ele>
        <time>2011-08-20T07:09:57.000Z</time>
      </trkpt>
      <trkpt lat="48.69753" lon="1.68069">
        <ele>146.39999389648</ele>
        <time>2011-08-20T07:10:02.000Z</time>
      </trkpt>
      <trkpt lat="48.69754" lon="1.68093">
        <ele>146.19999694824</ele>
        <time>2011-08-20T07:10:06.000Z</time>
      </trkpt>
      <trkpt lat="48.69756" lon="1.68106">
        <ele>146.19999694824</ele>
        <time>2011-08-20T07:10:08.000Z</time>
      </trkpt>
      <trkpt lat="48.69758" lon="1.68119">
        <ele>146.39999389648</ele>
        <time>2011-08-20T07:10:10.000Z</time>
      </trkpt>
      <trkpt lat="48.69754" lon="1.68156">
        <ele>146.19999694824</ele>
        <time>2011-08-20T07:10:16.000Z</time>
      </trkpt>
      <trkpt lat="48.69754" lon="1.68162">
        <ele>146.19999694824</ele>
        <time>2011-08-20T07:10:17.000Z</time>
      </trkpt>
      <trkpt lat="48.69753" lon="1.68217">
        <ele>147.19999694824</ele>
        <time>2011-08-20T07:10:26.000Z</time>
      </trkpt>
      <trkpt lat="48.69751" lon="1.68273">
        <ele>147.60000610352</ele>
        <time>2011-08-20T07:10:35.000Z</time>
      </trkpt>
      <trkpt lat="48.69751" lon="1.6828">
        <ele>147.60000610352</ele>
        <time>2011-08-20T07:10:36.000Z</time>
      </trkpt>
      <trkpt lat="48.69751" lon="1.68322">
        <ele>147.19999694824</ele>
        <time>2011-08-20T07:10:43.000Z</time>
      </trkpt>
      <trkpt lat="48.69751" lon="1.68363">
        <ele>147.80000305176</ele>
        <time>2011-08-20T07:10:50.000Z</time>
      </trkpt>
      <trkpt lat="48.6975" lon="1.68391">
        <ele>148.19999694824</ele>
        <time>2011-08-20T07:10:55.000Z</time>
      </trkpt>
      <trkpt lat="48.69752" lon="1.68419">
        <ele>149</ele>
        <time>2011-08-20T07:11:00.000Z</time>
      </trkpt>
      <trkpt lat="48.69748" lon="1.68455">
        <ele>149.39999389648</ele>
        <time>2011-08-20T07:11:06.000Z</time>
      </trkpt>
      <trkpt lat="48.69748" lon="1.68467">
        <ele>149.39999389648</ele>
        <time>2011-08-20T07:11:08.000Z</time>
      </trkpt>
      <trkpt lat="48.69745" lon="1.68506">
        <ele>150</ele>
        <time>2011-08-20T07:11:15.000Z</time>
      </trkpt>
      <trkpt lat="48.69741" lon="1.68534">
        <ele>150</ele>
        <time>2011-08-20T07:11:20.000Z</time>
      </trkpt>
      <trkpt lat="48.6974" lon="1.68538">
        <ele>150</ele>
        <time>2011-08-20T07:11:21.000Z</time>
      </trkpt>
      <trkpt lat="48.69742" lon="1.68559">
        <ele>150</ele>
        <time>2011-08-20T07:11:26.000Z</time>
      </trkpt>
      <trkpt lat="48.69741" lon="1.68595">
        <ele>149.80000305176</ele>
        <time>2011-08-20T07:11:33.000Z</time>
      </trkpt>
      <trkpt lat="48.69741" lon="1.68634">
        <ele>148.80000305176</ele>
        <time>2011-08-20T07:11:40.000Z</time>
      </trkpt>
      <trkpt lat="48.69742" lon="1.68668">
        <ele>148.19999694824</ele>
        <time>2011-08-20T07:11:46.000Z</time>
      </trkpt>
      <trkpt lat="48.69743" lon="1.68697">
        <ele>148.80000305176</ele>
        <time>2011-08-20T07:11:51.000Z</time>
      </trkpt>
      <trkpt lat="48.69742" lon="1.68732">
        <ele>149.80000305176</ele>
        <time>2011-08-20T07:11:57.000Z</time>
      </trkpt>
      <trkpt lat="48.69742" lon="1.68772">
        <ele>150.19999694824</ele>
        <time>2011-08-20T07:12:04.000Z</time>
      </trkpt>
      <trkpt lat="48.69743" lon="1.688">
        <ele>150.19999694824</ele>
        <time>2011-08-20T07:12:09.000Z</time>
      </trkpt>
      <trkpt lat="48.69746" lon="1.68846">
        <ele>150.19999694824</ele>
        <time>2011-08-20T07:12:17.000Z</time>
      </trkpt>
      <trkpt lat="48.6975" lon="1.68873">
        <ele>150.39999389648</ele>
        <time>2011-08-20T07:12:22.000Z</time>
      </trkpt>
      <trkpt lat="48.69752" lon="1.68897">
        <ele>150.60000610352</ele>
        <time>2011-08-20T07:12:27.000Z</time>
      </trkpt>
      <trkpt lat="48.69754" lon="1.68922">
        <ele>150.80000305176</ele>
        <time>2011-08-20T07:12:31.000Z</time>
      </trkpt>
      <trkpt lat="48.69758" lon="1.68954">
        <ele>151.19999694824</ele>
        <time>2011-08-20T07:12:36.000Z</time>
      </trkpt>
      <trkpt lat="48.69759" lon="1.68972">
        <ele>151.39999389648</ele>
        <time>2011-08-20T07:12:39.000Z</time>
      </trkpt>
      <trkpt lat="48.69759" lon="1.69001">
        <ele>151.80000305176</ele>
        <time>2011-08-20T07:12:44.000Z</time>
      </trkpt>
      <trkpt lat="48.6976" lon="1.69024">
        <ele>152.60000610352</ele>
        <time>2011-08-20T07:12:48.000Z</time>
      </trkpt>
      <trkpt lat="48.69761" lon="1.69036">
        <ele>152.80000305176</ele>
        <time>2011-08-20T07:12:50.000Z</time>
      </trkpt>
      <trkpt lat="48.69763" lon="1.69078">
        <ele>154.19999694824</ele>
        <time>2011-08-20T07:12:57.000Z</time>
      </trkpt>
      <trkpt lat="48.69763" lon="1.69111">
        <ele>154.80000305176</ele>
        <time>2011-08-20T07:13:03.000Z</time>
      </trkpt>
      <trkpt lat="48.69766" lon="1.69136">
        <ele>155.19999694824</ele>
        <time>2011-08-20T07:13:07.000Z</time>
      </trkpt>
      <trkpt lat="48.69768" lon="1.69143">
        <ele>155.19999694824</ele>
        <time>2011-08-20T07:13:08.000Z</time>
      </trkpt>
      <trkpt lat="48.69773" lon="1.69174">
        <ele>155.60000610352</ele>
        <time>2011-08-20T07:13:13.000Z</time>
      </trkpt>
      <trkpt lat="48.69774" lon="1.69191">
        <ele>155.80000305176</ele>
        <time>2011-08-20T07:13:16.000Z</time>
      </trkpt>
      <trkpt lat="48.69779" lon="1.69223">
        <ele>156.19999694824</ele>
        <time>2011-08-20T07:13:22.000Z</time>
      </trkpt>
      <trkpt lat="48.69784" lon="1.69257">
        <ele>156.80000305176</ele>
        <time>2011-08-20T07:13:29.000Z</time>
      </trkpt>
      <trkpt lat="48.69788" lon="1.69284">
        <ele>156.80000305176</ele>
        <time>2011-08-20T07:13:34.000Z</time>
      </trkpt>
      <trkpt lat="48.6979" lon="1.69287">
        <ele>156.80000305176</ele>
        <time>2011-08-20T07:13:35.000Z</time>
      </trkpt>
      <trkpt lat="48.69799" lon="1.69309">
        <ele>157.19999694824</ele>
        <time>2011-08-20T07:13:41.000Z</time>
      </trkpt>
      <trkpt lat="48.69803" lon="1.69317">
        <ele>157.39999389648</ele>
        <time>2011-08-20T07:13:43.000Z</time>
      </trkpt>
      <trkpt lat="48.69812" lon="1.69344">
        <ele>158.19999694824</ele>
        <time>2011-08-20T07:13:49.000Z</time>
      </trkpt>
      <trkpt lat="48.69813" lon="1.69368">
        <ele>158.80000305176</ele>
        <time>2011-08-20T07:13:53.000Z</time>
      </trkpt>
      <trkpt lat="48.69818" lon="1.69396">
        <ele>160</ele>
        <time>2011-08-20T07:13:58.000Z</time>
      </trkpt>
      <trkpt lat="48.69824" lon="1.69425">
        <ele>161.19999694824</ele>
        <time>2011-08-20T07:14:03.000Z</time>
      </trkpt>
      <trkpt lat="48.69832" lon="1.6945">
        <ele>162.60000610352</ele>
        <time>2011-08-20T07:14:08.000Z</time>
      </trkpt>
      <trkpt lat="48.69827" lon="1.69468">
        <ele>162.39999389648</ele>
        <time>2011-08-20T07:14:12.000Z</time>
      </trkpt>
      <trkpt lat="48.69832" lon="1.69489">
        <ele>163.39999389648</ele>
        <time>2011-08-20T07:14:16.000Z</time>
      </trkpt>
      <trkpt lat="48.69836" lon="1.69508">
        <ele>163.80000305176</ele>
        <time>2011-08-20T07:14:20.000Z</time>
      </trkpt>
      <trkpt lat="48.69844" lon="1.69537">
        <ele>163.19999694824</ele>
        <time>2011-08-20T07:14:25.000Z</time>
      </trkpt>
      <trkpt lat="48.69851" lon="1.69559">
        <ele>163</ele>
        <time>2011-08-20T07:14:29.000Z</time>
      </trkpt>
      <trkpt lat="48.69864" lon="1.69594">
        <ele>162.60000610352</ele>
        <time>2011-08-20T07:14:35.000Z</time>
      </trkpt>
      <trkpt lat="48.69869" lon="1.69612">
        <ele>162.60000610352</ele>
        <time>2011-08-20T07:14:38.000Z</time>
      </trkpt>
      <trkpt lat="48.69875" lon="1.69637">
        <ele>162.60000610352</ele>
        <time>2011-08-20T07:14:43.000Z</time>
      </trkpt>
      <trkpt lat="48.69879" lon="1.69658">
        <ele>162.60000610352</ele>
        <time>2011-08-20T07:14:47.000Z</time>
      </trkpt>
      <trkpt lat="48.69888" lon="1.69686">
        <ele>163.80000305176</ele>
        <time>2011-08-20T07:14:53.000Z</time>
      </trkpt>
      <trkpt lat="48.69895" lon="1.6971">
        <ele>165.19999694824</ele>
        <time>2011-08-20T07:14:58.000Z</time>
      </trkpt>
      <trkpt lat="48.69901" lon="1.69736">
        <ele>166.60000610352</ele>
        <time>2011-08-20T07:15:03.000Z</time>
      </trkpt>
      <trkpt lat="48.69908" lon="1.69755">
        <ele>167.80000305176</ele>
        <time>2011-08-20T07:15:07.000Z</time>
      </trkpt>
      <trkpt lat="48.69916" lon="1.69778">
        <ele>169.60000610352</ele>
        <time>2011-08-20T07:15:12.000Z</time>
      </trkpt>
      <trkpt lat="48.69925" lon="1.69804">
        <ele>171.39999389648</ele>
        <time>2011-08-20T07:15:18.000Z</time>
      </trkpt>
      <trkpt lat="48.69937" lon="1.6983">
        <ele>172.80000305176</ele>
        <time>2011-08-20T07:15:23.000Z</time>
      </trkpt>
      <trkpt lat="48.69943" lon="1.69854">
        <ele>173.60000610352</ele>
        <time>2011-08-20T07:15:28.000Z</time>
      </trkpt>
      <trkpt lat="48.69951" lon="1.69872">
        <ele>174.19999694824</ele>
        <time>2011-08-20T07:15:32.000Z</time>
      </trkpt>
      <trkpt lat="48.6996" lon="1.69894">
        <ele>174.80000305176</ele>
        <time>2011-08-20T07:15:37.000Z</time>
      </trkpt>
      <trkpt lat="48.69972" lon="1.69913">
        <ele>175.19999694824</ele>
        <time>2011-08-20T07:15:42.000Z</time>
      </trkpt>
      <trkpt lat="48.69987" lon="1.69936">
        <ele>175.60000610352</ele>
        <time>2011-08-20T07:15:48.000Z</time>
      </trkpt>
      <trkpt lat="48.70006" lon="1.6996">
        <ele>176.19999694824</ele>
        <time>2011-08-20T07:15:54.000Z</time>
      </trkpt>
      <trkpt lat="48.70016" lon="1.69976">
        <ele>177</ele>
        <time>2011-08-20T07:15:58.000Z</time>
      </trkpt>
      <trkpt lat="48.70028" lon="1.69994">
        <ele>178</ele>
        <time>2011-08-20T07:16:03.000Z</time>
      </trkpt>
      <trkpt lat="48.70038" lon="1.70009">
        <ele>178.80000305176</ele>
        <time>2011-08-20T07:16:08.000Z</time>
      </trkpt>
      <trkpt lat="48.70049" lon="1.70024">
        <ele>179.39999389648</ele>
        <time>2011-08-20T07:16:12.000Z</time>
      </trkpt>
      <trkpt lat="48.70063" lon="1.70044">
        <ele>180</ele>
        <time>2011-08-20T07:16:17.000Z</time>
      </trkpt>
      <trkpt lat="48.70079" lon="1.70067">
        <ele>180.80000305176</ele>
        <time>2011-08-20T07:16:23.000Z</time>
      </trkpt>
      <trkpt lat="48.70092" lon="1.70088">
        <ele>181</ele>
        <time>2011-08-20T07:16:28.000Z</time>
      </trkpt>
      <trkpt lat="48.70101" lon="1.70109">
        <ele>180.39999389648</ele>
        <time>2011-08-20T07:16:33.000Z</time>
      </trkpt>
      <trkpt lat="48.70115" lon="1.70131">
        <ele>179.80000305176</ele>
        <time>2011-08-20T07:16:39.000Z</time>
      </trkpt>
      <trkpt lat="48.70127" lon="1.70151">
        <ele>179.19999694824</ele>
        <time>2011-08-20T07:16:44.000Z</time>
      </trkpt>
      <trkpt lat="48.70139" lon="1.7018">
        <ele>178.19999694824</ele>
        <time>2011-08-20T07:16:50.000Z</time>
      </trkpt>
      <trkpt lat="48.70147" lon="1.70204">
        <ele>177.80000305176</ele>
        <time>2011-08-20T07:16:55.000Z</time>
      </trkpt>
      <trkpt lat="48.70151" lon="1.70227">
        <ele>177.19999694824</ele>
        <time>2011-08-20T07:17:00.000Z</time>
      </trkpt>
      <trkpt lat="48.70159" lon="1.70247">
        <ele>176.80000305176</ele>
        <time>2011-08-20T07:17:04.000Z</time>
      </trkpt>
      <trkpt lat="48.70168" lon="1.70271">
        <ele>177.19999694824</ele>
        <time>2011-08-20T07:17:09.000Z</time>
      </trkpt>
      <trkpt lat="48.70176" lon="1.70297">
        <ele>178.19999694824</ele>
        <time>2011-08-20T07:17:14.000Z</time>
      </trkpt>
      <trkpt lat="48.70185" lon="1.70322">
        <ele>178.80000305176</ele>
        <time>2011-08-20T07:17:19.000Z</time>
      </trkpt>
      <trkpt lat="48.70193" lon="1.70349">
        <ele>179.60000610352</ele>
        <time>2011-08-20T07:17:24.000Z</time>
      </trkpt>
      <trkpt lat="48.70201" lon="1.70369">
        <ele>180.39999389648</ele>
        <time>2011-08-20T07:17:28.000Z</time>
      </trkpt>
      <trkpt lat="48.70212" lon="1.704">
        <ele>181.39999389648</ele>
        <time>2011-08-20T07:17:34.000Z</time>
      </trkpt>
      <trkpt lat="48.70217" lon="1.70424">
        <ele>181.80000305176</ele>
        <time>2011-08-20T07:17:38.000Z</time>
      </trkpt>
      <trkpt lat="48.70223" lon="1.70444">
        <ele>181.80000305176</ele>
        <time>2011-08-20T07:17:42.000Z</time>
      </trkpt>
      <trkpt lat="48.70235" lon="1.70476">
        <ele>181.60000610352</ele>
        <time>2011-08-20T07:17:48.000Z</time>
      </trkpt>
      <trkpt lat="48.70244" lon="1.70502">
        <ele>181.60000610352</ele>
        <time>2011-08-20T07:17:53.000Z</time>
      </trkpt>
      <trkpt lat="48.70255" lon="1.70526">
        <ele>181.80000305176</ele>
        <time>2011-08-20T07:17:58.000Z</time>
      </trkpt>
      <trkpt lat="48.70265" lon="1.70551">
        <ele>182.19999694824</ele>
        <time>2011-08-20T07:18:03.000Z</time>
      </trkpt>
      <trkpt lat="48.70272" lon="1.70572">
        <ele>182.39999389648</ele>
        <time>2011-08-20T07:18:07.000Z</time>
      </trkpt>
      <trkpt lat="48.70279" lon="1.70593">
        <ele>182.60000610352</ele>
        <time>2011-08-20T07:18:11.000Z</time>
      </trkpt>
      <trkpt lat="48.7029" lon="1.70614">
        <ele>183.39999389648</ele>
        <time>2011-08-20T07:18:16.000Z</time>
      </trkpt>
      <trkpt lat="48.70301" lon="1.70639">
        <ele>184</ele>
        <time>2011-08-20T07:18:21.000Z</time>
      </trkpt>
      <trkpt lat="48.70303" lon="1.70649">
        <ele>184</ele>
        <time>2011-08-20T07:18:23.000Z</time>
      </trkpt>
      <trkpt lat="48.70308" lon="1.70671">
        <ele>184.39999389648</ele>
        <time>2011-08-20T07:18:28.000Z</time>
      </trkpt>
      <trkpt lat="48.70318" lon="1.70694">
        <ele>184.60000610352</ele>
        <time>2011-08-20T07:18:33.000Z</time>
      </trkpt>
      <trkpt lat="48.70324" lon="1.70715">
        <ele>184.39999389648</ele>
        <time>2011-08-20T07:18:37.000Z</time>
      </trkpt>
      <trkpt lat="48.70332" lon="1.70733">
        <ele>184.19999694824</ele>
        <time>2011-08-20T07:18:41.000Z</time>
      </trkpt>
      <trkpt lat="48.70338" lon="1.7075">
        <ele>184</ele>
        <time>2011-08-20T07:18:45.000Z</time>
      </trkpt>
      <trkpt lat="48.70348" lon="1.70774">
        <ele>184.80000305176</ele>
        <time>2011-08-20T07:18:50.000Z</time>
      </trkpt>
      <trkpt lat="48.70356" lon="1.70801">
        <ele>185.60000610352</ele>
        <time>2011-08-20T07:18:55.000Z</time>
      </trkpt>
      <trkpt lat="48.70367" lon="1.70832">
        <ele>186.19999694824</ele>
        <time>2011-08-20T07:19:01.000Z</time>
      </trkpt>
      <trkpt lat="48.70374" lon="1.7085">
        <ele>186.39999389648</ele>
        <time>2011-08-20T07:19:05.000Z</time>
      </trkpt>
      <trkpt lat="48.70385" lon="1.70878">
        <ele>186.80000305176</ele>
        <time>2011-08-20T07:19:11.000Z</time>
      </trkpt>
      <trkpt lat="48.70389" lon="1.70897">
        <ele>186.80000305176</ele>
        <time>2011-08-20T07:19:15.000Z</time>
      </trkpt>
      <trkpt lat="48.70399" lon="1.70923">
        <ele>186.80000305176</ele>
        <time>2011-08-20T07:19:20.000Z</time>
      </trkpt>
      <trkpt lat="48.70406" lon="1.70958">
        <ele>186.80000305176</ele>
        <time>2011-08-20T07:19:27.000Z</time>
      </trkpt>
      <trkpt lat="48.7041" lon="1.70972">
        <ele>186.80000305176</ele>
        <time>2011-08-20T07:19:30.000Z</time>
      </trkpt>
      <trkpt lat="48.70421" lon="1.70998">
        <ele>186.80000305176</ele>
        <time>2011-08-20T07:19:36.000Z</time>
      </trkpt>
      <trkpt lat="48.70426" lon="1.71015">
        <ele>186.19999694824</ele>
        <time>2011-08-20T07:19:40.000Z</time>
      </trkpt>
      <trkpt lat="48.70433" lon="1.71041">
        <ele>185.60000610352</ele>
        <time>2011-08-20T07:19:45.000Z</time>
      </trkpt>
      <trkpt lat="48.70442" lon="1.71065">
        <ele>185.19999694824</ele>
        <time>2011-08-20T07:19:50.000Z</time>
      </trkpt>
      <trkpt lat="48.7045" lon="1.71087">
        <ele>185</ele>
        <time>2011-08-20T07:19:55.000Z</time>
      </trkpt>
      <trkpt lat="48.70456" lon="1.71107">
        <ele>185</ele>
        <time>2011-08-20T07:20:00.000Z</time>
      </trkpt>
      <trkpt lat="48.70464" lon="1.71122">
        <ele>185.19999694824</ele>
        <time>2011-08-20T07:20:04.000Z</time>
      </trkpt>
      <trkpt lat="48.70469" lon="1.71132">
        <ele>185.19999694824</ele>
        <time>2011-08-20T07:20:08.000Z</time>
      </trkpt>
      <trkpt lat="48.70471" lon="1.71134">
        <ele>185.19999694824</ele>
        <time>2011-08-20T07:20:09.000Z</time>
      </trkpt>
      <trkpt lat="48.70475" lon="1.71138">
        <ele>185</ele>
        <time>2011-08-20T07:20:13.000Z</time>
      </trkpt>
      <trkpt lat="48.70482" lon="1.71149">
        <ele>185</ele>
        <time>2011-08-20T07:20:19.000Z</time>
      </trkpt>
      <trkpt lat="48.70485" lon="1.7116">
        <ele>185</ele>
        <time>2011-08-20T07:20:25.000Z</time>
      </trkpt>
      <trkpt lat="48.70488" lon="1.71177">
        <ele>185.19999694824</ele>
        <time>2011-08-20T07:20:33.000Z</time>
      </trkpt>
      <trkpt lat="48.70494" lon="1.71192">
        <ele>185.19999694824</ele>
        <time>2011-08-20T07:20:41.000Z</time>
      </trkpt>
      <trkpt lat="48.70494" lon="1.71206">
        <ele>185.39999389648</ele>
        <time>2011-08-20T07:20:48.000Z</time>
      </trkpt>
      <trkpt lat="48.70493" lon="1.71209">
        <ele>185.39999389648</ele>
        <time>2011-08-20T07:20:52.000Z</time>
      </trkpt>
      <trkpt lat="48.70485" lon="1.71209">
        <ele>185.60000610352</ele>
        <time>2011-08-20T07:21:11.000Z</time>
      </trkpt>
      <trkpt lat="48.70484" lon="1.71223">
        <ele>185.80000305176</ele>
        <time>2011-08-20T07:21:16.000Z</time>
      </trkpt>
      <trkpt lat="48.70483" lon="1.71232">
        <ele>185.80000305176</ele>
        <time>2011-08-20T07:21:21.000Z</time>
      </trkpt>
      <trkpt lat="48.7048" lon="1.71244">
        <ele>186</ele>
        <time>2011-08-20T07:21:26.000Z</time>
      </trkpt>
      <trkpt lat="48.70476" lon="1.71262">
        <ele>186.39999389648</ele>
        <time>2011-08-20T07:21:34.000Z</time>
      </trkpt>
      <trkpt lat="48.70474" lon="1.71273">
        <ele>186.60000610352</ele>
        <time>2011-08-20T07:21:39.000Z</time>
      </trkpt>
      <trkpt lat="48.70473" lon="1.71288">
        <ele>186.60000610352</ele>
        <time>2011-08-20T07:21:46.000Z</time>
      </trkpt>
      <trkpt lat="48.70472" lon="1.71293">
        <ele>186.80000305176</ele>
        <time>2011-08-20T07:21:48.000Z</time>
      </trkpt>
      <trkpt lat="48.70466" lon="1.71315">
        <ele>187</ele>
        <time>2011-08-20T07:21:58.000Z</time>
      </trkpt>
      <trkpt lat="48.7046" lon="1.71334">
        <ele>187</ele>
        <time>2011-08-20T07:22:06.000Z</time>
      </trkpt>
      <trkpt lat="48.70458" lon="1.71348">
        <ele>186.80000305176</ele>
        <time>2011-08-20T07:22:12.000Z</time>
      </trkpt>
      <trkpt lat="48.70457" lon="1.71363">
        <ele>186.80000305176</ele>
        <time>2011-08-20T07:22:18.000Z</time>
      </trkpt>
      <trkpt lat="48.70453" lon="1.71371">
        <ele>186.80000305176</ele>
        <time>2011-08-20T07:22:24.000Z</time>
      </trkpt>
      <trkpt lat="48.70451" lon="1.71386">
        <ele>186.60000610352</ele>
        <time>2011-08-20T07:22:32.000Z</time>
      </trkpt>
      <trkpt lat="48.7045" lon="1.71394">
        <ele>186.60000610352</ele>
        <time>2011-08-20T07:22:35.000Z</time>
      </trkpt>
      <trkpt lat="48.70446" lon="1.71403">
        <ele>186.39999389648</ele>
        <time>2011-08-20T07:22:40.000Z</time>
      </trkpt>
      <trkpt lat="48.70445" lon="1.71416">
        <ele>186.19999694824</ele>
        <time>2011-08-20T07:22:46.000Z</time>
      </trkpt>
      <trkpt lat="48.70443" lon="1.71432">
        <ele>186.19999694824</ele>
        <time>2011-08-20T07:22:54.000Z</time>
      </trkpt>
      <trkpt lat="48.70442" lon="1.71437">
        <ele>186.19999694824</ele>
        <time>2011-08-20T07:22:57.000Z</time>
      </trkpt>
      <trkpt lat="48.70441" lon="1.71452">
        <ele>186.19999694824</ele>
        <time>2011-08-20T07:23:04.000Z</time>
      </trkpt>
      <trkpt lat="48.70439" lon="1.71459">
        <ele>186</ele>
        <time>2011-08-20T07:23:07.000Z</time>
      </trkpt>
      <trkpt lat="48.70436" lon="1.71471">
        <ele>186</ele>
        <time>2011-08-20T07:23:12.000Z</time>
      </trkpt>
      <trkpt lat="48.70433" lon="1.71486">
        <ele>186</ele>
        <time>2011-08-20T07:23:19.000Z</time>
      </trkpt>
      <trkpt lat="48.70432" lon="1.71489">
        <ele>186</ele>
        <time>2011-08-20T07:23:20.000Z</time>
      </trkpt>
      <trkpt lat="48.70428" lon="1.7151">
        <ele>186</ele>
        <time>2011-08-20T07:23:28.000Z</time>
      </trkpt>
      <trkpt lat="48.70428" lon="1.71526">
        <ele>185.80000305176</ele>
        <time>2011-08-20T07:23:35.000Z</time>
      </trkpt>
      <trkpt lat="48.70427" lon="1.71529">
        <ele>185.80000305176</ele>
        <time>2011-08-20T07:23:37.000Z</time>
      </trkpt>
      <trkpt lat="48.70423" lon="1.71545">
        <ele>185.39999389648</ele>
        <time>2011-08-20T07:23:45.000Z</time>
      </trkpt>
      <trkpt lat="48.70417" lon="1.71567">
        <ele>185.19999694824</ele>
        <time>2011-08-20T07:23:53.000Z</time>
      </trkpt>
      <trkpt lat="48.70413" lon="1.71577">
        <ele>184.80000305176</ele>
        <time>2011-08-20T07:23:59.000Z</time>
      </trkpt>
      <trkpt lat="48.70408" lon="1.71591">
        <ele>184.80000305176</ele>
        <time>2011-08-20T07:24:07.000Z</time>
      </trkpt>
      <trkpt lat="48.70403" lon="1.71604">
        <ele>184.80000305176</ele>
        <time>2011-08-20T07:24:14.000Z</time>
      </trkpt>
      <trkpt lat="48.70401" lon="1.71617">
        <ele>185</ele>
        <time>2011-08-20T07:24:20.000Z</time>
      </trkpt>
      <trkpt lat="48.70399" lon="1.71624">
        <ele>185</ele>
        <time>2011-08-20T07:24:24.000Z</time>
      </trkpt>
      <trkpt lat="48.70396" lon="1.71639">
        <ele>185</ele>
        <time>2011-08-20T07:24:30.000Z</time>
      </trkpt>
      <trkpt lat="48.70395" lon="1.71652">
        <ele>185.19999694824</ele>
        <time>2011-08-20T07:24:36.000Z</time>
      </trkpt>
      <trkpt lat="48.70393" lon="1.71669">
        <ele>185.39999389648</ele>
        <time>2011-08-20T07:24:43.000Z</time>
      </trkpt>
      <trkpt lat="48.7039" lon="1.71686">
        <ele>185.60000610352</ele>
        <time>2011-08-20T07:24:50.000Z</time>
      </trkpt>
      <trkpt lat="48.70385" lon="1.71705">
        <ele>185.80000305176</ele>
        <time>2011-08-20T07:24:58.000Z</time>
      </trkpt>
      <trkpt lat="48.70383" lon="1.71716">
        <ele>186</ele>
        <time>2011-08-20T07:25:04.000Z</time>
      </trkpt>
      <trkpt lat="48.7038" lon="1.71726">
        <ele>186</ele>
        <time>2011-08-20T07:25:09.000Z</time>
      </trkpt>
      <trkpt lat="48.70378" lon="1.71736">
        <ele>186.19999694824</ele>
        <time>2011-08-20T07:25:16.000Z</time>
      </trkpt>
      <trkpt lat="48.70378" lon="1.71738">
        <ele>186.19999694824</ele>
        <time>2011-08-20T07:25:17.000Z</time>
      </trkpt>
      <trkpt lat="48.70374" lon="1.71753">
        <ele>186.39999389648</ele>
        <time>2011-08-20T07:25:24.000Z</time>
      </trkpt>
      <trkpt lat="48.70371" lon="1.7177">
        <ele>186</ele>
        <time>2011-08-20T07:25:31.000Z</time>
      </trkpt>
      <trkpt lat="48.70368" lon="1.71781">
        <ele>185.80000305176</ele>
        <time>2011-08-20T07:25:37.000Z</time>
      </trkpt>
      <trkpt lat="48.70363" lon="1.71794">
        <ele>185.39999389648</ele>
        <time>2011-08-20T07:25:44.000Z</time>
      </trkpt>
      <trkpt lat="48.70358" lon="1.71812">
        <ele>185</ele>
        <time>2011-08-20T07:25:51.000Z</time>
      </trkpt>
      <trkpt lat="48.70355" lon="1.71826">
        <ele>184.60000610352</ele>
        <time>2011-08-20T07:25:58.000Z</time>
      </trkpt>
      <trkpt lat="48.70351" lon="1.71844">
        <ele>184.19999694824</ele>
        <time>2011-08-20T07:26:06.000Z</time>
      </trkpt>
      <trkpt lat="48.70348" lon="1.71866">
        <ele>183.80000305176</ele>
        <time>2011-08-20T07:26:14.000Z</time>
      </trkpt>
      <trkpt lat="48.70347" lon="1.71877">
        <ele>183.60000610352</ele>
        <time>2011-08-20T07:26:20.000Z</time>
      </trkpt>
      <trkpt lat="48.70346" lon="1.71882">
        <ele>183.60000610352</ele>
        <time>2011-08-20T07:26:22.000Z</time>
      </trkpt>
      <trkpt lat="48.70341" lon="1.71899">
        <ele>183.19999694824</ele>
        <time>2011-08-20T07:26:30.000Z</time>
      </trkpt>
      <trkpt lat="48.7034" lon="1.71901">
        <ele>183.19999694824</ele>
        <time>2011-08-20T07:26:31.000Z</time>
      </trkpt>
      <trkpt lat="48.70337" lon="1.7191">
        <ele>183</ele>
        <time>2011-08-20T07:26:37.000Z</time>
      </trkpt>
      <trkpt lat="48.70333" lon="1.71926">
        <ele>182.80000305176</ele>
        <time>2011-08-20T07:26:45.000Z</time>
      </trkpt>
      <trkpt lat="48.70331" lon="1.7194">
        <ele>182.80000305176</ele>
        <time>2011-08-20T07:26:51.000Z</time>
      </trkpt>
      <trkpt lat="48.70329" lon="1.71953">
        <ele>182.80000305176</ele>
        <time>2011-08-20T07:26:57.000Z</time>
      </trkpt>
      <trkpt lat="48.70326" lon="1.71969">
        <ele>182.60000610352</ele>
        <time>2011-08-20T07:27:03.000Z</time>
      </trkpt>
      <trkpt lat="48.70323" lon="1.71984">
        <ele>182.39999389648</ele>
        <time>2011-08-20T07:27:09.000Z</time>
      </trkpt>
      <trkpt lat="48.70323" lon="1.7199">
        <ele>182.39999389648</ele>
        <time>2011-08-20T07:27:12.000Z</time>
      </trkpt>
      <trkpt lat="48.70319" lon="1.72001">
        <ele>182</ele>
        <time>2011-08-20T07:27:18.000Z</time>
      </trkpt>
      <trkpt lat="48.70316" lon="1.72019">
        <ele>182.39999389648</ele>
        <time>2011-08-20T07:27:25.000Z</time>
      </trkpt>
      <trkpt lat="48.70313" lon="1.72034">
        <ele>182.60000610352</ele>
        <time>2011-08-20T07:27:32.000Z</time>
      </trkpt>
      <trkpt lat="48.70308" lon="1.72052">
        <ele>182.80000305176</ele>
        <time>2011-08-20T07:27:40.000Z</time>
      </trkpt>
      <trkpt lat="48.70305" lon="1.72064">
        <ele>183</ele>
        <time>2011-08-20T07:27:47.000Z</time>
      </trkpt>
      <trkpt lat="48.70305" lon="1.72065">
        <ele>183</ele>
        <time>2011-08-20T07:27:48.000Z</time>
      </trkpt>
      <trkpt lat="48.70303" lon="1.72079">
        <ele>183.39999389648</ele>
        <time>2011-08-20T07:27:55.000Z</time>
      </trkpt>
      <trkpt lat="48.70302" lon="1.72082">
        <ele>183.39999389648</ele>
        <time>2011-08-20T07:27:57.000Z</time>
      </trkpt>
      <trkpt lat="48.703" lon="1.72092">
        <ele>183.39999389648</ele>
        <time>2011-08-20T07:28:01.000Z</time>
      </trkpt>
      <trkpt lat="48.70297" lon="1.72103">
        <ele>183.60000610352</ele>
        <time>2011-08-20T07:28:07.000Z</time>
      </trkpt>
      <trkpt lat="48.70296" lon="1.72109">
        <ele>183.60000610352</ele>
        <time>2011-08-20T07:28:09.000Z</time>
      </trkpt>
      <trkpt lat="48.70292" lon="1.72121">
        <ele>183.80000305176</ele>
        <time>2011-08-20T07:28:15.000Z</time>
      </trkpt>
      <trkpt lat="48.70291" lon="1.72124">
        <ele>183.80000305176</ele>
        <time>2011-08-20T07:28:16.000Z</time>
      </trkpt>
      <trkpt lat="48.70288" lon="1.72139">
        <ele>184.19999694824</ele>
        <time>2011-08-20T07:28:23.000Z</time>
      </trkpt>
      <trkpt lat="48.70287" lon="1.72145">
        <ele>184.19999694824</ele>
        <time>2011-08-20T07:28:26.000Z</time>
      </trkpt>
      <trkpt lat="48.70282" lon="1.72158">
        <ele>184.39999389648</ele>
        <time>2011-08-20T07:28:33.000Z</time>
      </trkpt>
      <trkpt lat="48.70282" lon="1.72163">
        <ele>184.60000610352</ele>
        <time>2011-08-20T07:28:35.000Z</time>
      </trkpt>
      <trkpt lat="48.70279" lon="1.72182">
        <ele>184.80000305176</ele>
        <time>2011-08-20T07:28:43.000Z</time>
      </trkpt>
      <trkpt lat="48.70277" lon="1.72191">
        <ele>184.80000305176</ele>
        <time>2011-08-20T07:28:47.000Z</time>
      </trkpt>
      <trkpt lat="48.70273" lon="1.722">
        <ele>184.80000305176</ele>
        <time>2011-08-20T07:28:52.000Z</time>
      </trkpt>
      <trkpt lat="48.70272" lon="1.7222">
        <ele>184.80000305176</ele>
        <time>2011-08-20T07:28:59.000Z</time>
      </trkpt>
      <trkpt lat="48.7027" lon="1.72242">
        <ele>185</ele>
        <time>2011-08-20T07:29:08.000Z</time>
      </trkpt>
      <trkpt lat="48.7027" lon="1.72261">
        <ele>185</ele>
        <time>2011-08-20T07:29:16.000Z</time>
      </trkpt>
      <trkpt lat="48.70265" lon="1.72278">
        <ele>185</ele>
        <time>2011-08-20T07:29:24.000Z</time>
      </trkpt>
      <trkpt lat="48.70264" lon="1.72287">
        <ele>185</ele>
        <time>2011-08-20T07:29:28.000Z</time>
      </trkpt>
      <trkpt lat="48.7026" lon="1.72303">
        <ele>184.80000305176</ele>
        <time>2011-08-20T07:29:36.000Z</time>
      </trkpt>
      <trkpt lat="48.70255" lon="1.72321">
        <ele>184.80000305176</ele>
        <time>2011-08-20T07:29:44.000Z</time>
      </trkpt>
      <trkpt lat="48.70251" lon="1.7234">
        <ele>184.60000610352</ele>
        <time>2011-08-20T07:29:52.000Z</time>
      </trkpt>
      <trkpt lat="48.70246" lon="1.72355">
        <ele>184</ele>
        <time>2011-08-20T07:30:00.000Z</time>
      </trkpt>
      <trkpt lat="48.70244" lon="1.72367">
        <ele>183.80000305176</ele>
        <time>2011-08-20T07:30:07.000Z</time>
      </trkpt>
      <trkpt lat="48.7024" lon="1.72383">
        <ele>183.39999389648</ele>
        <time>2011-08-20T07:30:14.000Z</time>
      </trkpt>
      <trkpt lat="48.70237" lon="1.72397">
        <ele>183</ele>
        <time>2011-08-20T07:30:20.000Z</time>
      </trkpt>
      <trkpt lat="48.70234" lon="1.72415">
        <ele>182.60000610352</ele>
        <time>2011-08-20T07:30:28.000Z</time>
      </trkpt>
      <trkpt lat="48.70231" lon="1.72425">
        <ele>182.60000610352</ele>
        <time>2011-08-20T07:30:33.000Z</time>
      </trkpt>
      <trkpt lat="48.7023" lon="1.72426">
        <ele>182.60000610352</ele>
        <time>2011-08-20T07:30:34.000Z</time>
      </trkpt>
      <trkpt lat="48.70226" lon="1.7244">
        <ele>182.60000610352</ele>
        <time>2011-08-20T07:30:42.000Z</time>
      </trkpt>
      <trkpt lat="48.70224" lon="1.72453">
        <ele>182.39999389648</ele>
        <time>2011-08-20T07:30:48.000Z</time>
      </trkpt>
      <trkpt lat="48.7022" lon="1.72473">
        <ele>182.19999694824</ele>
        <time>2011-08-20T07:30:57.000Z</time>
      </trkpt>
      <trkpt lat="48.70221" lon="1.72482">
        <ele>182</ele>
        <time>2011-08-20T07:31:02.000Z</time>
      </trkpt>
      <trkpt lat="48.70221" lon="1.72496">
        <ele>181.80000305176</ele>
        <time>2011-08-20T07:31:09.000Z</time>
      </trkpt>
      <trkpt lat="48.70221" lon="1.72507">
        <ele>181.39999389648</ele>
        <time>2011-08-20T07:31:14.000Z</time>
      </trkpt>
      <trkpt lat="48.7022" lon="1.72512">
        <ele>181.39999389648</ele>
        <time>2011-08-20T07:31:16.000Z</time>
      </trkpt>
      <trkpt lat="48.70219" lon="1.72523">
        <ele>181.19999694824</ele>
        <time>2011-08-20T07:31:21.000Z</time>
      </trkpt>
      <trkpt lat="48.70217" lon="1.72543">
        <ele>180.80000305176</ele>
        <time>2011-08-20T07:31:30.000Z</time>
      </trkpt>
      <trkpt lat="48.70212" lon="1.72562">
        <ele>180.60000610352</ele>
        <time>2011-08-20T07:31:38.000Z</time>
      </trkpt>
      <trkpt lat="48.70207" lon="1.72583">
        <ele>180.60000610352</ele>
        <time>2011-08-20T07:31:47.000Z</time>
      </trkpt>
      <trkpt lat="48.70205" lon="1.726">
        <ele>180.19999694824</ele>
        <time>2011-08-20T07:31:55.000Z</time>
      </trkpt>
      <trkpt lat="48.70202" lon="1.72612">
        <ele>180</ele>
        <time>2011-08-20T07:32:00.000Z</time>
      </trkpt>
      <trkpt lat="48.70201" lon="1.72615">
        <ele>180</ele>
        <time>2011-08-20T07:32:02.000Z</time>
      </trkpt>
      <trkpt lat="48.70198" lon="1.72621">
        <ele>180</ele>
        <time>2011-08-20T07:32:08.000Z</time>
      </trkpt>
      <trkpt lat="48.70196" lon="1.7263">
        <ele>179.80000305176</ele>
        <time>2011-08-20T07:32:15.000Z</time>
      </trkpt>
      <trkpt lat="48.70195" lon="1.72634">
        <ele>179.80000305176</ele>
        <time>2011-08-20T07:32:17.000Z</time>
      </trkpt>
      <trkpt lat="48.70192" lon="1.72643">
        <ele>179.60000610352</ele>
        <time>2011-08-20T07:32:21.000Z</time>
      </trkpt>
      <trkpt lat="48.70188" lon="1.7266">
        <ele>179.19999694824</ele>
        <time>2011-08-20T07:32:28.000Z</time>
      </trkpt>
      <trkpt lat="48.70188" lon="1.72662">
        <ele>179</ele>
        <time>2011-08-20T07:32:29.000Z</time>
      </trkpt>
      <trkpt lat="48.70179" lon="1.72685">
        <ele>178.60000610352</ele>
        <time>2011-08-20T07:32:39.000Z</time>
      </trkpt>
      <trkpt lat="48.70173" lon="1.72705">
        <ele>178</ele>
        <time>2011-08-20T07:32:48.000Z</time>
      </trkpt>
      <trkpt lat="48.70168" lon="1.72719">
        <ele>177.39999389648</ele>
        <time>2011-08-20T07:32:54.000Z</time>
      </trkpt>
      <trkpt lat="48.70165" lon="1.7273">
        <ele>177</ele>
        <time>2011-08-20T07:32:59.000Z</time>
      </trkpt>
      <trkpt lat="48.70158" lon="1.72745">
        <ele>176.60000610352</ele>
        <time>2011-08-20T07:33:06.000Z</time>
      </trkpt>
      <trkpt lat="48.70149" lon="1.72769">
        <ele>176.60000610352</ele>
        <time>2011-08-20T07:33:17.000Z</time>
      </trkpt>
      <trkpt lat="48.70143" lon="1.72785">
        <ele>176.60000610352</ele>
        <time>2011-08-20T07:33:25.000Z</time>
      </trkpt>
      <trkpt lat="48.70135" lon="1.72814">
        <ele>176.80000305176</ele>
        <time>2011-08-20T07:33:36.000Z</time>
      </trkpt>
      <trkpt lat="48.70129" lon="1.72831">
        <ele>177</ele>
        <time>2011-08-20T07:33:44.000Z</time>
      </trkpt>
      <trkpt lat="48.70122" lon="1.72846">
        <ele>177.39999389648</ele>
        <time>2011-08-20T07:33:52.000Z</time>
      </trkpt>
      <trkpt lat="48.70116" lon="1.72869">
        <ele>177.39999389648</ele>
        <time>2011-08-20T07:34:02.000Z</time>
      </trkpt>
      <trkpt lat="48.70107" lon="1.72895">
        <ele>177.60000610352</ele>
        <time>2011-08-20T07:34:14.000Z</time>
      </trkpt>
      <trkpt lat="48.701" lon="1.72916">
        <ele>177.80000305176</ele>
        <time>2011-08-20T07:34:24.000Z</time>
      </trkpt>
      <trkpt lat="48.70093" lon="1.72939">
        <ele>178.60000610352</ele>
        <time>2011-08-20T07:34:35.000Z</time>
      </trkpt>
      <trkpt lat="48.70083" lon="1.72966">
        <ele>179.60000610352</ele>
        <time>2011-08-20T07:34:48.000Z</time>
      </trkpt>
      <trkpt lat="48.70076" lon="1.72983">
        <ele>180.39999389648</ele>
        <time>2011-08-20T07:34:57.000Z</time>
      </trkpt>
      <trkpt lat="48.70072" lon="1.72997">
        <ele>181</ele>
        <time>2011-08-20T07:35:03.000Z</time>
      </trkpt>
      <trkpt lat="48.70069" lon="1.73009">
        <ele>181.39999389648</ele>
        <time>2011-08-20T07:35:09.000Z</time>
      </trkpt>
      <trkpt lat="48.70062" lon="1.73028">
        <ele>182.19999694824</ele>
        <time>2011-08-20T07:35:19.000Z</time>
      </trkpt>
      <trkpt lat="48.70056" lon="1.73044">
        <ele>182.80000305176</ele>
        <time>2011-08-20T07:35:27.000Z</time>
      </trkpt>
      <trkpt lat="48.70051" lon="1.73065">
        <ele>183.39999389648</ele>
        <time>2011-08-20T07:35:35.000Z</time>
      </trkpt>
      <trkpt lat="48.70046" lon="1.73088">
        <ele>183.60000610352</ele>
        <time>2011-08-20T07:35:44.000Z</time>
      </trkpt>
      <trkpt lat="48.70038" lon="1.7311">
        <ele>183.19999694824</ele>
        <time>2011-08-20T07:35:54.000Z</time>
      </trkpt>
      <trkpt lat="48.70031" lon="1.73135">
        <ele>182.60000610352</ele>
        <time>2011-08-20T07:36:05.000Z</time>
      </trkpt>
      <trkpt lat="48.70024" lon="1.7315">
        <ele>182.19999694824</ele>
        <time>2011-08-20T07:36:13.000Z</time>
      </trkpt>
      <trkpt lat="48.70019" lon="1.73158">
        <ele>182</ele>
        <time>2011-08-20T07:36:20.000Z</time>
      </trkpt>
      <trkpt lat="48.70013" lon="1.7317">
        <ele>181.60000610352</ele>
        <time>2011-08-20T07:36:27.000Z</time>
      </trkpt>
      <trkpt lat="48.70007" lon="1.73185">
        <ele>181</ele>
        <time>2011-08-20T07:36:35.000Z</time>
      </trkpt>
      <trkpt lat="48.70002" lon="1.73198">
        <ele>180.39999389648</ele>
        <time>2011-08-20T07:36:41.000Z</time>
      </trkpt>
      <trkpt lat="48.69998" lon="1.73207">
        <ele>180</ele>
        <time>2011-08-20T07:36:48.000Z</time>
      </trkpt>
      <trkpt lat="48.69998" lon="1.73207">
        <ele>179.80000305176</ele>
        <time>2011-08-20T07:36:54.000Z</time>
      </trkpt>
      <trkpt lat="48.6999" lon="1.73225">
        <ele>178.80000305176</ele>
        <time>2011-08-20T07:37:01.000Z</time>
      </trkpt>
      <trkpt lat="48.6998" lon="1.73244">
        <ele>177.39999389648</ele>
        <time>2011-08-20T07:37:11.000Z</time>
      </trkpt>
      <trkpt lat="48.69974" lon="1.73258">
        <ele>177</ele>
        <time>2011-08-20T07:37:19.000Z</time>
      </trkpt>
      <trkpt lat="48.69968" lon="1.73268">
        <ele>177</ele>
        <time>2011-08-20T07:37:25.000Z</time>
      </trkpt>
      <trkpt lat="48.69961" lon="1.73282">
        <ele>177</ele>
        <time>2011-08-20T07:37:33.000Z</time>
      </trkpt>
      <trkpt lat="48.69953" lon="1.73299">
        <ele>177.19999694824</ele>
        <time>2011-08-20T07:37:42.000Z</time>
      </trkpt>
      <trkpt lat="48.69947" lon="1.73311">
        <ele>177.19999694824</ele>
        <time>2011-08-20T07:37:48.000Z</time>
      </trkpt>
      <trkpt lat="48.6994" lon="1.73324">
        <ele>177.19999694824</ele>
        <time>2011-08-20T07:37:55.000Z</time>
      </trkpt>
      <trkpt lat="48.69932" lon="1.73337">
        <ele>177.39999389648</ele>
        <time>2011-08-20T07:38:03.000Z</time>
      </trkpt>
      <trkpt lat="48.69925" lon="1.73349">
        <ele>177.39999389648</ele>
        <time>2011-08-20T07:38:10.000Z</time>
      </trkpt>
      <trkpt lat="48.69918" lon="1.73367">
        <ele>177.80000305176</ele>
        <time>2011-08-20T07:38:19.000Z</time>
      </trkpt>
      <trkpt lat="48.69912" lon="1.73381">
        <ele>178</ele>
        <time>2011-08-20T07:38:26.000Z</time>
      </trkpt>
      <trkpt lat="48.69905" lon="1.73395">
        <ele>178.39999389648</ele>
        <time>2011-08-20T07:38:33.000Z</time>
      </trkpt>
      <trkpt lat="48.69899" lon="1.73408">
        <ele>178.80000305176</ele>
        <time>2011-08-20T07:38:40.000Z</time>
      </trkpt>
      <trkpt lat="48.69897" lon="1.73414">
        <ele>178.80000305176</ele>
        <time>2011-08-20T07:38:43.000Z</time>
      </trkpt>
      <trkpt lat="48.69893" lon="1.73421">
        <ele>178.80000305176</ele>
        <time>2011-08-20T07:38:47.000Z</time>
      </trkpt>
      <trkpt lat="48.69884" lon="1.73436">
        <ele>178.39999389648</ele>
        <time>2011-08-20T07:38:57.000Z</time>
      </trkpt>
      <trkpt lat="48.69882" lon="1.73441">
        <ele>178.39999389648</ele>
        <time>2011-08-20T07:39:03.000Z</time>
      </trkpt>
      <trkpt lat="48.6988" lon="1.73447">
        <ele>178.19999694824</ele>
        <time>2011-08-20T07:39:08.000Z</time>
      </trkpt>
      <trkpt lat="48.69877" lon="1.73456">
        <ele>178.19999694824</ele>
        <time>2011-08-20T07:39:12.000Z</time>
      </trkpt>
      <trkpt lat="48.69872" lon="1.73465">
        <ele>178</ele>
        <time>2011-08-20T07:39:17.000Z</time>
      </trkpt>
      <trkpt lat="48.69868" lon="1.7347">
        <ele>178.19999694824</ele>
        <time>2011-08-20T07:39:21.000Z</time>
      </trkpt>
      <trkpt lat="48.69865" lon="1.73478">
        <ele>178</ele>
        <time>2011-08-20T07:39:26.000Z</time>
      </trkpt>
      <trkpt lat="48.6986" lon="1.7349">
        <ele>178</ele>
        <time>2011-08-20T07:39:31.000Z</time>
      </trkpt>
      <trkpt lat="48.69852" lon="1.73507">
        <ele>178.19999694824</ele>
        <time>2011-08-20T07:39:37.000Z</time>
      </trkpt>
      <trkpt lat="48.69851" lon="1.73511">
        <ele>178.19999694824</ele>
        <time>2011-08-20T07:39:38.000Z</time>
      </trkpt>
      <trkpt lat="48.69848" lon="1.73522">
        <ele>178.39999389648</ele>
        <time>2011-08-20T07:39:45.000Z</time>
      </trkpt>
      <trkpt lat="48.69845" lon="1.73533">
        <ele>178.39999389648</ele>
        <time>2011-08-20T07:39:51.000Z</time>
      </trkpt>
      <trkpt lat="48.69844" lon="1.73535">
        <ele>178.60000610352</ele>
        <time>2011-08-20T07:39:52.000Z</time>
      </trkpt>
      <trkpt lat="48.69839" lon="1.73545">
        <ele>178.60000610352</ele>
        <time>2011-08-20T07:39:58.000Z</time>
      </trkpt>
      <trkpt lat="48.6983" lon="1.73558">
        <ele>179</ele>
        <time>2011-08-20T07:40:05.000Z</time>
      </trkpt>
      <trkpt lat="48.6982" lon="1.73573">
        <ele>179</ele>
        <time>2011-08-20T07:40:12.000Z</time>
      </trkpt>
      <trkpt lat="48.69813" lon="1.73587">
        <ele>179</ele>
        <time>2011-08-20T07:40:19.000Z</time>
      </trkpt>
      <trkpt lat="48.69805" lon="1.73603">
        <ele>179</ele>
        <time>2011-08-20T07:40:27.000Z</time>
      </trkpt>
      <trkpt lat="48.69797" lon="1.73616">
        <ele>179</ele>
        <time>2011-08-20T07:40:34.000Z</time>
      </trkpt>
      <trkpt lat="48.69792" lon="1.73626">
        <ele>179.19999694824</ele>
        <time>2011-08-20T07:40:39.000Z</time>
      </trkpt>
      <trkpt lat="48.69786" lon="1.73639">
        <ele>179.19999694824</ele>
        <time>2011-08-20T07:40:45.000Z</time>
      </trkpt>
      <trkpt lat="48.69782" lon="1.73648">
        <ele>179.39999389648</ele>
        <time>2011-08-20T07:40:50.000Z</time>
      </trkpt>
      <trkpt lat="48.69772" lon="1.7366">
        <ele>179.60000610352</ele>
        <time>2011-08-20T07:40:58.000Z</time>
      </trkpt>
      <trkpt lat="48.69767" lon="1.73667">
        <ele>179.60000610352</ele>
        <time>2011-08-20T07:41:03.000Z</time>
      </trkpt>
      <trkpt lat="48.69762" lon="1.73668">
        <ele>179.60000610352</ele>
        <time>2011-08-20T07:41:07.000Z</time>
      </trkpt>
      <trkpt lat="48.69755" lon="1.73671">
        <ele>179.60000610352</ele>
        <time>2011-08-20T07:41:13.000Z</time>
      </trkpt>
      <trkpt lat="48.69753" lon="1.73671">
        <ele>179.80000305176</ele>
        <time>2011-08-20T07:41:15.000Z</time>
      </trkpt>
      <trkpt lat="48.6975" lon="1.73672">
        <ele>179.80000305176</ele>
        <time>2011-08-20T07:41:19.000Z</time>
      </trkpt>
      <trkpt lat="48.69747" lon="1.73671">
        <ele>179.80000305176</ele>
        <time>2011-08-20T07:41:22.000Z</time>
      </trkpt>
      <trkpt lat="48.69742" lon="1.73671">
        <ele>179.80000305176</ele>
        <time>2011-08-20T07:41:26.000Z</time>
      </trkpt>
      <trkpt lat="48.69738" lon="1.73675">
        <ele>179.60000610352</ele>
        <time>2011-08-20T07:41:33.000Z</time>
      </trkpt>
      <trkpt lat="48.69731" lon="1.73673">
        <ele>179.60000610352</ele>
        <time>2011-08-20T07:41:39.000Z</time>
      </trkpt>
      <trkpt lat="48.69721" lon="1.73676">
        <ele>179.60000610352</ele>
        <time>2011-08-20T07:41:46.000Z</time>
      </trkpt>
      <trkpt lat="48.69714" lon="1.73684">
        <ele>179.39999389648</ele>
        <time>2011-08-20T07:41:53.000Z</time>
      </trkpt>
      <trkpt lat="48.69709" lon="1.73684">
        <ele>179.39999389648</ele>
        <time>2011-08-20T07:41:58.000Z</time>
      </trkpt>
      <trkpt lat="48.69704" lon="1.73681">
        <ele>179.60000610352</ele>
        <time>2011-08-20T07:42:02.000Z</time>
      </trkpt>
      <trkpt lat="48.69699" lon="1.73679">
        <ele>179.60000610352</ele>
        <time>2011-08-20T07:42:07.000Z</time>
      </trkpt>
      <trkpt lat="48.69692" lon="1.73676">
        <ele>179.80000305176</ele>
        <time>2011-08-20T07:42:13.000Z</time>
      </trkpt>
      <trkpt lat="48.69685" lon="1.73674">
        <ele>179.80000305176</ele>
        <time>2011-08-20T07:42:18.000Z</time>
      </trkpt>
      <trkpt lat="48.69677" lon="1.73672">
        <ele>179.80000305176</ele>
        <time>2011-08-20T07:42:24.000Z</time>
      </trkpt>
      <trkpt lat="48.69669" lon="1.73671">
        <ele>179.80000305176</ele>
        <time>2011-08-20T07:42:31.000Z</time>
      </trkpt>
      <trkpt lat="48.69663" lon="1.7367">
        <ele>179.80000305176</ele>
        <time>2011-08-20T07:42:37.000Z</time>
      </trkpt>
      <trkpt lat="48.69655" lon="1.73673">
        <ele>179.80000305176</ele>
        <time>2011-08-20T07:42:44.000Z</time>
      </trkpt>
      <trkpt lat="48.69645" lon="1.73673">
        <ele>179.80000305176</ele>
        <time>2011-08-20T07:42:51.000Z</time>
      </trkpt>
      <trkpt lat="48.69638" lon="1.73676">
        <ele>179.80000305176</ele>
        <time>2011-08-20T07:42:57.000Z</time>
      </trkpt>
      <trkpt lat="48.69628" lon="1.73673">
        <ele>179.80000305176</ele>
        <time>2011-08-20T07:43:04.000Z</time>
      </trkpt>
      <trkpt lat="48.69621" lon="1.73669">
        <ele>180</ele>
        <time>2011-08-20T07:43:09.000Z</time>
      </trkpt>
      <trkpt lat="48.69616" lon="1.73659">
        <ele>180</ele>
        <time>2011-08-20T07:43:16.000Z</time>
      </trkpt>
      <trkpt lat="48.69615" lon="1.73659">
        <ele>180</ele>
        <time>2011-08-20T07:43:17.000Z</time>
      </trkpt>
      <trkpt lat="48.69604" lon="1.73662">
        <ele>180</ele>
        <time>2011-08-20T07:43:26.000Z</time>
      </trkpt>
      <trkpt lat="48.69594" lon="1.73658">
        <ele>180.19999694824</ele>
        <time>2011-08-20T07:43:32.000Z</time>
      </trkpt>
      <trkpt lat="48.69587" lon="1.73654">
        <ele>180.19999694824</ele>
        <time>2011-08-20T07:43:36.000Z</time>
      </trkpt>
      <trkpt lat="48.69578" lon="1.73654">
        <ele>179.80000305176</ele>
        <time>2011-08-20T07:43:42.000Z</time>
      </trkpt>
      <trkpt lat="48.6957" lon="1.73657">
        <ele>179.19999694824</ele>
        <time>2011-08-20T07:43:49.000Z</time>
      </trkpt>
      <trkpt lat="48.69561" lon="1.73663">
        <ele>178.39999389648</ele>
        <time>2011-08-20T07:43:56.000Z</time>
      </trkpt>
      <trkpt lat="48.69553" lon="1.73666">
        <ele>177.80000305176</ele>
        <time>2011-08-20T07:44:02.000Z</time>
      </trkpt>
      <trkpt lat="48.69543" lon="1.73667">
        <ele>177</ele>
        <time>2011-08-20T07:44:09.000Z</time>
      </trkpt>
      <trkpt lat="48.69532" lon="1.73667">
        <ele>176.19999694824</ele>
        <time>2011-08-20T07:44:16.000Z</time>
      </trkpt>
      <trkpt lat="48.69523" lon="1.73664">
        <ele>175.60000610352</ele>
        <time>2011-08-20T07:44:22.000Z</time>
      </trkpt>
      <trkpt lat="48.69512" lon="1.73666">
        <ele>174.80000305176</ele>
        <time>2011-08-20T07:44:29.000Z</time>
      </trkpt>
      <trkpt lat="48.69499" lon="1.73662">
        <ele>174</ele>
        <time>2011-08-20T07:44:37.000Z</time>
      </trkpt>
      <trkpt lat="48.69491" lon="1.7366">
        <ele>173.60000610352</ele>
        <time>2011-08-20T07:44:42.000Z</time>
      </trkpt>
      <trkpt lat="48.69485" lon="1.73659">
        <ele>173.39999389648</ele>
        <time>2011-08-20T07:44:46.000Z</time>
      </trkpt>
      <trkpt lat="48.69475" lon="1.73661">
        <ele>173</ele>
        <time>2011-08-20T07:44:52.000Z</time>
      </trkpt>
      <trkpt lat="48.69466" lon="1.73658">
        <ele>172.80000305176</ele>
        <time>2011-08-20T07:44:58.000Z</time>
      </trkpt>
      <trkpt lat="48.69453" lon="1.73653">
        <ele>172.19999694824</ele>
        <time>2011-08-20T07:45:05.000Z</time>
      </trkpt>
      <trkpt lat="48.69446" lon="1.73651">
        <ele>172</ele>
        <time>2011-08-20T07:45:10.000Z</time>
      </trkpt>
      <trkpt lat="48.69435" lon="1.73647">
        <ele>171.60000610352</ele>
        <time>2011-08-20T07:45:17.000Z</time>
      </trkpt>
      <trkpt lat="48.69424" lon="1.73643">
        <ele>171.19999694824</ele>
        <time>2011-08-20T07:45:24.000Z</time>
      </trkpt>
      <trkpt lat="48.69414" lon="1.73642">
        <ele>171</ele>
        <time>2011-08-20T07:45:31.000Z</time>
      </trkpt>
      <trkpt lat="48.69404" lon="1.73641">
        <ele>171.19999694824</ele>
        <time>2011-08-20T07:45:37.000Z</time>
      </trkpt>
      <trkpt lat="48.69397" lon="1.73639">
        <ele>171.19999694824</ele>
        <time>2011-08-20T07:45:42.000Z</time>
      </trkpt>
      <trkpt lat="48.69389" lon="1.73637">
        <ele>171.39999389648</ele>
        <time>2011-08-20T07:45:48.000Z</time>
      </trkpt>
      <trkpt lat="48.69379" lon="1.73636">
        <ele>171.80000305176</ele>
        <time>2011-08-20T07:45:56.000Z</time>
      </trkpt>
      <trkpt lat="48.69371" lon="1.73636">
        <ele>172</ele>
        <time>2011-08-20T07:46:02.000Z</time>
      </trkpt>
      <trkpt lat="48.69361" lon="1.73635">
        <ele>172.19999694824</ele>
        <time>2011-08-20T07:46:09.000Z</time>
      </trkpt>
      <trkpt lat="48.6935" lon="1.73634">
        <ele>172.39999389648</ele>
        <time>2011-08-20T07:46:16.000Z</time>
      </trkpt>
      <trkpt lat="48.6934" lon="1.73633">
        <ele>172.80000305176</ele>
        <time>2011-08-20T07:46:23.000Z</time>
      </trkpt>
      <trkpt lat="48.6933" lon="1.73632">
        <ele>173.19999694824</ele>
        <time>2011-08-20T07:46:31.000Z</time>
      </trkpt>
      <trkpt lat="48.69322" lon="1.7363">
        <ele>173.60000610352</ele>
        <time>2011-08-20T07:46:37.000Z</time>
      </trkpt>
      <trkpt lat="48.69312" lon="1.7363">
        <ele>174</ele>
        <time>2011-08-20T07:46:44.000Z</time>
      </trkpt>
      <trkpt lat="48.693" lon="1.73631">
        <ele>174.39999389648</ele>
        <time>2011-08-20T07:46:53.000Z</time>
      </trkpt>
      <trkpt lat="48.69291" lon="1.7363">
        <ele>174.80000305176</ele>
        <time>2011-08-20T07:47:00.000Z</time>
      </trkpt>
      <trkpt lat="48.69282" lon="1.73628">
        <ele>175.39999389648</ele>
        <time>2011-08-20T07:47:06.000Z</time>
      </trkpt>
      <trkpt lat="48.69271" lon="1.73625">
        <ele>176</ele>
        <time>2011-08-20T07:47:13.000Z</time>
      </trkpt>
      <trkpt lat="48.69261" lon="1.73624">
        <ele>176.39999389648</ele>
        <time>2011-08-20T07:47:20.000Z</time>
      </trkpt>
      <trkpt lat="48.69249" lon="1.73624">
        <ele>177</ele>
        <time>2011-08-20T07:47:29.000Z</time>
      </trkpt>
      <trkpt lat="48.69245" lon="1.73627">
        <ele>177</ele>
        <time>2011-08-20T07:47:32.000Z</time>
      </trkpt>
      <trkpt lat="48.69239" lon="1.73627">
        <ele>177.19999694824</ele>
        <time>2011-08-20T07:47:36.000Z</time>
      </trkpt>
      <trkpt lat="48.69227" lon="1.73628">
        <ele>177.39999389648</ele>
        <time>2011-08-20T07:47:44.000Z</time>
      </trkpt>
      <trkpt lat="48.69216" lon="1.7363">
        <ele>177.60000610352</ele>
        <time>2011-08-20T07:47:52.000Z</time>
      </trkpt>
      <trkpt lat="48.69208" lon="1.73629">
        <ele>178</ele>
        <time>2011-08-20T07:47:58.000Z</time>
      </trkpt>
      <trkpt lat="48.69201" lon="1.73625">
        <ele>178.39999389648</ele>
        <time>2011-08-20T07:48:03.000Z</time>
      </trkpt>
      <trkpt lat="48.69192" lon="1.73622">
        <ele>178.80000305176</ele>
        <time>2011-08-20T07:48:08.000Z</time>
      </trkpt>
      <trkpt lat="48.69183" lon="1.7362">
        <ele>179.19999694824</ele>
        <time>2011-08-20T07:48:15.000Z</time>
      </trkpt>
      <trkpt lat="48.69175" lon="1.73617">
        <ele>179.39999389648</ele>
        <time>2011-08-20T07:48:21.000Z</time>
      </trkpt>
      <trkpt lat="48.69164" lon="1.73614">
        <ele>179.60000610352</ele>
        <time>2011-08-20T07:48:28.000Z</time>
      </trkpt>
      <trkpt lat="48.69159" lon="1.73611">
        <ele>179.60000610352</ele>
        <time>2011-08-20T07:48:31.000Z</time>
      </trkpt>
      <trkpt lat="48.69148" lon="1.7361">
        <ele>179</ele>
        <time>2011-08-20T07:48:39.000Z</time>
      </trkpt>
      <trkpt lat="48.69139" lon="1.73611">
        <ele>178.39999389648</ele>
        <time>2011-08-20T07:48:45.000Z</time>
      </trkpt>
      <trkpt lat="48.69128" lon="1.7361">
        <ele>178</ele>
        <time>2011-08-20T07:48:52.000Z</time>
      </trkpt>
      <trkpt lat="48.69117" lon="1.7361">
        <ele>177.39999389648</ele>
        <time>2011-08-20T07:48:59.000Z</time>
      </trkpt>
      <trkpt lat="48.69109" lon="1.73609">
        <ele>177</ele>
        <time>2011-08-20T07:49:04.000Z</time>
      </trkpt>
      <trkpt lat="48.691" lon="1.73609">
        <ele>176.39999389648</ele>
        <time>2011-08-20T07:49:10.000Z</time>
      </trkpt>
      <trkpt lat="48.69092" lon="1.73607">
        <ele>176</ele>
        <time>2011-08-20T07:49:15.000Z</time>
      </trkpt>
      <trkpt lat="48.69085" lon="1.73606">
        <ele>175.80000305176</ele>
        <time>2011-08-20T07:49:19.000Z</time>
      </trkpt>
      <trkpt lat="48.69072" lon="1.73606">
        <ele>175</ele>
        <time>2011-08-20T07:49:28.000Z</time>
      </trkpt>
      <trkpt lat="48.69067" lon="1.73606">
        <ele>174.80000305176</ele>
        <time>2011-08-20T07:49:31.000Z</time>
      </trkpt>
      <trkpt lat="48.69062" lon="1.73605">
        <ele>174.60000610352</ele>
        <time>2011-08-20T07:49:35.000Z</time>
      </trkpt>
      <trkpt lat="48.69062" lon="1.73605">
        <ele>174.60000610352</ele>
        <time>2011-08-20T07:49:38.000Z</time>
      </trkpt>
      <trkpt lat="48.69058" lon="1.73617">
        <ele>174.39999389648</ele>
        <time>2011-08-20T07:49:49.000Z</time>
      </trkpt>
      <trkpt lat="48.69056" lon="1.7362">
        <ele>174.19999694824</ele>
        <time>2011-08-20T07:49:52.000Z</time>
      </trkpt>
      <trkpt lat="48.69062" lon="1.7362">
        <ele>174.60000610352</ele>
        <time>2011-08-20T07:49:58.000Z</time>
      </trkpt>
      <trkpt lat="48.69067" lon="1.73622">
        <ele>174.80000305176</ele>
        <time>2011-08-20T07:50:01.000Z</time>
      </trkpt>
      <trkpt lat="48.69068" lon="1.73623">
        <ele>174.80000305176</ele>
        <time>2011-08-20T07:50:04.000Z</time>
      </trkpt>
      <trkpt lat="48.69058" lon="1.7362">
        <ele>174.39999389648</ele>
        <time>2011-08-20T07:50:35.000Z</time>
      </trkpt>
      <trkpt lat="48.69053" lon="1.73628">
        <ele>174.19999694824</ele>
        <time>2011-08-20T07:50:39.000Z</time>
      </trkpt>
      <trkpt lat="48.69051" lon="1.7363">
        <ele>174</ele>
        <time>2011-08-20T07:50:41.000Z</time>
      </trkpt>
      <trkpt lat="48.69046" lon="1.73637">
        <ele>173.80000305176</ele>
        <time>2011-08-20T07:50:46.000Z</time>
      </trkpt>
      <trkpt lat="48.69037" lon="1.7365">
        <ele>173.60000610352</ele>
        <time>2011-08-20T07:50:55.000Z</time>
      </trkpt>
      <trkpt lat="48.6903" lon="1.73661">
        <ele>173.60000610352</ele>
        <time>2011-08-20T07:51:02.000Z</time>
      </trkpt>
      <trkpt lat="48.69022" lon="1.73672">
        <ele>173.60000610352</ele>
        <time>2011-08-20T07:51:09.000Z</time>
      </trkpt>
      <trkpt lat="48.69016" lon="1.73681">
        <ele>173.60000610352</ele>
        <time>2011-08-20T07:51:15.000Z</time>
      </trkpt>
      <trkpt lat="48.6901" lon="1.73691">
        <ele>173.60000610352</ele>
        <time>2011-08-20T07:51:21.000Z</time>
      </trkpt>
      <trkpt lat="48.69003" lon="1.73703">
        <ele>173.80000305176</ele>
        <time>2011-08-20T07:51:29.000Z</time>
      </trkpt>
      <trkpt lat="48.68995" lon="1.73718">
        <ele>174</ele>
        <time>2011-08-20T07:51:38.000Z</time>
      </trkpt>
      <trkpt lat="48.68989" lon="1.73726">
        <ele>173.80000305176</ele>
        <time>2011-08-20T07:51:43.000Z</time>
      </trkpt>
      <trkpt lat="48.68983" lon="1.73734">
        <ele>173.80000305176</ele>
        <time>2011-08-20T07:51:48.000Z</time>
      </trkpt>
      <trkpt lat="48.68976" lon="1.73746">
        <ele>173.60000610352</ele>
        <time>2011-08-20T07:51:55.000Z</time>
      </trkpt>
      <trkpt lat="48.68975" lon="1.73748">
        <ele>173.60000610352</ele>
        <time>2011-08-20T07:51:56.000Z</time>
      </trkpt>
      <trkpt lat="48.68968" lon="1.73762">
        <ele>173.39999389648</ele>
        <time>2011-08-20T07:52:03.000Z</time>
      </trkpt>
      <trkpt lat="48.68961" lon="1.73785">
        <ele>173</ele>
        <time>2011-08-20T07:52:12.000Z</time>
      </trkpt>
      <trkpt lat="48.68954" lon="1.73796">
        <ele>172.60000610352</ele>
        <time>2011-08-20T07:52:19.000Z</time>
      </trkpt>
      <trkpt lat="48.68947" lon="1.73809">
        <ele>172.39999389648</ele>
        <time>2011-08-20T07:52:26.000Z</time>
      </trkpt>
      <trkpt lat="48.6894" lon="1.73815">
        <ele>172</ele>
        <time>2011-08-20T07:52:32.000Z</time>
      </trkpt>
      <trkpt lat="48.68933" lon="1.73823">
        <ele>171.60000610352</ele>
        <time>2011-08-20T07:52:38.000Z</time>
      </trkpt>
      <trkpt lat="48.68926" lon="1.73826">
        <ele>171.39999389648</ele>
        <time>2011-08-20T07:52:43.000Z</time>
      </trkpt>
      <trkpt lat="48.68925" lon="1.73827">
        <ele>171.19999694824</ele>
        <time>2011-08-20T07:52:44.000Z</time>
      </trkpt>
      <trkpt lat="48.68922" lon="1.73829">
        <ele>171.19999694824</ele>
        <time>2011-08-20T07:52:46.000Z</time>
      </trkpt>
      <trkpt lat="48.68916" lon="1.73836">
        <ele>171</ele>
        <time>2011-08-20T07:52:51.000Z</time>
      </trkpt>
      <trkpt lat="48.68912" lon="1.73847">
        <ele>170.80000305176</ele>
        <time>2011-08-20T07:52:57.000Z</time>
      </trkpt>
      <trkpt lat="48.68903" lon="1.73859">
        <ele>170.60000610352</ele>
        <time>2011-08-20T07:53:04.000Z</time>
      </trkpt>
      <trkpt lat="48.68895" lon="1.73872">
        <ele>170.19999694824</ele>
        <time>2011-08-20T07:53:11.000Z</time>
      </trkpt>
      <trkpt lat="48.68886" lon="1.73889">
        <ele>169.80000305176</ele>
        <time>2011-08-20T07:53:20.000Z</time>
      </trkpt>
      <trkpt lat="48.68879" lon="1.73903">
        <ele>169.60000610352</ele>
        <time>2011-08-20T07:53:27.000Z</time>
      </trkpt>
      <trkpt lat="48.68873" lon="1.73914">
        <ele>169.19999694824</ele>
        <time>2011-08-20T07:53:33.000Z</time>
      </trkpt>
      <trkpt lat="48.68867" lon="1.73923">
        <ele>168.80000305176</ele>
        <time>2011-08-20T07:53:39.000Z</time>
      </trkpt>
      <trkpt lat="48.6886" lon="1.73932">
        <ele>168.19999694824</ele>
        <time>2011-08-20T07:53:45.000Z</time>
      </trkpt>
      <trkpt lat="48.68857" lon="1.73939">
        <ele>167.80000305176</ele>
        <time>2011-08-20T07:53:48.000Z</time>
      </trkpt>
      <trkpt lat="48.68849" lon="1.73953">
        <ele>167</ele>
        <time>2011-08-20T07:53:55.000Z</time>
      </trkpt>
      <trkpt lat="48.68843" lon="1.73965">
        <ele>166.39999389648</ele>
        <time>2011-08-20T07:54:02.000Z</time>
      </trkpt>
      <trkpt lat="48.68836" lon="1.73976">
        <ele>165.60000610352</ele>
        <time>2011-08-20T07:54:09.000Z</time>
      </trkpt>
      <trkpt lat="48.6883" lon="1.7399">
        <ele>165</ele>
        <time>2011-08-20T07:54:16.000Z</time>
      </trkpt>
      <trkpt lat="48.6882" lon="1.74002">
        <ele>164.39999389648</ele>
        <time>2011-08-20T07:54:24.000Z</time>
      </trkpt>
      <trkpt lat="48.68812" lon="1.74015">
        <ele>163.39999389648</ele>
        <time>2011-08-20T07:54:31.000Z</time>
      </trkpt>
      <trkpt lat="48.68805" lon="1.74028">
        <ele>162.60000610352</ele>
        <time>2011-08-20T07:54:38.000Z</time>
      </trkpt>
      <trkpt lat="48.68797" lon="1.74041">
        <ele>161.60000610352</ele>
        <time>2011-08-20T07:54:46.000Z</time>
      </trkpt>
      <trkpt lat="48.68797" lon="1.74042">
        <ele>161.60000610352</ele>
        <time>2011-08-20T07:54:47.000Z</time>
      </trkpt>
      <trkpt lat="48.68796" lon="1.74045">
        <ele>161.19999694824</ele>
        <time>2011-08-20T07:54:52.000Z</time>
      </trkpt>
      <trkpt lat="48.68786" lon="1.74053">
        <ele>160.60000610352</ele>
        <time>2011-08-20T07:55:04.000Z</time>
      </trkpt>
      <trkpt lat="48.6878" lon="1.74065">
        <ele>159.80000305176</ele>
        <time>2011-08-20T07:55:08.000Z</time>
      </trkpt>
      <trkpt lat="48.68769" lon="1.74082">
        <ele>158.39999389648</ele>
        <time>2011-08-20T07:55:18.000Z</time>
      </trkpt>
      <trkpt lat="48.68757" lon="1.74101">
        <ele>157.39999389648</ele>
        <time>2011-08-20T07:55:29.000Z</time>
      </trkpt>
      <trkpt lat="48.68748" lon="1.74117">
        <ele>156.80000305176</ele>
        <time>2011-08-20T07:55:38.000Z</time>
      </trkpt>
      <trkpt lat="48.68738" lon="1.74135">
        <ele>156.60000610352</ele>
        <time>2011-08-20T07:55:47.000Z</time>
      </trkpt>
      <trkpt lat="48.68729" lon="1.7415">
        <ele>156.39999389648</ele>
        <time>2011-08-20T07:55:55.000Z</time>
      </trkpt>
      <trkpt lat="48.68723" lon="1.74156">
        <ele>156.39999389648</ele>
        <time>2011-08-20T07:56:00.000Z</time>
      </trkpt>
      <trkpt lat="48.68713" lon="1.74168">
        <ele>156.19999694824</ele>
        <time>2011-08-20T07:56:08.000Z</time>
      </trkpt>
      <trkpt lat="48.68711" lon="1.74172">
        <ele>156.39999389648</ele>
        <time>2011-08-20T07:56:10.000Z</time>
      </trkpt>
      <trkpt lat="48.68706" lon="1.74178">
        <ele>156.60000610352</ele>
        <time>2011-08-20T07:56:14.000Z</time>
      </trkpt>
      <trkpt lat="48.68701" lon="1.74191">
        <ele>156.80000305176</ele>
        <time>2011-08-20T07:56:21.000Z</time>
      </trkpt>
      <trkpt lat="48.68701" lon="1.74192">
        <ele>156.80000305176</ele>
        <time>2011-08-20T07:56:23.000Z</time>
      </trkpt>
      <trkpt lat="48.68701" lon="1.74199">
        <ele>156.80000305176</ele>
        <time>2011-08-20T07:56:31.000Z</time>
      </trkpt>
      <trkpt lat="48.687" lon="1.74207">
        <ele>156.80000305176</ele>
        <time>2011-08-20T07:56:35.000Z</time>
      </trkpt>
      <trkpt lat="48.68702" lon="1.74212">
        <ele>156.80000305176</ele>
        <time>2011-08-20T07:56:37.000Z</time>
      </trkpt>
      <trkpt lat="48.68704" lon="1.74228">
        <ele>156.80000305176</ele>
        <time>2011-08-20T07:56:44.000Z</time>
      </trkpt>
      <trkpt lat="48.68704" lon="1.74229">
        <ele>156.80000305176</ele>
        <time>2011-08-20T07:56:45.000Z</time>
      </trkpt>
      <trkpt lat="48.68709" lon="1.7423">
        <ele>156.80000305176</ele>
        <time>2011-08-20T07:56:50.000Z</time>
      </trkpt>
      <trkpt lat="48.6872" lon="1.74231">
        <ele>156.60000610352</ele>
        <time>2011-08-20T07:56:54.000Z</time>
      </trkpt>
      <trkpt lat="48.68738" lon="1.74228">
        <ele>156.39999389648</ele>
        <time>2011-08-20T07:56:58.000Z</time>
      </trkpt>
      <trkpt lat="48.68757" lon="1.74224">
        <ele>156.19999694824</ele>
        <time>2011-08-20T07:57:03.000Z</time>
      </trkpt>
      <trkpt lat="48.68774" lon="1.74223">
        <ele>155.80000305176</ele>
        <time>2011-08-20T07:57:07.000Z</time>
      </trkpt>
      <trkpt lat="48.68793" lon="1.74224">
        <ele>155.60000610352</ele>
        <time>2011-08-20T07:57:11.000Z</time>
      </trkpt>
      <trkpt lat="48.68806" lon="1.74227">
        <ele>155.19999694824</ele>
        <time>2011-08-20T07:57:14.000Z</time>
      </trkpt>
      <trkpt lat="48.68824" lon="1.74252">
        <ele>154.19999694824</ele>
        <time>2011-08-20T07:57:21.000Z</time>
      </trkpt>
      <trkpt lat="48.68828" lon="1.74275">
        <ele>154.60000610352</ele>
        <time>2011-08-20T07:57:25.000Z</time>
      </trkpt>
      <trkpt lat="48.68828" lon="1.74309">
        <ele>155.19999694824</ele>
        <time>2011-08-20T07:57:30.000Z</time>
      </trkpt>
      <trkpt lat="48.68827" lon="1.74316">
        <ele>155.39999389648</ele>
        <time>2011-08-20T07:57:31.000Z</time>
      </trkpt>
      <trkpt lat="48.6883" lon="1.74366">
        <ele>156.39999389648</ele>
        <time>2011-08-20T07:57:38.000Z</time>
      </trkpt>
      <trkpt lat="48.68831" lon="1.74373">
        <ele>156.60000610352</ele>
        <time>2011-08-20T07:57:39.000Z</time>
      </trkpt>
      <trkpt lat="48.68832" lon="1.74401">
        <ele>157.39999389648</ele>
        <time>2011-08-20T07:57:43.000Z</time>
      </trkpt>
      <trkpt lat="48.68833" lon="1.74418">
        <ele>157.80000305176</ele>
        <time>2011-08-20T07:57:45.000Z</time>
      </trkpt>
      <trkpt lat="48.68835" lon="1.74447">
        <ele>157.19999694824</ele>
        <time>2011-08-20T07:57:50.000Z</time>
      </trkpt>
      <trkpt lat="48.68836" lon="1.74475">
        <ele>156.60000610352</ele>
        <time>2011-08-20T07:57:54.000Z</time>
      </trkpt>
      <trkpt lat="48.68835" lon="1.74482">
        <ele>156.39999389648</ele>
        <time>2011-08-20T07:57:55.000Z</time>
      </trkpt>
      <trkpt lat="48.68837" lon="1.74549">
        <ele>156</ele>
        <time>2011-08-20T07:58:05.000Z</time>
      </trkpt>
      <trkpt lat="48.68838" lon="1.74595">
        <ele>156.19999694824</ele>
        <time>2011-08-20T07:58:12.000Z</time>
      </trkpt>
      <trkpt lat="48.68838" lon="1.7463">
        <ele>156.60000610352</ele>
        <time>2011-08-20T07:58:18.000Z</time>
      </trkpt>
      <trkpt lat="48.68841" lon="1.7466">
        <ele>157.19999694824</ele>
        <time>2011-08-20T07:58:23.000Z</time>
      </trkpt>
      <trkpt lat="48.68843" lon="1.74672">
        <ele>157.39999389648</ele>
        <time>2011-08-20T07:58:25.000Z</time>
      </trkpt>
      <trkpt lat="48.68846" lon="1.74692">
        <ele>157.19999694824</ele>
        <time>2011-08-20T07:58:28.000Z</time>
      </trkpt>
      <trkpt lat="48.6885" lon="1.74716">
        <ele>157.39999389648</ele>
        <time>2011-08-20T07:58:32.000Z</time>
      </trkpt>
      <trkpt lat="48.68858" lon="1.74766">
        <ele>157.39999389648</ele>
        <time>2011-08-20T07:58:40.000Z</time>
      </trkpt>
      <trkpt lat="48.68864" lon="1.74807">
        <ele>157.39999389648</ele>
        <time>2011-08-20T07:58:46.000Z</time>
      </trkpt>
      <trkpt lat="48.68866" lon="1.7482">
        <ele>157.19999694824</ele>
        <time>2011-08-20T07:58:48.000Z</time>
      </trkpt>
      <trkpt lat="48.68872" lon="1.74858">
        <ele>157</ele>
        <time>2011-08-20T07:58:54.000Z</time>
      </trkpt>
      <trkpt lat="48.68876" lon="1.7488">
        <ele>156.80000305176</ele>
        <time>2011-08-20T07:58:58.000Z</time>
      </trkpt>
      <trkpt lat="48.68881" lon="1.74916">
        <ele>156.39999389648</ele>
        <time>2011-08-20T07:59:04.000Z</time>
      </trkpt>
      <trkpt lat="48.68887" lon="1.74953">
        <ele>155.60000610352</ele>
        <time>2011-08-20T07:59:10.000Z</time>
      </trkpt>
      <trkpt lat="48.68895" lon="1.74984">
        <ele>154.60000610352</ele>
        <time>2011-08-20T07:59:15.000Z</time>
      </trkpt>
      <trkpt lat="48.68898" lon="1.75015">
        <ele>154.19999694824</ele>
        <time>2011-08-20T07:59:20.000Z</time>
      </trkpt>
      <trkpt lat="48.68906" lon="1.75061">
        <ele>154</ele>
        <time>2011-08-20T07:59:27.000Z</time>
      </trkpt>
      <trkpt lat="48.68911" lon="1.75097">
        <ele>153.80000305176</ele>
        <time>2011-08-20T07:59:33.000Z</time>
      </trkpt>
      <trkpt lat="48.68913" lon="1.75108">
        <ele>153.60000610352</ele>
        <time>2011-08-20T07:59:35.000Z</time>
      </trkpt>
      <trkpt lat="48.68921" lon="1.75145">
        <ele>153.19999694824</ele>
        <time>2011-08-20T07:59:42.000Z</time>
      </trkpt>
      <trkpt lat="48.68927" lon="1.75168">
        <ele>153</ele>
        <time>2011-08-20T07:59:46.000Z</time>
      </trkpt>
      <trkpt lat="48.68931" lon="1.75199">
        <ele>153.19999694824</ele>
        <time>2011-08-20T07:59:51.000Z</time>
      </trkpt>
      <trkpt lat="48.68936" lon="1.75222">
        <ele>153.19999694824</ele>
        <time>2011-08-20T07:59:55.000Z</time>
      </trkpt>
      <trkpt lat="48.6894" lon="1.75239">
        <ele>153.39999389648</ele>
        <time>2011-08-20T07:59:58.000Z</time>
      </trkpt>
      <trkpt lat="48.68954" lon="1.75266">
        <ele>154</ele>
        <time>2011-08-20T08:00:04.000Z</time>
      </trkpt>
      <trkpt lat="48.6897" lon="1.75295">
        <ele>155</ele>
        <time>2011-08-20T08:00:10.000Z</time>
      </trkpt>
      <trkpt lat="48.68972" lon="1.753">
        <ele>155.19999694824</ele>
        <time>2011-08-20T08:00:11.000Z</time>
      </trkpt>
      <trkpt lat="48.68982" lon="1.7532">
        <ele>156</ele>
        <time>2011-08-20T08:00:15.000Z</time>
      </trkpt>
      <trkpt lat="48.69005" lon="1.75352">
        <ele>157.19999694824</ele>
        <time>2011-08-20T08:00:21.000Z</time>
      </trkpt>
      <trkpt lat="48.69029" lon="1.75397">
        <ele>157.19999694824</ele>
        <time>2011-08-20T08:00:27.000Z</time>
      </trkpt>
      <trkpt lat="48.69034" lon="1.75406">
        <ele>157.19999694824</ele>
        <time>2011-08-20T08:00:28.000Z</time>
      </trkpt>
      <trkpt lat="48.69044" lon="1.75423">
        <ele>157</ele>
        <time>2011-08-20T08:00:30.000Z</time>
      </trkpt>
      <trkpt lat="48.69069" lon="1.75468">
        <ele>157</ele>
        <time>2011-08-20T08:00:35.000Z</time>
      </trkpt>
      <trkpt lat="48.69098" lon="1.75517">
        <ele>157.60000610352</ele>
        <time>2011-08-20T08:00:41.000Z</time>
      </trkpt>
      <trkpt lat="48.69128" lon="1.75567">
        <ele>158</ele>
        <time>2011-08-20T08:00:47.000Z</time>
      </trkpt>
      <trkpt lat="48.69152" lon="1.75609">
        <ele>158.39999389648</ele>
        <time>2011-08-20T08:00:52.000Z</time>
      </trkpt>
      <trkpt lat="48.69175" lon="1.75646">
        <ele>160.19999694824</ele>
        <time>2011-08-20T08:00:57.000Z</time>
      </trkpt>
      <trkpt lat="48.69188" lon="1.75666">
        <ele>161.19999694824</ele>
        <time>2011-08-20T08:01:00.000Z</time>
      </trkpt>
      <trkpt lat="48.69206" lon="1.75698">
        <ele>161.39999389648</ele>
        <time>2011-08-20T08:01:05.000Z</time>
      </trkpt>
      <trkpt lat="48.69216" lon="1.75714">
        <ele>161.39999389648</ele>
        <time>2011-08-20T08:01:08.000Z</time>
      </trkpt>
      <trkpt lat="48.69234" lon="1.75742">
        <ele>161.39999389648</ele>
        <time>2011-08-20T08:01:14.000Z</time>
      </trkpt>
      <trkpt lat="48.69239" lon="1.75751">
        <ele>161.39999389648</ele>
        <time>2011-08-20T08:01:16.000Z</time>
      </trkpt>
      <trkpt lat="48.69253" lon="1.75774">
        <ele>161.80000305176</ele>
        <time>2011-08-20T08:01:21.000Z</time>
      </trkpt>
      <trkpt lat="48.69263" lon="1.75791">
        <ele>162.60000610352</ele>
        <time>2011-08-20T08:01:25.000Z</time>
      </trkpt>
      <trkpt lat="48.69279" lon="1.75818">
        <ele>163.80000305176</ele>
        <time>2011-08-20T08:01:32.000Z</time>
      </trkpt>
      <trkpt lat="48.6929" lon="1.7584">
        <ele>164.60000610352</ele>
        <time>2011-08-20T08:01:37.000Z</time>
      </trkpt>
      <trkpt lat="48.69302" lon="1.7586">
        <ele>165.80000305176</ele>
        <time>2011-08-20T08:01:42.000Z</time>
      </trkpt>
      <trkpt lat="48.69317" lon="1.75878">
        <ele>166.60000610352</ele>
        <time>2011-08-20T08:01:47.000Z</time>
      </trkpt>
      <trkpt lat="48.69331" lon="1.75904">
        <ele>167.39999389648</ele>
        <time>2011-08-20T08:01:53.000Z</time>
      </trkpt>
      <trkpt lat="48.69345" lon="1.7593">
        <ele>169</ele>
        <time>2011-08-20T08:01:59.000Z</time>
      </trkpt>
      <trkpt lat="48.69357" lon="1.7595">
        <ele>170.39999389648</ele>
        <time>2011-08-20T08:02:04.000Z</time>
      </trkpt>
      <trkpt lat="48.69363" lon="1.75957">
        <ele>171</ele>
        <time>2011-08-20T08:02:07.000Z</time>
      </trkpt>
      <trkpt lat="48.69367" lon="1.75968">
        <ele>171.80000305176</ele>
        <time>2011-08-20T08:02:13.000Z</time>
      </trkpt>
      <trkpt lat="48.69371" lon="1.75976">
        <ele>172.39999389648</ele>
        <time>2011-08-20T08:02:19.000Z</time>
      </trkpt>
      <trkpt lat="48.69381" lon="1.75985">
        <ele>173</ele>
        <time>2011-08-20T08:02:25.000Z</time>
      </trkpt>
      <trkpt lat="48.69389" lon="1.75996">
        <ele>173.60000610352</ele>
        <time>2011-08-20T08:02:33.000Z</time>
      </trkpt>
      <trkpt lat="48.69403" lon="1.76008">
        <ele>174.19999694824</ele>
        <time>2011-08-20T08:02:41.000Z</time>
      </trkpt>
      <trkpt lat="48.69419" lon="1.76019">
        <ele>174.60000610352</ele>
        <time>2011-08-20T08:02:50.000Z</time>
      </trkpt>
      <trkpt lat="48.69426" lon="1.76028">
        <ele>175.19999694824</ele>
        <time>2011-08-20T08:02:57.000Z</time>
      </trkpt>
      <trkpt lat="48.69428" lon="1.76039">
        <ele>175.60000610352</ele>
        <time>2011-08-20T08:03:04.000Z</time>
      </trkpt>
      <trkpt lat="48.69432" lon="1.76051">
        <ele>176.19999694824</ele>
        <time>2011-08-20T08:03:12.000Z</time>
      </trkpt>
      <trkpt lat="48.69441" lon="1.76061">
        <ele>176.80000305176</ele>
        <time>2011-08-20T08:03:19.000Z</time>
      </trkpt>
      <trkpt lat="48.69447" lon="1.7607">
        <ele>177.39999389648</ele>
        <time>2011-08-20T08:03:26.000Z</time>
      </trkpt>
      <trkpt lat="48.6945" lon="1.76077">
        <ele>177.80000305176</ele>
        <time>2011-08-20T08:03:30.000Z</time>
      </trkpt>
      <trkpt lat="48.69455" lon="1.76085">
        <ele>178.39999389648</ele>
        <time>2011-08-20T08:03:35.000Z</time>
      </trkpt>
      <trkpt lat="48.6946" lon="1.76096">
        <ele>179</ele>
        <time>2011-08-20T08:03:41.000Z</time>
      </trkpt>
      <trkpt lat="48.69469" lon="1.76111">
        <ele>180</ele>
        <time>2011-08-20T08:03:49.000Z</time>
      </trkpt>
      <trkpt lat="48.69473" lon="1.76117">
        <ele>180.39999389648</ele>
        <time>2011-08-20T08:03:53.000Z</time>
      </trkpt>
      <trkpt lat="48.69471" lon="1.7613">
        <ele>181</ele>
        <time>2011-08-20T08:04:00.000Z</time>
      </trkpt>
      <trkpt lat="48.69473" lon="1.76141">
        <ele>181.39999389648</ele>
        <time>2011-08-20T08:04:06.000Z</time>
      </trkpt>
      <trkpt lat="48.69478" lon="1.7615">
        <ele>182</ele>
        <time>2011-08-20T08:04:11.000Z</time>
      </trkpt>
      <trkpt lat="48.69484" lon="1.76163">
        <ele>182.60000610352</ele>
        <time>2011-08-20T08:04:18.000Z</time>
      </trkpt>
      <trkpt lat="48.69492" lon="1.7618">
        <ele>183</ele>
        <time>2011-08-20T08:04:26.000Z</time>
      </trkpt>
      <trkpt lat="48.69501" lon="1.76191">
        <ele>183.19999694824</ele>
        <time>2011-08-20T08:04:33.000Z</time>
      </trkpt>
      <trkpt lat="48.69509" lon="1.76202">
        <ele>183.39999389648</ele>
        <time>2011-08-20T08:04:40.000Z</time>
      </trkpt>
      <trkpt lat="48.69511" lon="1.7621">
        <ele>183.39999389648</ele>
        <time>2011-08-20T08:04:45.000Z</time>
      </trkpt>
      <trkpt lat="48.69521" lon="1.76224">
        <ele>183.60000610352</ele>
        <time>2011-08-20T08:04:54.000Z</time>
      </trkpt>
      <trkpt lat="48.69524" lon="1.76229">
        <ele>183.60000610352</ele>
        <time>2011-08-20T08:04:57.000Z</time>
      </trkpt>
      <trkpt lat="48.69531" lon="1.76244">
        <ele>183.80000305176</ele>
        <time>2011-08-20T08:05:06.000Z</time>
      </trkpt>
      <trkpt lat="48.69537" lon="1.76253">
        <ele>183.80000305176</ele>
        <time>2011-08-20T08:05:10.000Z</time>
      </trkpt>
      <trkpt lat="48.69545" lon="1.76261">
        <ele>183.80000305176</ele>
        <time>2011-08-20T08:05:14.000Z</time>
      </trkpt>
      <trkpt lat="48.6955" lon="1.76273">
        <ele>183.60000610352</ele>
        <time>2011-08-20T08:05:20.000Z</time>
      </trkpt>
      <trkpt lat="48.69559" lon="1.76292">
        <ele>183.39999389648</ele>
        <time>2011-08-20T08:05:30.000Z</time>
      </trkpt>
      <trkpt lat="48.69567" lon="1.76298">
        <ele>183.39999389648</ele>
        <time>2011-08-20T08:05:35.000Z</time>
      </trkpt>
      <trkpt lat="48.69577" lon="1.76308">
        <ele>183.19999694824</ele>
        <time>2011-08-20T08:05:41.000Z</time>
      </trkpt>
      <trkpt lat="48.69579" lon="1.76312">
        <ele>183.19999694824</ele>
        <time>2011-08-20T08:05:43.000Z</time>
      </trkpt>
      <trkpt lat="48.69589" lon="1.76324">
        <ele>183</ele>
        <time>2011-08-20T08:05:50.000Z</time>
      </trkpt>
      <trkpt lat="48.69593" lon="1.76338">
        <ele>182.80000305176</ele>
        <time>2011-08-20T08:05:57.000Z</time>
      </trkpt>
      <trkpt lat="48.69598" lon="1.76349">
        <ele>182.80000305176</ele>
        <time>2011-08-20T08:06:03.000Z</time>
      </trkpt>
      <trkpt lat="48.69603" lon="1.7636">
        <ele>182.60000610352</ele>
        <time>2011-08-20T08:06:09.000Z</time>
      </trkpt>
      <trkpt lat="48.69609" lon="1.76371">
        <ele>182.39999389648</ele>
        <time>2011-08-20T08:06:15.000Z</time>
      </trkpt>
      <trkpt lat="48.69615" lon="1.76381">
        <ele>182.39999389648</ele>
        <time>2011-08-20T08:06:21.000Z</time>
      </trkpt>
      <trkpt lat="48.69625" lon="1.76396">
        <ele>182.19999694824</ele>
        <time>2011-08-20T08:06:29.000Z</time>
      </trkpt>
      <trkpt lat="48.69634" lon="1.76407">
        <ele>182</ele>
        <time>2011-08-20T08:06:36.000Z</time>
      </trkpt>
      <trkpt lat="48.69637" lon="1.76416">
        <ele>182</ele>
        <time>2011-08-20T08:06:41.000Z</time>
      </trkpt>
      <trkpt lat="48.69644" lon="1.7643">
        <ele>181.60000610352</ele>
        <time>2011-08-20T08:06:49.000Z</time>
      </trkpt>
      <trkpt lat="48.69652" lon="1.76444">
        <ele>181.39999389648</ele>
        <time>2011-08-20T08:06:56.000Z</time>
      </trkpt>
      <trkpt lat="48.69658" lon="1.76456">
        <ele>181.39999389648</ele>
        <time>2011-08-20T08:07:02.000Z</time>
      </trkpt>
      <trkpt lat="48.69661" lon="1.76463">
        <ele>181.19999694824</ele>
        <time>2011-08-20T08:07:06.000Z</time>
      </trkpt>
      <trkpt lat="48.69668" lon="1.76476">
        <ele>181.19999694824</ele>
        <time>2011-08-20T08:07:13.000Z</time>
      </trkpt>
      <trkpt lat="48.69676" lon="1.76488">
        <ele>181.39999389648</ele>
        <time>2011-08-20T08:07:20.000Z</time>
      </trkpt>
      <trkpt lat="48.69685" lon="1.76502">
        <ele>181.80000305176</ele>
        <time>2011-08-20T08:07:27.000Z</time>
      </trkpt>
      <trkpt lat="48.69694" lon="1.7652">
        <ele>181.80000305176</ele>
        <time>2011-08-20T08:07:36.000Z</time>
      </trkpt>
      <trkpt lat="48.697" lon="1.76529">
        <ele>182</ele>
        <time>2011-08-20T08:07:42.000Z</time>
      </trkpt>
      <trkpt lat="48.69704" lon="1.76533">
        <ele>182</ele>
        <time>2011-08-20T08:07:45.000Z</time>
      </trkpt>
      <trkpt lat="48.69712" lon="1.76547">
        <ele>182.19999694824</ele>
        <time>2011-08-20T08:07:53.000Z</time>
      </trkpt>
      <trkpt lat="48.69721" lon="1.7656">
        <ele>182.60000610352</ele>
        <time>2011-08-20T08:08:01.000Z</time>
      </trkpt>
      <trkpt lat="48.69726" lon="1.76571">
        <ele>182.60000610352</ele>
        <time>2011-08-20T08:08:07.000Z</time>
      </trkpt>
      <trkpt lat="48.69733" lon="1.7658">
        <ele>183</ele>
        <time>2011-08-20T08:08:14.000Z</time>
      </trkpt>
      <trkpt lat="48.69739" lon="1.76589">
        <ele>183.19999694824</ele>
        <time>2011-08-20T08:08:19.000Z</time>
      </trkpt>
      <trkpt lat="48.69747" lon="1.76589">
        <ele>183.60000610352</ele>
        <time>2011-08-20T08:08:25.000Z</time>
      </trkpt>
      <trkpt lat="48.69754" lon="1.76581">
        <ele>184</ele>
        <time>2011-08-20T08:08:31.000Z</time>
      </trkpt>
      <trkpt lat="48.69763" lon="1.76573">
        <ele>184</ele>
        <time>2011-08-20T08:08:37.000Z</time>
      </trkpt>
      <trkpt lat="48.69772" lon="1.76565">
        <ele>184</ele>
        <time>2011-08-20T08:08:43.000Z</time>
      </trkpt>
      <trkpt lat="48.69775" lon="1.76561">
        <ele>184</ele>
        <time>2011-08-20T08:08:45.000Z</time>
      </trkpt>
      <trkpt lat="48.69786" lon="1.76549">
        <ele>184.19999694824</ele>
        <time>2011-08-20T08:08:52.000Z</time>
      </trkpt>
      <trkpt lat="48.69786" lon="1.76544">
        <ele>184.19999694824</ele>
        <time>2011-08-20T08:08:54.000Z</time>
      </trkpt>
      <trkpt lat="48.69789" lon="1.76531">
        <ele>184.19999694824</ele>
        <time>2011-08-20T08:09:00.000Z</time>
      </trkpt>
      <trkpt lat="48.69788" lon="1.76527">
        <ele>184.19999694824</ele>
        <time>2011-08-20T08:09:02.000Z</time>
      </trkpt>
      <trkpt lat="48.69796" lon="1.76509">
        <ele>184.19999694824</ele>
        <time>2011-08-20T08:09:11.000Z</time>
      </trkpt>
      <trkpt lat="48.69802" lon="1.76507">
        <ele>184.19999694824</ele>
        <time>2011-08-20T08:09:14.000Z</time>
      </trkpt>
      <trkpt lat="48.69814" lon="1.76497">
        <ele>184</ele>
        <time>2011-08-20T08:09:20.000Z</time>
      </trkpt>
      <trkpt lat="48.69823" lon="1.76485">
        <ele>183.80000305176</ele>
        <time>2011-08-20T08:09:27.000Z</time>
      </trkpt>
      <trkpt lat="48.69826" lon="1.76477">
        <ele>183.80000305176</ele>
        <time>2011-08-20T08:09:31.000Z</time>
      </trkpt>
      <trkpt lat="48.69833" lon="1.76465">
        <ele>183.39999389648</ele>
        <time>2011-08-20T08:09:39.000Z</time>
      </trkpt>
      <trkpt lat="48.69837" lon="1.76457">
        <ele>183.19999694824</ele>
        <time>2011-08-20T08:09:44.000Z</time>
      </trkpt>
      <trkpt lat="48.69851" lon="1.76447">
        <ele>182.80000305176</ele>
        <time>2011-08-20T08:09:51.000Z</time>
      </trkpt>
      <trkpt lat="48.69866" lon="1.76439">
        <ele>182.19999694824</ele>
        <time>2011-08-20T08:09:57.000Z</time>
      </trkpt>
      <trkpt lat="48.69878" lon="1.76427">
        <ele>181.39999389648</ele>
        <time>2011-08-20T08:10:04.000Z</time>
      </trkpt>
      <trkpt lat="48.69888" lon="1.76418">
        <ele>181</ele>
        <time>2011-08-20T08:10:11.000Z</time>
      </trkpt>
      <trkpt lat="48.69901" lon="1.76414">
        <ele>180.39999389648</ele>
        <time>2011-08-20T08:10:17.000Z</time>
      </trkpt>
      <trkpt lat="48.69907" lon="1.76407">
        <ele>180</ele>
        <time>2011-08-20T08:10:23.000Z</time>
      </trkpt>
      <trkpt lat="48.69908" lon="1.764">
        <ele>179.80000305176</ele>
        <time>2011-08-20T08:10:26.000Z</time>
      </trkpt>
      <trkpt lat="48.69906" lon="1.76391">
        <ele>179.80000305176</ele>
        <time>2011-08-20T08:10:29.000Z</time>
      </trkpt>
      <trkpt lat="48.69909" lon="1.76377">
        <ele>179.19999694824</ele>
        <time>2011-08-20T08:10:35.000Z</time>
      </trkpt>
      <trkpt lat="48.6991" lon="1.76368">
        <ele>179</ele>
        <time>2011-08-20T08:10:39.000Z</time>
      </trkpt>
      <trkpt lat="48.69917" lon="1.7635">
        <ele>178.19999694824</ele>
        <time>2011-08-20T08:10:46.000Z</time>
      </trkpt>
      <trkpt lat="48.69922" lon="1.7634">
        <ele>177.60000610352</ele>
        <time>2011-08-20T08:10:51.000Z</time>
      </trkpt>
      <trkpt lat="48.69927" lon="1.76333">
        <ele>176.80000305176</ele>
        <time>2011-08-20T08:10:56.000Z</time>
      </trkpt>
      <trkpt lat="48.6994" lon="1.76318">
        <ele>175</ele>
        <time>2011-08-20T08:11:04.000Z</time>
      </trkpt>
      <trkpt lat="48.69944" lon="1.76308">
        <ele>174.19999694824</ele>
        <time>2011-08-20T08:11:10.000Z</time>
      </trkpt>
      <trkpt lat="48.69949" lon="1.76296">
        <ele>173.39999389648</ele>
        <time>2011-08-20T08:11:16.000Z</time>
      </trkpt>
      <trkpt lat="48.6996" lon="1.76285">
        <ele>172</ele>
        <time>2011-08-20T08:11:23.000Z</time>
      </trkpt>
      <trkpt lat="48.6997" lon="1.76275">
        <ele>171</ele>
        <time>2011-08-20T08:11:29.000Z</time>
      </trkpt>
      <trkpt lat="48.69982" lon="1.76261">
        <ele>169.60000610352</ele>
        <time>2011-08-20T08:11:36.000Z</time>
      </trkpt>
      <trkpt lat="48.69989" lon="1.7625">
        <ele>168.80000305176</ele>
        <time>2011-08-20T08:11:43.000Z</time>
      </trkpt>
      <trkpt lat="48.69994" lon="1.76238">
        <ele>168</ele>
        <time>2011-08-20T08:11:50.000Z</time>
      </trkpt>
      <trkpt lat="48.69999" lon="1.76223">
        <ele>167.39999389648</ele>
        <time>2011-08-20T08:11:57.000Z</time>
      </trkpt>
      <trkpt lat="48.70007" lon="1.76216">
        <ele>167</ele>
        <time>2011-08-20T08:12:03.000Z</time>
      </trkpt>
      <trkpt lat="48.70009" lon="1.76212">
        <ele>167</ele>
        <time>2011-08-20T08:12:05.000Z</time>
      </trkpt>
      <trkpt lat="48.70017" lon="1.76196">
        <ele>166.60000610352</ele>
        <time>2011-08-20T08:12:13.000Z</time>
      </trkpt>
      <trkpt lat="48.70021" lon="1.76193">
        <ele>166.60000610352</ele>
        <time>2011-08-20T08:12:16.000Z</time>
      </trkpt>
      <trkpt lat="48.70028" lon="1.7618">
        <ele>166.19999694824</ele>
        <time>2011-08-20T08:12:24.000Z</time>
      </trkpt>
      <trkpt lat="48.70034" lon="1.7617">
        <ele>166</ele>
        <time>2011-08-20T08:12:30.000Z</time>
      </trkpt>
      <trkpt lat="48.70045" lon="1.76159">
        <ele>165.80000305176</ele>
        <time>2011-08-20T08:12:38.000Z</time>
      </trkpt>
      <trkpt lat="48.70051" lon="1.76148">
        <ele>165.80000305176</ele>
        <time>2011-08-20T08:12:45.000Z</time>
      </trkpt>
      <trkpt lat="48.70061" lon="1.76136">
        <ele>165.80000305176</ele>
        <time>2011-08-20T08:12:53.000Z</time>
      </trkpt>
      <trkpt lat="48.70073" lon="1.76121">
        <ele>165.80000305176</ele>
        <time>2011-08-20T08:13:03.000Z</time>
      </trkpt>
      <trkpt lat="48.70081" lon="1.76113">
        <ele>165.80000305176</ele>
        <time>2011-08-20T08:13:09.000Z</time>
      </trkpt>
      <trkpt lat="48.70091" lon="1.76096">
        <ele>166</ele>
        <time>2011-08-20T08:13:19.000Z</time>
      </trkpt>
      <trkpt lat="48.70102" lon="1.76082">
        <ele>165.80000305176</ele>
        <time>2011-08-20T08:13:28.000Z</time>
      </trkpt>
      <trkpt lat="48.70111" lon="1.7607">
        <ele>165.80000305176</ele>
        <time>2011-08-20T08:13:36.000Z</time>
      </trkpt>
      <trkpt lat="48.70125" lon="1.76049">
        <ele>165.39999389648</ele>
        <time>2011-08-20T08:13:48.000Z</time>
      </trkpt>
      <trkpt lat="48.70139" lon="1.76032">
        <ele>165.19999694824</ele>
        <time>2011-08-20T08:13:59.000Z</time>
      </trkpt>
      <trkpt lat="48.70149" lon="1.76016">
        <ele>165</ele>
        <time>2011-08-20T08:14:08.000Z</time>
      </trkpt>
      <trkpt lat="48.7016" lon="1.76001">
        <ele>165</ele>
        <time>2011-08-20T08:14:17.000Z</time>
      </trkpt>
      <trkpt lat="48.70168" lon="1.75991">
        <ele>165.39999389648</ele>
        <time>2011-08-20T08:14:24.000Z</time>
      </trkpt>
      <trkpt lat="48.70177" lon="1.75976">
        <ele>166.60000610352</ele>
        <time>2011-08-20T08:14:33.000Z</time>
      </trkpt>
      <trkpt lat="48.70186" lon="1.75962">
        <ele>167.60000610352</ele>
        <time>2011-08-20T08:14:42.000Z</time>
      </trkpt>
      <trkpt lat="48.70193" lon="1.75954">
        <ele>168.19999694824</ele>
        <time>2011-08-20T08:14:48.000Z</time>
      </trkpt>
      <trkpt lat="48.702" lon="1.75944">
        <ele>168.80000305176</ele>
        <time>2011-08-20T08:14:55.000Z</time>
      </trkpt>
      <trkpt lat="48.70205" lon="1.75936">
        <ele>169.39999389648</ele>
        <time>2011-08-20T08:15:00.000Z</time>
      </trkpt>
      <trkpt lat="48.70209" lon="1.7593">
        <ele>169.80000305176</ele>
        <time>2011-08-20T08:15:04.000Z</time>
      </trkpt>
      <trkpt lat="48.70219" lon="1.75911">
        <ele>170.39999389648</ele>
        <time>2011-08-20T08:15:14.000Z</time>
      </trkpt>
      <trkpt lat="48.70225" lon="1.75899">
        <ele>170.60000610352</ele>
        <time>2011-08-20T08:15:21.000Z</time>
      </trkpt>
      <trkpt lat="48.70235" lon="1.75888">
        <ele>171</ele>
        <time>2011-08-20T08:15:30.000Z</time>
      </trkpt>
      <trkpt lat="48.7024" lon="1.75879">
        <ele>171.39999389648</ele>
        <time>2011-08-20T08:15:36.000Z</time>
      </trkpt>
      <trkpt lat="48.70249" lon="1.75869">
        <ele>171.80000305176</ele>
        <time>2011-08-20T08:15:43.000Z</time>
      </trkpt>
      <trkpt lat="48.70255" lon="1.75861">
        <ele>172.19999694824</ele>
        <time>2011-08-20T08:15:49.000Z</time>
      </trkpt>
      <trkpt lat="48.70257" lon="1.75854">
        <ele>172.39999389648</ele>
        <time>2011-08-20T08:15:52.000Z</time>
      </trkpt>
      <trkpt lat="48.70263" lon="1.75841">
        <ele>172.80000305176</ele>
        <time>2011-08-20T08:15:59.000Z</time>
      </trkpt>
      <trkpt lat="48.70273" lon="1.75832">
        <ele>173.60000610352</ele>
        <time>2011-08-20T08:16:07.000Z</time>
      </trkpt>
      <trkpt lat="48.7028" lon="1.75822">
        <ele>174.19999694824</ele>
        <time>2011-08-20T08:16:15.000Z</time>
      </trkpt>
      <trkpt lat="48.70285" lon="1.75812">
        <ele>174.60000610352</ele>
        <time>2011-08-20T08:16:20.000Z</time>
      </trkpt>
      <trkpt lat="48.70289" lon="1.75803">
        <ele>175</ele>
        <time>2011-08-20T08:16:25.000Z</time>
      </trkpt>
      <trkpt lat="48.70291" lon="1.75797">
        <ele>175.39999389648</ele>
        <time>2011-08-20T08:16:30.000Z</time>
      </trkpt>
      <trkpt lat="48.70293" lon="1.75789">
        <ele>175.60000610352</ele>
        <time>2011-08-20T08:16:35.000Z</time>
      </trkpt>
      <trkpt lat="48.703" lon="1.75785">
        <ele>176</ele>
        <time>2011-08-20T08:16:41.000Z</time>
      </trkpt>
      <trkpt lat="48.70301" lon="1.75784">
        <ele>176.19999694824</ele>
        <time>2011-08-20T08:16:42.000Z</time>
      </trkpt>
      <trkpt lat="48.70304" lon="1.7577">
        <ele>176.60000610352</ele>
        <time>2011-08-20T08:16:49.000Z</time>
      </trkpt>
      <trkpt lat="48.70308" lon="1.7576">
        <ele>177</ele>
        <time>2011-08-20T08:16:54.000Z</time>
      </trkpt>
      <trkpt lat="48.70309" lon="1.75756">
        <ele>177</ele>
        <time>2011-08-20T08:16:56.000Z</time>
      </trkpt>
      <trkpt lat="48.70311" lon="1.75742">
        <ele>177.19999694824</ele>
        <time>2011-08-20T08:17:02.000Z</time>
      </trkpt>
      <trkpt lat="48.70314" lon="1.75725">
        <ele>177.39999389648</ele>
        <time>2011-08-20T08:17:10.000Z</time>
      </trkpt>
      <trkpt lat="48.70314" lon="1.75707">
        <ele>177.39999389648</ele>
        <time>2011-08-20T08:17:17.000Z</time>
      </trkpt>
      <trkpt lat="48.70317" lon="1.75688">
        <ele>177.60000610352</ele>
        <time>2011-08-20T08:17:26.000Z</time>
      </trkpt>
      <trkpt lat="48.70319" lon="1.75679">
        <ele>177.60000610352</ele>
        <time>2011-08-20T08:17:31.000Z</time>
      </trkpt>
      <trkpt lat="48.70323" lon="1.75666">
        <ele>178</ele>
        <time>2011-08-20T08:17:38.000Z</time>
      </trkpt>
      <trkpt lat="48.70327" lon="1.75652">
        <ele>178.60000610352</ele>
        <time>2011-08-20T08:17:46.000Z</time>
      </trkpt>
      <trkpt lat="48.70328" lon="1.75642">
        <ele>178.80000305176</ele>
        <time>2011-08-20T08:17:52.000Z</time>
      </trkpt>
      <trkpt lat="48.70332" lon="1.75631">
        <ele>179.19999694824</ele>
        <time>2011-08-20T08:17:58.000Z</time>
      </trkpt>
      <trkpt lat="48.70337" lon="1.75613">
        <ele>179.80000305176</ele>
        <time>2011-08-20T08:18:06.000Z</time>
      </trkpt>
      <trkpt lat="48.70338" lon="1.75611">
        <ele>180</ele>
        <time>2011-08-20T08:18:07.000Z</time>
      </trkpt>
      <trkpt lat="48.70344" lon="1.75596">
        <ele>180.60000610352</ele>
        <time>2011-08-20T08:18:14.000Z</time>
      </trkpt>
      <trkpt lat="48.70345" lon="1.75588">
        <ele>180.80000305176</ele>
        <time>2011-08-20T08:18:18.000Z</time>
      </trkpt>
      <trkpt lat="48.70348" lon="1.7557">
        <ele>181</ele>
        <time>2011-08-20T08:18:25.000Z</time>
      </trkpt>
      <trkpt lat="48.70351" lon="1.7555">
        <ele>181.39999389648</ele>
        <time>2011-08-20T08:18:33.000Z</time>
      </trkpt>
      <trkpt lat="48.70354" lon="1.7553">
        <ele>181.60000610352</ele>
        <time>2011-08-20T08:18:41.000Z</time>
      </trkpt>
      <trkpt lat="48.70359" lon="1.75513">
        <ele>181.80000305176</ele>
        <time>2011-08-20T08:18:48.000Z</time>
      </trkpt>
      <trkpt lat="48.70365" lon="1.75502">
        <ele>182</ele>
        <time>2011-08-20T08:18:55.000Z</time>
      </trkpt>
      <trkpt lat="48.70367" lon="1.75497">
        <ele>182</ele>
        <time>2011-08-20T08:18:58.000Z</time>
      </trkpt>
      <trkpt lat="48.70373" lon="1.75482">
        <ele>182.19999694824</ele>
        <time>2011-08-20T08:19:06.000Z</time>
      </trkpt>
      <trkpt lat="48.70377" lon="1.75469">
        <ele>182</ele>
        <time>2011-08-20T08:19:12.000Z</time>
      </trkpt>
      <trkpt lat="48.7038" lon="1.75459">
        <ele>182</ele>
        <time>2011-08-20T08:19:17.000Z</time>
      </trkpt>
      <trkpt lat="48.70383" lon="1.75446">
        <ele>182</ele>
        <time>2011-08-20T08:19:23.000Z</time>
      </trkpt>
      <trkpt lat="48.70386" lon="1.75434">
        <ele>181.80000305176</ele>
        <time>2011-08-20T08:19:29.000Z</time>
      </trkpt>
      <trkpt lat="48.70388" lon="1.7542">
        <ele>181.60000610352</ele>
        <time>2011-08-20T08:19:36.000Z</time>
      </trkpt>
      <trkpt lat="48.70394" lon="1.75416">
        <ele>181.60000610352</ele>
        <time>2011-08-20T08:19:42.000Z</time>
      </trkpt>
      <trkpt lat="48.70403" lon="1.75418">
        <ele>181.80000305176</ele>
        <time>2011-08-20T08:19:50.000Z</time>
      </trkpt>
      <trkpt lat="48.70411" lon="1.75418">
        <ele>181.80000305176</ele>
        <time>2011-08-20T08:19:57.000Z</time>
      </trkpt>
      <trkpt lat="48.70417" lon="1.75422">
        <ele>182</ele>
        <time>2011-08-20T08:20:03.000Z</time>
      </trkpt>
      <trkpt lat="48.70429" lon="1.7543">
        <ele>181.39999389648</ele>
        <time>2011-08-20T08:20:11.000Z</time>
      </trkpt>
      <trkpt lat="48.70436" lon="1.75434">
        <ele>181</ele>
        <time>2011-08-20T08:20:17.000Z</time>
      </trkpt>
      <trkpt lat="48.70448" lon="1.75442">
        <ele>180.60000610352</ele>
        <time>2011-08-20T08:20:25.000Z</time>
      </trkpt>
      <trkpt lat="48.70449" lon="1.75442">
        <ele>180.60000610352</ele>
        <time>2011-08-20T08:20:26.000Z</time>
      </trkpt>
      <trkpt lat="48.70458" lon="1.75451">
        <ele>180.39999389648</ele>
        <time>2011-08-20T08:20:34.000Z</time>
      </trkpt>
      <trkpt lat="48.70464" lon="1.75459">
        <ele>180.39999389648</ele>
        <time>2011-08-20T08:20:40.000Z</time>
      </trkpt>
      <trkpt lat="48.70476" lon="1.75474">
        <ele>180.39999389648</ele>
        <time>2011-08-20T08:20:51.000Z</time>
      </trkpt>
      <trkpt lat="48.70477" lon="1.75475">
        <ele>180.39999389648</ele>
        <time>2011-08-20T08:20:52.000Z</time>
      </trkpt>
      <trkpt lat="48.70482" lon="1.7548">
        <ele>180.39999389648</ele>
        <time>2011-08-20T08:20:56.000Z</time>
      </trkpt>
      <trkpt lat="48.70487" lon="1.75486">
        <ele>180.60000610352</ele>
        <time>2011-08-20T08:21:00.000Z</time>
      </trkpt>
      <trkpt lat="48.70492" lon="1.7549">
        <ele>180.60000610352</ele>
        <time>2011-08-20T08:21:04.000Z</time>
      </trkpt>
      <trkpt lat="48.70497" lon="1.75493">
        <ele>180.60000610352</ele>
        <time>2011-08-20T08:21:08.000Z</time>
      </trkpt>
      <trkpt lat="48.70507" lon="1.75503">
        <ele>180.39999389648</ele>
        <time>2011-08-20T08:21:16.000Z</time>
      </trkpt>
      <trkpt lat="48.70507" lon="1.75504">
        <ele>180.39999389648</ele>
        <time>2011-08-20T08:21:17.000Z</time>
      </trkpt>
      <trkpt lat="48.70513" lon="1.7551">
        <ele>180.39999389648</ele>
        <time>2011-08-20T08:21:23.000Z</time>
      </trkpt>
      <trkpt lat="48.70519" lon="1.75518">
        <ele>180.39999389648</ele>
        <time>2011-08-20T08:21:30.000Z</time>
      </trkpt>
      <trkpt lat="48.70525" lon="1.75525">
        <ele>180.39999389648</ele>
        <time>2011-08-20T08:21:35.000Z</time>
      </trkpt>
      <trkpt lat="48.7053" lon="1.75531">
        <ele>180.60000610352</ele>
        <time>2011-08-20T08:21:39.000Z</time>
      </trkpt>
      <trkpt lat="48.70543" lon="1.75545">
        <ele>180.80000305176</ele>
        <time>2011-08-20T08:21:48.000Z</time>
      </trkpt>
      <trkpt lat="48.7055" lon="1.75552">
        <ele>181</ele>
        <time>2011-08-20T08:21:54.000Z</time>
      </trkpt>
      <trkpt lat="48.70556" lon="1.75558">
        <ele>181.39999389648</ele>
        <time>2011-08-20T08:22:00.000Z</time>
      </trkpt>
      <trkpt lat="48.7056" lon="1.75562">
        <ele>181.60000610352</ele>
        <time>2011-08-20T08:22:04.000Z</time>
      </trkpt>
      <trkpt lat="48.70566" lon="1.75566">
        <ele>181.60000610352</ele>
        <time>2011-08-20T08:22:08.000Z</time>
      </trkpt>
      <trkpt lat="48.70578" lon="1.75576">
        <ele>182.19999694824</ele>
        <time>2011-08-20T08:22:17.000Z</time>
      </trkpt>
      <trkpt lat="48.70587" lon="1.75586">
        <ele>182.60000610352</ele>
        <time>2011-08-20T08:22:24.000Z</time>
      </trkpt>
      <trkpt lat="48.70595" lon="1.75598">
        <ele>182</ele>
        <time>2011-08-20T08:22:31.000Z</time>
      </trkpt>
      <trkpt lat="48.70604" lon="1.75612">
        <ele>181.39999389648</ele>
        <time>2011-08-20T08:22:39.000Z</time>
      </trkpt>
      <trkpt lat="48.70611" lon="1.75623">
        <ele>181</ele>
        <time>2011-08-20T08:22:46.000Z</time>
      </trkpt>
      <trkpt lat="48.70619" lon="1.75635">
        <ele>180.19999694824</ele>
        <time>2011-08-20T08:22:55.000Z</time>
      </trkpt>
      <trkpt lat="48.70628" lon="1.75645">
        <ele>179.39999389648</ele>
        <time>2011-08-20T08:23:03.000Z</time>
      </trkpt>
      <trkpt lat="48.70634" lon="1.75649">
        <ele>178.60000610352</ele>
        <time>2011-08-20T08:23:08.000Z</time>
      </trkpt>
      <trkpt lat="48.70635" lon="1.75656">
        <ele>178.60000610352</ele>
        <time>2011-08-20T08:23:13.000Z</time>
      </trkpt>
      <trkpt lat="48.70636" lon="1.75656">
        <ele>178.39999389648</ele>
        <time>2011-08-20T08:23:16.000Z</time>
      </trkpt>
      <trkpt lat="48.70654" lon="1.75677">
        <ele>176.19999694824</ele>
        <time>2011-08-20T08:24:35.000Z</time>
      </trkpt>
      <trkpt lat="48.7066" lon="1.75681">
        <ele>175.39999389648</ele>
        <time>2011-08-20T08:24:39.000Z</time>
      </trkpt>
      <trkpt lat="48.70664" lon="1.75684">
        <ele>175</ele>
        <time>2011-08-20T08:24:43.000Z</time>
      </trkpt>
      <trkpt lat="48.70669" lon="1.75688">
        <ele>174.60000610352</ele>
        <time>2011-08-20T08:24:48.000Z</time>
      </trkpt>
      <trkpt lat="48.70675" lon="1.75697">
        <ele>174.39999389648</ele>
        <time>2011-08-20T08:24:55.000Z</time>
      </trkpt>
      <trkpt lat="48.70677" lon="1.75698">
        <ele>174.39999389648</ele>
        <time>2011-08-20T08:24:57.000Z</time>
      </trkpt>
      <trkpt lat="48.70684" lon="1.75707">
        <ele>174.19999694824</ele>
        <time>2011-08-20T08:25:04.000Z</time>
      </trkpt>
      <trkpt lat="48.70689" lon="1.75713">
        <ele>174.19999694824</ele>
        <time>2011-08-20T08:25:10.000Z</time>
      </trkpt>
      <trkpt lat="48.70696" lon="1.75723">
        <ele>174</ele>
        <time>2011-08-20T08:25:18.000Z</time>
      </trkpt>
      <trkpt lat="48.70702" lon="1.75731">
        <ele>174</ele>
        <time>2011-08-20T08:25:24.000Z</time>
      </trkpt>
      <trkpt lat="48.70707" lon="1.75738">
        <ele>174</ele>
        <time>2011-08-20T08:25:30.000Z</time>
      </trkpt>
      <trkpt lat="48.70711" lon="1.75744">
        <ele>173.80000305176</ele>
        <time>2011-08-20T08:25:35.000Z</time>
      </trkpt>
      <trkpt lat="48.70717" lon="1.75752">
        <ele>173.80000305176</ele>
        <time>2011-08-20T08:25:42.000Z</time>
      </trkpt>
      <trkpt lat="48.70723" lon="1.75759">
        <ele>173.80000305176</ele>
        <time>2011-08-20T08:25:47.000Z</time>
      </trkpt>
      <trkpt lat="48.70726" lon="1.75765">
        <ele>173.60000610352</ele>
        <time>2011-08-20T08:25:53.000Z</time>
      </trkpt>
    </trkseg>
  </trk>
</gpx>